GFSSW_con_3kmhel_000.txt.gz
Helicity
1 11 15 25 28 25 20 30 51 88 111 128 139 111 56 57 79 81 59 42 62 64 83 112 121 131 127 129 153 174 216 169 146 113 35 80 121 94 49 56 46 55 70 78 52
2 12 17 28 24 25 27 38 60 87 102 107 102 111 125 103 60 43 26 34 17 42 75 103 156 202 183 157 177 218 235 204 158 122 65 37 33 64 68 90 77 81 76 116 134
18 13 19 33 24 28 34 43 61 78 97 105 95 100 64 106 132 41 8 26 51 68 77 80 115 163 176 159 215 206 168 216 161 69 78 48 61 60 84 62 49 53 63 123 109
32 26 20 32 28 39 45 49 55 67 77 100 98 101 108 126 96 81 52 30 20 57 99 84 111 121 149 162 134 146 145 154 145 106 92 64 35 126 104 74 64 45 45 98 138
23 28 24 31 37 47 58 58 59 56 63 85 102 97 135 140 162 162 107 127 119 85 59 76 94 136 130 135 117 115 107 124 87 39 47 56 23 44 42 82 66 47 42 39 68
28 29 29 30 38 52 66 62 59 56 66 72 94 91 113 89 75 149 152 154 119 104 56 75 71 87 127 127 133 221 199 73 98 64 78 74 3 69 38 67 54 30 10 37 40
36 27 42 35 35 51 65 67 61 59 56 60 60 47 46 32 65 158 195 95 123 69 60 74 52 187 206 150 130 129 121 114 109 80 69 98 -11 -107 42 89 47 43 43 37 65
48 49 57 51 42 53 69 73 81 76 75 72 79 58 45 34 63 74 122 140 102 78 70 65 124 143 169 180 203 166 138 115 116 133 99 96 -108 95 92 95 85 82 76 57 63
62 60 74 55 48 57 78 82 83 87 98 107 120 92 46 68 89 72 135 144 124 109 69 61 139 181 193 183 142 139 148 177 156 134 146 113 -41 62 71 78 92 78 53 79 63
64 78 82 64 56 66 91 106 111 121 133 127 148 104 78 77 81 73 127 148 169 171 169 135 203 206 216 202 166 153 156 148 177 192 134 63 3 72 77 98 65 69 88 78 132
47 69 88 77 68 84 154 157 155 147 153 124 123 127 132 99 81 108 141 201 239 293 261 231 248 202 149 157 159 158 139 131 219 205 109 128 58 56 14 57 111 95 96 70 123
39 90 87 80 65 97 151 147 113 122 96 57 77 102 135 188 155 139 184 242 239 213 221 258 222 165 109 105 119 136 117 93 82 98 130 92 65 68 42 4 81 100 149 122 203
40 80 97 77 75 119 128 107 84 92 85 61 112 166 156 171 205 139 187 203 216 169 165 183 173 71 141 126 154 129 119 129 117 88 75 101 33 52 25 -5 10 80 175 187 201
56 96 113 139 157 147 102 90 87 86 86 37 81 77 71 111 164 127 160 205 260 135 109 158 83 110 113 131 130 121 133 86 83 121 140 68 58 40 51 28 33 24 100 208 236
40 78 181 215 130 140 75 103 97 85 148 71 87 46 59 84 127 63 120 168 171 206 228 202 137 107 88 86 82 118 73 84 90 112 130 97 146 -58 84 71 98 66 109 206 295
102 130 188 242 150 99 104 135 117 168 137 108 99 85 98 49 122 142 93 84 140 142 162 184 177 139 143 95 86 104 89 105 110 121 210 94 135 -31 35 75 69 104 101 244 327
162 199 186 229 162 118 163 165 191 172 119 92 98 89 104 106 86 113 193 166 236 257 199 188 102 198 142 110 113 106 103 210 211 235 247 51 67 53 29 41 58 48 154 236 347
-42 211 180 255 187 162 192 210 173 115 118 116 98 129 131 122 110 111 148 113 80 153 149 136 160 121 134 104 156 119 137 234 287 220 154 58 33 -37 -90 26 37 -39 54 403 406
109 232 273 164 169 188 201 198 109 95 102 100 119 117 104 76 115 89 81 93 62 157 112 88 82 128 130 180 149 105 116 58 132 98 104 32 6 -26 14 -11 -37 53 289 377 446
24 390 216 93 138 186 191 122 82 69 116 97 83 103 76 93 94 75 94 65 109 101 116 73 100 88 91 95 76 117 114 154 101 74 6 -2 -23 2 47 29 -33 148 226 286 364
159 683 190 122 221 182 146 87 56 61 106 84 97 104 61 132 120 80 32 15 54 11 95 19 -4 -80 125 -14 -12 78 79 135 47 52 -44 -118 -95 3 6 119 122 138 191 314 347
131 314 146 126 210 214 83 97 34 52 68 105 83 75 70 94 35 34 70 31 55 25 126 120 -30 -80 -44 -57 -91 20 -16 -3 -103 -101 -108 -74 26 53 36 -50 113 85 222 273 314
245 336 153 127 221 157 80 79 42 30 66 74 47 50 61 46 0 93 56 27 23 43 35 130 -25 -15 -41 -43 -7 -33 -13 3 -16 -119 -199 -59 107 -115 100 105 62 156 213 236 266
462 477 219 153 164 77 47 62 46 23 26 88 27 -6 17 34 36 -4 31 -11 6 30 60 45 -66 80 88 -34 -13 -32 -19 -46 -25 -131 -131 -30 95 153 32 8 75 127 190 213 225
248 334 284 139 118 46 71 48 27 23 54 52 -18 16 11 20 27 57 40 27 -38 12 73 113 127 131 200 118 79 -65 -32 -5 -40 -53 -43 -4 106 116 14 -10 16 86 171 204 196
255 199 138 80 67 73 9 17 12 7 52 -2 5 -18 22 7 4 2 46 64 87 157 120 131 265 249 223 64 13 13 39 2 -41 -71 -126 -57 -44 -37 62 73 42 75 148 168 184
126 226 190 151 73 42 63 26 8 33 -1 3 13 5 -13 14 16 -29 -10 -25 -12 96 244 304 323 280 94 58 67 38 104 31 -35 -51 32 -95 -29 61 86 61 44 40 79 128 170

GFSSW_con_3kmhel_003.txt.gz
Helicity
14 19 7 7 11 19 23 23 26 43 66 92 109 41 50 66 84 96 75 71 69 51 75 83 92 117 115 145 162 177 204 125 124 134 81 68 130 133 137 150 99 58 61 57 90
15 14 7 1 6 11 21 27 26 44 57 83 106 116 116 69 71 51 36 39 30 52 88 95 117 127 138 135 178 187 180 121 111 110 55 57 80 87 90 106 75 95 74 80 82
11 14 13 -1 4 11 16 18 22 37 49 71 94 91 90 131 98 52 18 20 17 61 84 82 96 110 137 157 201 203 121 151 126 55 43 32 48 55 45 57 57 44 45 49 72
18 31 18 9 3 15 18 23 24 36 52 74 91 98 75 114 64 57 48 64 43 144 105 105 124 125 120 148 150 186 160 138 109 82 70 54 23 71 88 56 94 88 99 77 61
27 38 18 16 13 15 22 29 34 39 49 72 92 114 160 124 111 116 149 118 87 73 81 107 127 148 121 101 110 139 99 114 94 54 39 36 50 59 36 64 107 97 97 63 52
37 53 32 26 27 24 28 36 45 54 59 63 84 111 131 91 70 120 154 198 156 133 100 120 121 128 135 111 107 141 146 75 73 63 39 44 23 43 9 13 67 77 80 67 51
40 52 50 38 36 26 40 38 43 49 64 62 59 79 81 41 69 102 162 130 158 144 123 80 105 160 205 121 122 91 80 93 100 96 51 86 -9 4 41 16 7 64 71 54 56
27 24 64 54 52 39 41 43 58 81 69 66 78 75 34 57 98 43 83 119 105 91 93 90 99 158 173 195 177 140 111 72 66 90 103 105 -30 74 87 80 32 41 40 48 50
22 10 45 73 67 54 51 63 79 89 91 107 99 77 31 96 89 68 85 137 141 137 118 120 163 179 219 186 156 144 134 122 93 105 138 134 5 23 62 78 27 59 40 43 70
68 16 26 106 81 60 71 97 106 121 141 147 133 83 59 72 88 83 71 122 166 173 192 160 217 234 248 228 234 194 168 102 70 99 124 81 15 33 45 63 47 57 36 56 78
157 45 26 103 118 73 161 201 186 145 154 115 90 89 99 95 102 116 115 228 216 245 232 239 282 332 239 209 167 152 133 144 143 126 137 89 49 3 21 26 62 27 36 17 48
178 84 44 124 137 129 209 193 118 120 78 41 90 72 166 163 123 141 135 220 244 245 285 295 235 263 237 208 164 146 136 126 89 84 119 91 37 -15 15 2 16 21 46 51 95
184 120 56 151 139 199 142 163 103 94 86 78 112 125 128 142 151 134 167 209 216 271 273 253 253 173 236 203 196 177 163 142 113 110 63 64 -47 9 34 38 18 46 73 90 134
123 226 58 192 267 191 126 115 95 89 107 53 93 113 154 237 151 136 128 196 244 195 207 186 157 148 212 172 194 140 144 96 104 120 117 172 -68 -10 57 77 72 39 112 98 177
-53 272 81 324 320 243 123 144 109 107 143 85 125 95 92 115 142 103 141 203 221 238 284 254 169 154 136 154 113 169 101 109 107 146 146 157 159 -172 5 98 113 70 107 87 134
78 210 88 377 335 160 138 174 138 205 157 94 120 122 131 72 159 179 124 97 181 201 194 191 138 186 185 109 133 162 122 90 133 154 204 161 214 -101 45 109 122 99 107 62 126
68 47 100 467 326 203 214 235 242 217 141 117 129 136 110 135 118 148 143 155 218 247 248 186 136 234 177 172 138 142 160 282 232 312 322 181 191 116 91 31 73 99 78 66 135
71 -11 108 525 276 206 270 322 227 122 155 123 108 152 128 138 124 146 179 180 175 291 244 221 218 139 201 191 214 155 162 299 377 299 174 101 213 219 18 -37 63 88 91 27 101
54 -182 46 251 222 231 309 260 134 108 107 132 165 148 109 114 152 119 118 104 163 183 146 157 123 175 136 122 219 173 143 121 155 137 190 160 150 119 79 65 44 96 92 105 109
-18 -73 80 230 212 195 275 173 127 107 113 134 114 66 75 101 119 149 107 66 135 202 183 124 100 91 87 120 88 144 84 152 174 146 92 118 89 52 4 28 60 64 94 95 174
60 -28 151 218 298 266 222 153 91 63 88 105 67 86 85 100 128 113 14 -9 71 47 181 40 5 -10 97 99 168 159 106 153 136 152 132 -27 -16 6 49 20 64 113 61 131 197
50 48 175 266 267 238 160 81 61 63 123 110 59 51 84 113 38 90 50 27 33 115 114 89 10 36 113 98 104 70 110 155 21 -28 -78 -73 -81 7 21 16 41 122 77 100 181
78 180 275 200 344 174 71 76 96 62 66 62 45 55 50 -23 2 78 59 13 115 155 112 122 95 69 -8 61 65 -24 -9 -18 -10 -48 -87 -31 2 -14 108 -34 113 164 162 177 214
80 231 203 162 203 131 75 53 51 57 11 12 28 67 -3 -22 -15 3 7 -9 66 69 97 34 38 139 138 2 -23 7 -25 14 -16 -54 -59 -49 -131 78 155 165 28 132 151 181 222
178 179 260 132 105 52 87 43 29 41 18 5 12 -23 -22 -6 -11 4 10 31 33 76 62 45 113 152 108 83 36 -28 -39 33 12 79 -91 -87 -23 277 333 353 121 83 155 204 188
142 237 224 167 61 66 39 16 33 13 11 19 23 -16 -32 4 -1 -30 4 44 78 110 123 40 143 161 418 424 277 -31 -10 -10 107 41 13 -57 251 68 247 59 -30 48 115 149 129
272 323 247 79 125 55 26 31 28 7 2 25 -5 -25 -20 14 50 -63 -38 -23 -13 148 199 223 245 250 285 31 11 -5 9 8 89 13 6 106 172 96 -39 -51 21 97 76 92 100

GFSSW_con_3kmhel_006.txt.gz
Helicity
21 12 17 22 24 27 37 38 43 43 44 70 93 22 18 39 62 78 65 58 70 37 90 98 105 115 124 136 153 163 198 118 126 108 91 50 99 133 137 140 150 125 108 84 57
35 20 11 17 18 23 32 39 38 43 40 55 79 72 37 32 50 28 52 42 65 81 127 109 96 106 121 126 157 178 180 112 118 87 43 36 54 98 114 131 144 127 92 78 66
28 40 3 5 27 17 26 36 36 37 32 45 58 65 34 67 62 18 32 12 29 66 102 88 86 95 120 145 178 180 121 131 124 73 46 17 22 18 42 41 61 86 98 81 58
32 22 29 10 19 12 23 34 40 42 40 38 57 64 51 88 54 53 69 69 35 91 107 96 95 105 103 139 141 194 156 108 98 73 58 35 21 57 61 35 44 97 122 94 66
10 23 29 15 5 14 24 33 40 44 38 39 48 61 79 89 73 74 86 70 37 126 92 73 110 111 101 109 160 174 135 126 94 72 64 44 36 30 31 91 104 96 115 112 83
25 17 23 37 8 25 27 37 38 46 44 43 56 69 90 79 58 106 149 157 93 89 72 90 74 85 90 92 131 189 164 122 101 65 56 46 22 56 -21 20 68 99 99 114 104
99 23 14 44 31 16 26 37 29 32 42 48 57 67 63 32 77 89 186 163 153 103 94 88 104 128 146 84 127 97 114 109 98 97 85 46 14 50 50 42 53 72 93 120 108
196 99 38 12 76 18 27 32 37 61 43 43 77 64 29 38 53 54 97 127 121 113 111 79 77 99 153 153 162 130 119 115 105 111 132 84 44 24 89 90 83 68 88 105 114
82 205 91 46 73 66 34 27 79 92 105 97 81 59 15 65 70 65 89 81 122 126 99 95 110 107 138 180 156 150 173 153 152 154 141 121 79 13 37 88 87 95 77 100 115
143 78 186 90 39 100 61 62 92 127 154 125 90 59 55 41 82 120 97 135 124 134 142 132 144 172 217 242 218 180 193 139 110 107 175 137 89 52 60 60 61 56 60 71 69
148 149 137 154 50 154 204 173 172 124 137 95 72 100 71 71 131 118 106 173 169 185 150 168 180 210 142 150 174 207 186 149 158 137 109 132 93 34 34 41 42 30 5 15 33
113 151 107 183 72 218 242 183 142 95 65 39 70 55 93 140 122 127 104 148 192 171 211 206 141 152 178 182 181 163 144 137 117 129 114 69 5 20 8 11 17 32 19 44 45
128 100 126 139 51 340 211 153 132 96 75 64 83 92 133 116 109 92 123 181 174 215 195 185 213 149 174 253 230 223 184 179 121 130 125 73 -101 5 23 44 39 32 42 42 59
121 180 164 80 146 384 271 189 144 96 113 45 81 91 153 200 87 127 159 198 231 136 147 146 166 206 203 215 221 149 164 122 126 133 101 76 -47 -8 86 114 114 79 88 52 75
73 180 36 87 10 425 223 248 129 129 168 70 112 116 113 187 181 137 166 203 193 175 224 185 178 162 171 209 210 237 101 127 142 184 161 154 182 -95 -106 12 66 101 80 78 93
114 170 117 -26 80 352 187 174 183 249 165 82 96 100 108 104 159 151 119 134 177 165 188 197 189 197 213 191 161 248 172 152 168 162 170 146 206 -133 -3 -64 9 83 89 104 134
74 78 31 63 215 273 230 313 350 236 152 89 96 93 85 132 119 135 119 159 197 197 179 159 134 296 233 198 165 160 195 257 215 239 221 58 40 134 122 98 -1 59 114 80 116
94 26 -11 152 176 230 227 312 261 141 167 85 100 151 142 136 97 106 137 158 119 215 204 189 162 255 198 182 142 160 198 249 262 254 114 88 114 38 13 58 60 -22 145 72 97
17 -9 -91 10 125 388 266 328 169 151 139 145 98 122 102 99 119 114 111 136 153 217 182 194 206 169 163 139 124 161 184 115 179 150 151 132 99 24 -17 15 35 41 70 104 92
9 -4 -32 71 271 249 289 226 231 196 132 125 120 102 103 91 126 112 104 89 54 168 137 219 162 114 96 111 49 131 155 169 253 186 190 126 101 40 84 53 96 67 12 49 132
24 11 -46 100 296 325 239 229 188 144 104 92 105 121 76 87 79 102 100 90 58 63 158 237 234 163 126 166 158 124 106 173 155 199 140 86 47 -2 57 1 20 20 83 85 122
38 67 -54 126 161 198 223 228 163 134 118 100 93 86 60 57 55 86 48 34 74 151 144 162 152 174 215 93 80 137 124 171 234 210 195 184 52 94 62 17 9 63 81 65 110
28 38 112 207 183 167 196 188 185 108 80 72 60 59 62 62 88 22 91 36 146 171 112 169 111 111 126 143 159 140 127 99 39 -16 -51 11 -25 -119 -15 -7 74 171 92 114 160
48 115 154 89 175 145 128 141 122 92 50 61 47 81 63 -16 -25 37 39 47 88 105 111 166 137 188 267 218 99 122 129 108 45 38 102 90 38 -1 -70 114 159 199 254 228 121
73 124 166 110 81 110 127 63 75 83 52 34 16 13 38 -2 -17 24 -17 -28 77 95 146 159 261 243 288 231 179 152 98 118 200 176 111 172 65 134 -30 -23 174 308 403 234 152
84 93 118 62 5 96 107 45 27 28 28 9 21 11 -6 15 18 12 -5 10 77 103 201 168 231 276 581 476 423 357 166 64 118 154 201 185 128 39 9 330 446 438 357 178 82
61 134 105 45 75 92 58 35 29 32 17 15 3 0 8 12 13 10 -11 -19 -13 69 163 186 321 385 250 75 122 155 191 144 75 130 127 239 322 45 198 326 211 95 99 94 62

GFSSW_con_3kmhel_009.txt.gz
Helicity
22 6 17 9 25 15 20 36 47 55 52 55 94 134 44 43 94 80 66 56 59 64 106 108 121 121 138 146 165 176 208 145 120 100 100 50 69 96 120 127 141 140 119 114 98
17 19 2 21 15 11 17 33 37 49 58 64 102 129 45 48 81 43 69 37 60 61 110 104 108 120 153 146 155 181 188 126 122 118 86 89 69 89 136 155 151 188 153 104 76
13 17 14 21 9 17 16 31 40 42 58 67 98 113 73 43 76 15 49 20 31 39 95 104 102 113 137 150 144 161 100 142 110 86 103 72 63 38 85 67 94 143 167 155 113
115 13 13 16 31 13 2 28 40 46 56 67 85 97 91 55 113 56 84 45 7 74 111 111 114 106 104 125 138 142 89 72 74 100 74 50 42 57 83 51 57 95 137 145 175
93 129 26 14 20 10 -6 19 35 45 54 64 85 83 80 85 47 39 36 49 66 122 100 80 104 80 63 76 133 134 86 80 70 93 97 66 39 35 16 50 88 105 114 136 158
123 107 143 50 25 47 12 13 30 40 62 64 85 76 86 51 53 58 61 79 75 74 85 87 68 77 79 88 107 122 97 89 53 23 69 78 45 93 17 24 76 90 117 127 136
209 206 145 109 51 38 40 6 23 38 57 67 77 77 62 38 48 68 136 105 105 70 89 84 80 98 79 79 95 93 86 57 59 64 71 68 49 75 65 87 95 103 102 126 136
161 252 89 240 84 48 63 2 14 44 50 57 79 78 33 45 38 17 72 105 112 105 97 83 96 98 86 88 109 80 70 68 77 94 98 114 62 108 127 85 88 84 126 119 116
132 217 112 136 194 68 99 52 45 70 90 74 94 64 41 50 43 33 74 81 100 108 113 93 89 76 103 107 96 105 107 86 104 76 110 80 66 77 91 108 71 100 126 116 127
143 172 190 79 215 151 56 99 134 142 145 117 86 60 61 47 58 74 108 102 106 123 122 107 115 108 118 121 117 75 108 92 104 87 143 111 67 62 69 83 82 108 129 129 130
112 119 126 176 159 202 234 352 247 146 121 83 60 108 93 71 78 83 111 165 150 142 112 124 119 104 90 108 133 132 98 84 112 105 77 60 18 45 58 70 56 50 38 72 105
77 91 103 163 172 277 264 394 211 45 67 52 84 60 79 87 91 97 94 111 123 100 132 123 78 86 141 137 105 90 70 66 66 77 95 48 -48 4 41 52 65 43 26 36 61
29 49 108 165 210 46 222 238 258 181 87 87 79 90 95 91 95 72 103 130 117 134 118 135 127 149 74 105 112 82 86 83 75 86 102 66 -31 -31 -7 45 107 101 73 67 65
45 39 98 154 62 -26 260 269 137 138 107 61 86 76 130 181 93 118 116 133 133 72 104 74 96 121 160 151 135 77 160 110 104 125 114 115 43 32 43 35 54 85 56 69 74
40 58 82 114 125 68 283 272 191 160 122 76 123 120 110 156 122 116 180 211 164 146 172 113 95 117 84 108 162 157 163 157 151 137 151 129 193 7 66 68 71 78 61 74 79
140 86 45 17 56 27 203 290 310 320 149 98 87 112 143 164 192 171 107 154 141 133 106 111 140 137 124 106 128 198 211 200 227 193 237 176 125 -19 -19 -62 -41 7 29 60 64
69 59 50 5 17 46 103 335 438 258 162 114 101 95 80 131 146 121 119 118 129 138 116 109 89 163 177 172 167 251 246 187 220 267 306 101 38 130 52 106 45 88 56 55 125
90 70 26 -4 50 132 316 450 361 176 238 103 102 111 120 118 98 101 108 107 75 147 119 106 135 83 104 79 164 244 250 263 261 210 143 140 122 98 -50 17 -37 22 85 77 66
113 32 33 47 57 253 313 346 217 122 165 171 131 153 130 121 118 107 74 83 89 186 122 138 111 78 58 105 146 220 271 138 248 156 172 210 131 101 55 -6 -15 6 76 51 -45
30 -0 45 6 -11 325 267 265 264 169 141 132 124 91 74 81 96 63 51 55 74 152 113 163 117 106 132 200 162 214 169 261 251 224 192 140 127 76 71 -9 51 34 2 94 67
21 5 21 67 39 174 175 327 243 143 119 124 134 112 81 85 70 75 52 55 44 89 114 160 144 162 188 178 267 231 256 227 203 197 260 165 78 28 -19 42 74 4 -50 60 164
105 52 84 86 196 191 168 171 189 165 195 127 94 103 97 57 44 54 42 1 70 159 106 105 109 228 258 220 149 216 250 185 232 243 198 225 28 110 12 20 -24 -45 -17 60 209
64 134 31 213 208 304 239 220 172 127 107 95 83 74 49 20 20 18 29 17 138 169 108 156 166 97 97 201 253 365 370 265 159 117 52 96 139 116 37 24 18 -56 37 136 171
42 95 72 73 156 168 199 206 168 118 76 65 61 77 54 18 9 17 -4 49 90 81 83 137 213 275 308 303 230 372 352 231 204 253 267 363 264 175 94 -89 -90 29 39 168 214
83 77 90 82 80 111 165 154 139 105 76 47 58 31 29 13 -3 -2 -16 25 85 53 105 222 216 258 428 546 503 432 420 329 257 262 301 81 207 253 127 81 -15 -36 196 211 245
26 90 89 97 65 100 105 84 100 66 56 31 45 19 37 29 16 -3 -5 -46 19 63 192 228 257 252 376 408 319 330 375 388 379 251 308 217 175 161 42 -39 -70 99 516 414 264
59 117 98 78 72 61 48 34 41 25 27 28 29 33 19 4 -17 -12 -10 -3 21 77 178 165 232 293 395 257 207 112 89 272 335 306 183 304 279 18 26 56 389 694 476 229 165

GFSSW_con_3kmhel_012.txt.gz
Helicity
77 40 30 13 16 8 -3 -5 17 26 36 50 58 93 114 73 106 95 53 86 81 63 91 117 96 100 106 113 139 153 147 98 69 33 51 70 45 56 104 102 107 117 173 176 128
145 83 29 24 14 25 9 3 7 29 36 45 63 100 125 69 50 56 73 50 51 79 69 97 83 91 108 111 144 125 127 59 81 60 58 61 83 112 117 94 104 104 130 159 133
187 153 95 43 27 37 23 10 5 29 38 52 70 103 115 64 97 78 43 24 35 34 81 100 95 97 103 131 137 136 64 65 69 52 56 51 56 71 94 116 82 115 163 202 199
138 186 145 103 59 25 40 16 3 26 43 62 72 88 105 112 100 69 81 38 14 32 77 100 97 110 113 116 121 122 58 79 69 55 56 27 51 63 63 40 132 146 166 180 175
99 113 106 102 100 48 41 19 13 21 44 68 72 71 99 105 123 53 75 94 64 56 54 74 90 95 92 107 84 71 65 60 54 63 44 47 -8 15 81 55 88 91 96 146 147
97 161 237 167 92 95 34 40 29 19 48 62 71 65 82 66 81 69 25 58 74 39 44 66 79 82 89 70 71 96 80 65 54 32 33 27 17 37 -42 3 55 87 71 90 120
73 104 195 198 193 135 77 60 32 21 51 68 70 79 76 68 53 88 100 67 58 27 52 94 74 69 79 67 77 87 64 62 36 31 24 23 6 25 -7 -20 -33 43 88 98 105
13 98 133 206 238 174 162 47 43 35 52 66 81 75 71 75 32 70 97 95 88 81 54 59 79 97 87 91 48 54 59 63 45 60 46 30 -23 31 63 37 29 38 91 99 99
25 56 101 171 271 187 262 37 83 68 78 75 83 76 85 70 52 51 50 67 93 100 104 96 89 111 69 56 54 33 59 28 46 42 63 4 -3 9 63 95 70 64 104 144 109
38 49 116 155 185 106 331 39 102 183 149 138 103 82 59 88 78 81 86 79 101 87 106 89 86 73 50 62 80 53 26 32 35 34 52 41 14 25 33 50 55 54 60 79 119
35 30 92 133 153 19 181 149 293 249 177 118 58 133 63 112 50 99 101 115 101 51 52 57 66 51 25 21 37 77 56 40 42 59 48 17 5 24 29 33 46 35 36 50 72
27 32 47 82 156 128 58 194 314 76 87 97 69 84 100 65 93 74 73 105 97 48 76 66 45 15 43 33 29 25 29 35 41 38 59 40 20 26 27 25 37 47 50 42 46
-1 35 41 66 142 0 2 270 198 287 114 76 65 111 93 62 73 40 28 71 42 55 22 45 59 39 7 22 32 22 33 47 49 75 59 19 38 -44 -3 48 26 23 42 46 55
25 12 57 67 44 97 -188 167 203 264 162 61 84 71 97 101 64 62 47 84 88 32 34 14 44 83 92 80 50 56 81 35 35 57 41 63 38 17 2 29 21 50 67 52 66
-25 20 48 49 38 84 61 114 240 274 166 81 158 106 95 93 76 126 102 113 58 70 82 72 50 44 42 38 29 77 86 76 70 59 65 34 81 35 41 0 36 80 50 98 93
-45 -13 23 -4 -19 78 71 194 316 183 117 118 152 140 151 150 156 135 103 139 81 79 80 105 134 90 77 66 55 160 103 74 56 103 130 50 4 12 52 76 21 33 87 154 114
-30 131 144 36 29 42 58 321 344 209 87 81 111 106 121 155 158 128 104 114 97 102 66 75 39 101 112 95 124 126 163 172 104 146 194 92 22 149 97 106 61 53 80 89 106
155 68 22 5 26 22 223 231 171 158 205 104 98 60 108 102 116 77 79 84 66 105 106 89 80 43 72 48 169 62 113 254 169 145 137 151 169 192 41 50 15 45 29 5 93
58 19 -25 12 39 69 195 222 163 273 144 106 126 126 143 85 115 104 67 75 52 74 82 66 87 89 80 99 77 161 194 72 127 123 182 152 141 113 89 112 40 29 26 24 9
-11 18 5 40 58 -10 186 166 244 135 92 62 117 95 67 69 89 72 49 53 45 60 35 92 82 90 132 134 108 117 195 221 268 271 122 161 134 178 55 56 -2 5 41 48 50
42 2 0 17 146 107 150 172 169 70 127 161 117 94 100 85 75 39 41 52 15 28 50 102 112 99 124 109 85 177 276 335 302 351 345 253 158 91 110 16 -1 63 52 49 32
32 7 4 57 159 139 254 290 159 82 108 85 71 49 -21 -17 14 25 25 34 34 83 91 87 28 65 87 90 103 124 163 251 283 292 465 323 261 114 90 51 38 14 15 -17 12
41 96 68 106 75 160 123 281 181 134 123 79 72 65 31 23 26 7 20 35 61 83 89 100 54 -28 11 52 48 131 227 335 390 261 346 243 281 92 70 69 12 -13 31 2 29
61 110 122 122 101 159 99 165 145 124 83 86 51 53 42 19 38 2 1 20 17 41 52 107 96 114 114 83 42 163 275 342 389 293 242 332 366 108 39 31 30 32 -28 6 -8
101 138 93 147 131 84 103 104 85 79 62 50 39 31 24 25 10 20 1 30 26 14 -13 91 110 142 218 164 130 175 197 221 400 469 195 181 83 143 35 -20 40 40 31 47 3
44 161 125 98 55 74 85 85 71 53 33 37 28 -8 10 33 19 22 -1 -17 -12 3 133 75 100 54 225 223 256 339 334 213 204 333 185 125 142 209 24 -100 -43 13 61 84 76
106 100 75 61 49 58 58 53 41 37 56 37 14 20 34 46 32 17 -8 -12 5 5 75 62 56 93 221 115 162 86 96 91 114 189 200 190 221 8 1 40 51 83 284 198 153

GFSSW_con_3kmhel_015.txt.gz
Helicity
169 172 129 108 63 19 4 8 -3 6 20 45 54 63 94 92 74 81 54 83 78 75 105 104 98 87 101 112 147 113 138 108 40 30 39 43 101 43 58 81 90 61 53 115 129
86 160 163 142 111 69 14 8 -1 5 17 37 56 68 112 43 31 44 60 98 94 57 92 90 94 88 89 89 106 116 124 62 41 55 43 71 54 44 81 42 57 86 77 129 117
96 112 140 159 136 114 64 25 9 11 17 30 49 68 92 27 20 53 44 60 35 42 60 71 139 99 103 113 103 81 88 47 70 123 167 118 85 80 98 95 56 56 54 82 159
89 95 140 121 168 159 115 30 15 18 15 35 55 69 84 36 99 107 107 57 34 36 53 70 79 97 116 127 93 83 87 66 108 131 58 62 72 72 38 49 79 54 43 117 112
57 90 93 157 143 147 133 111 25 17 25 35 59 74 89 90 107 45 41 63 38 47 32 52 71 92 115 115 122 107 84 86 84 92 51 47 47 59 84 47 83 145 144 157 97
41 29 84 107 156 149 158 136 21 35 26 39 61 73 84 79 90 99 44 57 70 30 38 51 131 136 169 180 131 156 112 99 66 50 30 38 25 47 34 17 14 19 107 82 91
33 43 39 84 137 219 234 175 77 41 31 40 54 63 86 64 75 77 32 35 88 36 51 93 98 115 86 107 102 108 57 58 35 24 20 26 27 28 -1 13 -19 -14 -26 38 82
18 26 40 75 136 186 234 208 229 36 47 53 58 70 106 121 69 60 52 43 44 108 79 78 94 112 135 139 71 78 55 74 36 76 41 49 7 61 60 45 49 14 16 -23 72
27 47 51 58 128 172 198 223 152 55 51 69 86 82 80 60 63 41 52 58 80 62 61 60 75 88 69 68 83 51 97 44 80 34 67 13 17 64 72 59 56 71 66 56 18
44 22 31 41 124 158 98 218 201 144 98 134 170 92 55 82 91 83 65 77 87 119 158 141 129 78 49 67 102 81 43 83 72 49 21 55 25 37 52 35 46 54 60 66 70
28 5 4 30 61 117 -58 140 93 198 156 247 84 177 57 118 102 103 67 60 82 86 151 126 138 55 35 37 66 116 132 88 71 60 39 51 35 42 40 36 37 49 55 54 56
1 -1 3 33 63 74 21 32 389 346 244 117 129 108 80 80 119 119 68 110 88 91 107 118 46 31 52 65 44 47 47 52 39 33 57 46 50 47 30 33 38 41 46 49 54
-3 21 20 42 56 33 64 -223 149 356 142 72 98 68 80 84 87 59 26 84 40 57 44 54 49 61 23 29 32 21 31 39 49 91 63 26 27 -29 55 29 27 20 6 7 3
-24 -23 -2 21 33 28 27 -217 9 246 172 141 104 105 103 90 115 43 27 87 114 41 37 32 19 17 20 21 22 37 45 49 66 63 35 81 51 102 127 39 19 17 -9 1 26
-10 -32 -44 -3 5 48 52 7 73 110 161 65 148 93 83 105 68 71 48 111 60 70 75 55 36 11 12 3 28 50 123 91 85 69 93 84 127 50 121 57 -18 -87 -71 49 77
-25 -28 9 -11 -20 69 60 54 183 156 92 115 167 121 112 111 110 93 127 145 133 85 44 78 63 55 20 48 43 148 96 74 74 135 133 82 85 91 88 128 185 22 -15 46 100
7 85 20 3 45 26 5 22 153 241 54 87 118 118 105 132 96 71 92 116 95 88 45 23 36 58 67 81 86 102 145 113 55 111 162 165 139 166 59 123 55 88 33 77 97
19 2 6 36 20 24 113 24 424 106 182 53 99 95 141 114 71 80 75 65 40 66 64 25 39 27 48 53 118 58 111 145 136 159 149 224 292 196 73 86 148 85 29 58 167
-46 9 13 19 37 91 115 118 121 101 95 76 47 84 96 53 68 71 43 39 36 52 65 67 82 75 80 88 61 154 112 33 165 123 171 230 150 106 80 27 14 36 22 44 75
71 50 -2 25 54 79 119 68 108 124 46 52 101 65 71 48 68 49 43 29 45 1 22 92 80 70 107 105 73 91 162 174 154 227 176 176 124 228 55 71 36 48 28 15 89
21 26 19 17 63 141 72 84 119 75 145 135 59 39 31 24 47 33 37 75 -5 20 12 49 70 87 109 55 70 119 86 164 167 259 284 231 302 82 74 80 129 121 44 96 83
11 16 7 31 91 159 104 127 90 122 309 153 66 74 37 24 36 29 44 81 28 32 28 27 55 -6 -10 38 46 25 86 86 206 183 276 263 354 112 48 60 54 30 50 69 49
69 81 54 136 118 95 109 158 104 91 105 47 43 46 26 4 60 36 35 48 28 25 25 83 -25 -47 -113 11 14 66 49 96 179 171 309 250 418 181 109 74 67 34 29 34 -23
88 86 70 171 127 48 166 59 47 57 53 41 46 25 48 37 86 24 41 34 21 15 141 47 7 -35 -42 -49 32 117 168 123 90 248 234 475 266 239 70 22 1 11 23 17 12
96 62 126 86 51 73 92 94 50 49 20 24 31 39 43 38 23 22 27 32 28 24 49 32 10 15 79 97 44 66 104 150 185 206 215 199 87 93 -63 -56 -28 -6 45 9 -36
80 81 50 23 43 22 77 66 57 43 50 21 4 -2 24 26 51 26 15 3 -4 18 -6 39 41 34 163 110 41 152 114 57 70 100 199 226 220 140 0 -8 -32 -47 3 -21 -26
62 92 58 12 44 37 32 43 42 16 35 39 26 12 18 51 58 37 16 23 32 32 -10 48 44 34 57 37 85 24 60 71 84 91 126 185 166 45 26 -8 -66 -5 31 6 -2

GFSSW_con_3kmhel_018.txt.gz
Helicity
81 57 74 122 149 125 118 43 18 15 9 24 45 46 52 71 72 45 30 45 27 72 82 89 94 98 106 125 110 129 163 110 61 40 34 61 81 70 152 92 75 73 83 63 120
71 84 81 83 132 163 136 108 26 21 17 22 38 49 57 96 37 22 27 16 92 72 77 72 76 85 112 100 166 203 166 123 77 63 69 94 71 101 141 57 81 113 81 73 26
57 78 95 97 101 120 138 126 103 27 18 15 33 47 64 93 70 44 26 20 47 55 38 93 107 85 123 124 131 136 121 103 80 108 95 127 216 141 131 127 104 73 80 107 61
70 55 70 102 104 113 140 131 151 32 27 8 30 53 72 91 93 61 78 43 24 25 66 75 140 147 154 147 132 92 108 82 86 169 141 86 119 193 152 109 83 80 85 56 153
56 53 65 70 108 123 130 188 154 97 16 22 29 55 75 89 77 66 35 81 22 33 20 61 88 106 115 133 110 104 104 86 123 134 159 107 105 96 143 181 72 72 147 124 114
30 43 51 51 89 112 137 182 182 175 40 40 40 62 92 81 64 39 20 13 19 14 12 6 102 119 170 166 133 114 114 100 137 147 107 82 60 77 89 15 39 75 113 200 183
18 22 29 34 38 98 138 157 234 161 53 60 41 54 89 64 81 54 65 90 63 34 33 36 108 169 232 210 201 214 128 87 88 72 101 69 48 55 32 41 42 43 50 34 131
24 32 34 38 31 63 114 173 207 234 115 29 25 67 101 86 92 79 48 41 58 61 23 131 129 148 160 177 136 94 74 87 38 19 50 69 36 53 70 53 66 48 54 63 53
33 28 20 24 34 35 81 154 184 273 112 62 79 120 80 82 89 48 59 42 22 44 68 81 150 144 176 144 102 78 113 77 75 34 56 73 42 38 80 78 81 63 76 82 69
23 11 9 17 12 25 43 119 151 168 78 76 160 113 77 68 84 43 66 83 74 55 62 82 118 151 123 127 121 114 105 122 134 125 68 69 53 66 75 74 70 84 85 87 91
4 6 2 0 1 45 31 10 121 89 165 249 105 195 55 177 94 102 79 100 108 74 101 65 152 123 40 37 64 198 201 199 167 191 113 67 53 50 48 59 47 89 87 71 73
-3 2 2 -5 -9 30 22 28 144 153 262 280 215 183 98 27 101 98 70 157 140 110 154 158 103 52 98 111 114 105 97 75 57 51 56 42 53 47 69 84 78 75 79 76 72
-13 -10 -15 -7 0 19 19 35 -89 188 223 156 242 122 68 100 76 76 82 127 101 74 109 75 84 40 66 96 82 87 71 66 66 62 35 32 12 12 68 10 26 35 20 22 53
-22 -2 -35 -37 -19 -10 62 -102 -268 195 298 185 214 105 81 160 92 59 60 151 106 61 60 63 66 73 67 51 57 72 77 65 53 60 44 107 28 63 65 71 30 43 60 40 53
3 23 98 88 -2 9 9 -90 -220 240 290 98 200 79 81 144 153 69 39 117 69 93 127 68 55 35 42 55 40 58 98 120 99 79 71 51 87 15 -17 56 106 95 119 84 51
8 14 31 147 96 56 50 19 -13 381 309 201 198 113 161 155 154 127 129 140 155 100 53 54 94 62 48 57 72 124 101 64 60 84 69 0 41 74 127 52 98 236 278 232 150
12 -2 10 14 19 43 17 22 133 442 63 149 185 118 119 145 148 126 121 115 106 114 68 49 23 37 73 93 92 105 113 61 12 65 81 84 75 269 207 93 86 132 176 142 128
46 28 5 3 22 37 34 32 299 73 150 114 118 130 132 133 85 84 67 64 72 89 28 37 24 51 43 87 77 53 114 80 103 97 124 198 252 278 126 135 176 208 149 164 147
36 30 33 53 47 63 101 179 318 123 64 104 116 225 143 98 74 78 49 49 27 43 64 35 47 56 37 28 52 108 68 122 181 148 142 214 269 171 53 38 59 81 99 142 125
26 32 25 17 67 72 79 123 141 125 36 18 121 123 98 85 65 50 40 7 26 32 33 100 62 61 88 88 66 76 100 179 206 101 152 194 173 189 87 95 117 186 128 117 129
19 12 55 22 102 114 -32 36 128 50 69 84 8 74 48 92 63 45 23 38 -1 38 15 52 79 85 141 50 95 140 94 176 255 264 212 180 314 378 210 91 111 120 91 140 204
20 30 86 133 126 48 7 90 112 163 134 108 69 43 49 39 39 35 63 87 15 39 30 43 73 54 66 42 22 112 131 113 216 161 247 306 169 194 43 114 182 160 112 82 83
96 110 85 151 98 55 76 118 70 170 156 98 105 87 5 6 91 61 66 42 62 34 45 80 48 45 -28 -13 39 83 46 78 129 158 320 294 486 452 237 122 125 34 92 161 94
77 112 166 136 106 45 89 59 64 163 158 102 68 34 24 24 68 55 60 31 35 48 96 75 57 -37 -60 -43 40 41 92 115 143 326 341 546 381 299 184 117 114 182 86 10 57
68 92 48 74 55 56 78 16 32 88 47 60 33 29 18 32 42 37 37 47 32 43 60 88 -2 2 2 18 17 31 24 39 155 215 317 221 166 186 141 38 26 -11 12 85 135
-19 -6 26 36 -4 51 40 23 11 34 37 15 1 20 49 29 61 16 21 9 25 43 51 40 9 12 72 125 64 77 88 121 126 139 167 185 242 187 135 149 48 12 -47 -89 -51
49 22 -11 9 -26 9 25 9 18 10 28 42 20 13 23 71 79 61 60 55 57 40 10 32 10 20 28 45 36 14 43 62 105 120 158 222 157 122 118 152 174 81 0 -26 -19

GFSSW_con_3kmhel_021.txt.gz
Helicity
74 88 97 55 50 103 134 129 133 58 22 22 21 33 50 62 93 73 45 55 34 42 135 125 110 103 143 165 154 146 189 140 114 70 44 56 26 19 79 137 146 144 60 63 60
71 85 98 94 87 91 99 150 156 136 20 24 18 31 49 71 89 63 44 26 17 11 77 99 89 98 185 127 204 220 185 129 125 52 41 69 65 68 117 158 154 125 91 67 73
39 83 74 102 118 118 101 117 166 143 79 25 26 26 53 84 61 52 -11 -15 -20 71 83 80 129 114 144 153 176 180 153 133 77 45 72 41 112 86 229 232 138 103 122 63 84
69 34 66 86 74 113 126 127 165 195 167 24 33 44 68 87 67 79 74 -31 -10 62 78 74 123 158 158 159 148 155 137 91 56 49 86 100 109 146 142 237 305 177 124 107 115
42 31 33 59 70 72 96 102 146 213 153 46 57 57 93 97 77 62 45 27 39 67 61 60 142 164 151 122 135 139 122 113 112 126 95 95 102 112 122 185 177 96 107 128 157
61 51 29 31 50 44 82 105 142 197 194 50 79 61 113 96 65 50 54 65 54 52 30 40 123 94 123 116 157 147 119 154 137 117 113 105 57 97 110 84 87 103 22 65 158
56 36 29 41 46 26 29 70 110 215 193 200 42 72 106 64 79 48 50 38 14 39 36 -14 90 150 151 170 173 182 191 169 101 70 76 106 51 98 75 85 87 31 33 -10 62
32 22 13 16 25 21 24 42 113 154 169 249 49 98 102 61 119 66 67 65 67 43 23 87 120 118 139 179 167 159 113 93 61 79 96 125 59 51 44 123 137 106 61 17 -34
21 23 11 12 15 16 20 37 100 166 172 196 115 129 102 109 76 71 73 42 43 82 125 105 226 123 134 142 153 137 105 70 136 71 101 109 64 30 105 146 111 98 89 80 50
10 4 7 4 1 6 2 41 118 148 120 49 130 124 85 111 104 77 81 68 81 83 108 128 137 202 149 157 134 90 121 142 137 145 127 117 93 91 63 71 46 69 75 78 80
-4 -7 5 3 5 2 0 3 82 117 92 124 128 175 66 46 116 57 66 72 114 109 125 103 164 136 83 51 79 138 158 126 113 181 136 79 72 61 51 13 -4 1 37 10 23
-9 -4 -2 -21 -9 -13 -28 18 88 91 161 109 97 223 155 106 116 76 108 147 133 132 146 152 105 70 57 47 76 82 76 60 70 107 111 67 28 23 50 81 82 35 55 41 35
-25 -16 3 51 -28 4 -25 36 -13 -36 113 85 114 85 124 83 115 60 129 142 124 138 129 92 85 25 79 100 69 74 77 63 58 56 52 35 14 43 55 36 43 41 53 72 61
-27 -10 9 64 80 3 12 -32 -82 6 123 225 187 180 112 124 123 86 114 146 147 123 98 107 107 81 77 72 71 65 92 75 97 71 76 57 33 68 43 21 48 34 23 20 21
-10 2 20 7 206 4 -7 -77 -73 85 187 194 252 124 134 180 118 68 108 155 122 115 139 67 71 81 80 71 77 58 75 69 72 63 32 74 89 19 -36 41 42 82 94 58 40
-13 0 2 2 167 78 7 -10 14 109 228 207 224 167 203 117 172 104 150 152 143 127 78 109 90 70 46 68 102 81 66 61 54 49 87 38 120 35 -30 -3 54 56 86 108 111
21 38 20 19 38 43 18 26 135 124 272 224 211 148 161 188 163 186 159 163 123 130 105 46 40 57 80 89 110 108 80 51 69 100 69 109 73 179 57 38 40 37 45 86 109
59 30 30 35 33 19 21 28 170 213 190 174 198 186 194 154 154 132 124 104 123 116 104 65 45 72 51 83 32 81 74 82 50 34 24 116 42 21 -12 9 41 67 88 96 93
19 46 112 93 52 56 60 146 298 162 151 153 160 143 104 120 95 114 83 60 59 75 56 44 51 57 39 82 112 82 53 104 110 84 105 106 172 118 34 45 170 138 176 140 129
44 79 117 88 43 59 -35 255 207 119 69 127 208 105 95 94 96 79 58 20 30 16 37 68 38 41 68 75 38 59 68 107 123 49 66 90 67 91 11 64 134 122 116 125 142
53 137 133 84 70 66 226 233 86 6 94 131 57 74 58 98 70 54 12 39 29 16 8 71 53 49 65 18 66 88 102 133 147 160 94 72 89 201 163 106 48 140 172 202 180
142 171 120 90 12 53 215 178 103 143 95 48 36 121 67 50 57 50 40 55 -44 41 31 51 29 28 -4 11 51 118 109 163 129 84 194 224 319 96 24 98 134 112 114 110 92
226 130 113 72 89 123 234 178 127 111 83 62 67 68 33 37 65 75 75 90 0 23 48 59 34 37 51 54 56 93 23 45 88 158 238 221 290 180 171 117 53 130 132 111 162
-5 -11 61 38 12 43 43 94 128 109 93 86 45 -25 -35 51 58 21 78 66 80 68 27 78 36 12 -18 25 73 -18 -3 82 189 244 257 431 411 406 282 150 115 122 145 134 66
-11 26 -9 54 42 -6 -30 11 65 61 67 78 79 46 19 73 76 56 51 62 65 75 90 71 33 26 -18 -45 -19 43 65 99 168 175 255 309 215 259 152 108 138 208 177 75 82
26 12 -19 -1 -35 -6 -23 -67 3 6 8 39 21 60 48 62 46 33 39 23 18 45 68 71 23 18 16 41 4 -5 62 90 114 158 229 257 321 202 111 62 61 187 223 117 84
23 12 -9 -15 -11 16 -7 -20 -13 10 16 25 21 31 44 61 67 63 55 48 44 50 49 44 25 0 8 30 -1 5 24 56 94 129 167 190 209 129 133 164 97 81 76 59 56

GFSSW_con_3kmhel_024.txt.gz
Helicity
38 81 95 85 108 87 111 156 172 157 175 102 25 25 32 44 68 85 54 52 51 76 149 170 131 134 166 173 164 147 178 129 107 103 93 73 74 70 71 107 139 182 133 100 104
55 26 35 58 79 94 104 136 166 179 194 142 20 24 32 47 68 56 43 25 23 16 127 166 129 159 204 159 181 181 163 118 90 87 70 67 56 48 137 174 145 190 168 199 139
60 54 34 57 53 60 111 108 124 193 183 231 121 31 45 62 66 46 18 -6 18 14 60 117 200 185 191 182 193 170 135 135 94 86 60 107 128 62 144 173 183 191 105 142 170
36 63 41 52 43 74 15 93 96 158 198 196 188 39 53 83 79 71 82 -29 7 114 111 138 175 242 189 193 177 161 132 112 80 63 62 57 86 79 130 156 170 211 257 175 144
25 34 40 47 49 31 35 3 78 110 170 165 103 77 119 92 58 41 82 2 41 105 99 128 169 186 195 148 149 148 156 128 84 81 97 93 58 71 52 135 154 174 203 230 261
31 40 37 21 42 38 24 22 52 108 153 174 211 76 156 81 64 58 39 52 47 89 90 126 123 108 143 140 158 182 106 115 93 92 99 74 52 86 64 12 100 104 110 134 215
31 29 16 20 21 21 20 19 29 90 169 189 157 102 109 45 147 71 62 73 53 58 78 52 93 163 131 172 130 163 161 175 126 81 88 100 16 63 44 16 30 55 49 32 60
17 20 21 9 16 14 9 15 30 86 178 191 125 105 104 41 114 115 85 65 27 45 77 58 77 129 119 172 169 150 166 138 89 81 75 123 41 71 55 71 75 47 33 60 -22
-6 -2 10 5 -0 7 7 8 40 105 158 152 136 118 83 90 76 94 81 77 70 73 98 96 92 116 149 177 205 206 149 114 133 67 98 128 75 46 94 111 105 105 95 102 67
-15 -20 -17 -5 7 2 -6 25 74 99 106 96 53 141 122 106 74 77 64 99 90 97 139 106 131 143 176 196 153 111 133 127 123 161 179 129 98 75 98 102 111 101 56 63 65
-25 -23 -21 -3 9 -14 -15 -8 25 103 81 185 104 121 61 76 103 72 86 85 78 116 140 162 84 226 192 49 157 173 144 144 102 91 74 90 76 68 38 67 38 2 -5 -1 -4
-22 -16 -18 -19 9 -19 33 -18 18 84 13 100 77 183 43 111 110 52 99 93 87 135 148 153 89 97 75 63 84 111 100 103 94 62 52 51 29 7 41 82 114 28 -2 4 8
11 3 -2 4 48 37 -17 15 15 39 135 142 77 129 95 74 111 98 85 98 91 125 121 77 94 106 110 118 104 93 85 106 100 37 -8 8 17 58 90 68 51 66 39 32 26
-5 -6 -6 -2 78 47 -15 -18 55 68 175 106 112 161 170 63 159 151 114 129 137 117 148 114 108 82 90 92 103 113 62 30 58 60 65 60 29 41 36 50 30 29 53 67 64
4 -5 -10 -22 83 96 -6 -12 3 122 271 108 155 196 167 144 113 96 191 134 137 126 112 95 97 85 80 84 103 73 73 41 32 31 21 19 67 5 21 61 35 13 25 30 40
58 37 27 -22 27 149 19 -11 93 53 287 136 160 151 142 131 196 179 187 167 128 122 154 110 105 117 82 116 111 83 84 73 43 35 66 15 89 18 4 29 6 30 88 75 65
25 -0 -13 3 47 31 20 100 -25 193 271 213 170 119 153 159 163 127 162 149 112 128 108 112 115 101 107 135 131 105 88 82 77 85 53 42 45 43 30 -43 27 43 57 55 51
18 9 42 63 54 45 104 137 62 231 199 186 174 180 184 152 153 114 130 138 109 80 114 91 90 65 64 68 42 77 56 48 41 33 37 55 26 21 16 28 80 106 68 98 125
75 88 108 121 46 46 61 147 262 252 173 217 187 161 172 159 112 118 108 64 50 62 48 85 96 61 49 76 72 38 72 60 80 57 60 65 96 15 6 58 181 116 103 151 161
110 108 117 97 89 110 173 283 163 207 104 171 179 110 125 129 127 84 61 31 25 40 69 56 64 62 61 58 74 61 66 84 102 58 43 42 44 42 2 68 74 57 61 85 112
47 96 92 59 22 92 237 215 138 136 173 105 54 82 70 99 60 65 26 63 31 25 48 72 48 57 49 30 65 88 80 87 80 77 47 36 18 80 45 -1 -11 43 33 1 -20
48 49 89 51 88 160 200 204 168 149 106 59 33 74 76 69 48 48 33 47 15 46 46 71 34 48 34 34 46 79 61 121 64 33 58 37 130 -4 41 38 33 -40 30 40 64
104 122 109 59 62 104 129 145 145 54 41 12 34 53 79 52 41 62 52 64 -2 37 83 60 53 57 58 36 70 43 71 90 9 43 29 35 70 104 69 5 12 25 33 64 134
23 -0 102 52 50 57 74 62 6 74 34 -2 14 40 20 30 60 54 75 85 55 43 34 64 22 10 -3 3 53 33 1 -13 51 71 132 279 282 371 213 123 20 69 65 80 137
11 12 12 23 19 28 52 46 57 36 39 20 -28 -52 5 35 68 49 58 84 109 74 62 48 7 3 -3 -12 -10 -23 -5 6 137 230 213 290 201 294 184 131 109 173 40 71 117
16 -9 -2 29 58 2 -20 -24 -3 29 19 27 5 -9 17 43 34 28 51 69 43 73 85 82 22 8 13 8 -10 34 41 73 141 107 190 251 224 232 170 160 152 151 77 64 50
-2 -6 16 2 15 14 -5 -26 -26 -3 16 34 -0 53 88 48 63 59 32 19 27 68 123 76 29 16 17 39 -3 21 40 92 70 108 158 135 204 154 155 99 185 118 82 51 50

GFSSW_con_3kmhel_027.txt.gz
Helicity
74 61 63 79 50 17 73 83 202 175 180 190 110 100 33 40 58 87 70 49 38 86 136 133 156 150 206 230 206 219 236 199 168 87 52 48 104 114 102 128 140 116 97 90 212
118 68 46 54 54 38 66 32 138 173 181 137 148 152 34 41 68 53 48 27 58 68 157 162 152 182 213 208 236 247 230 183 126 68 39 87 72 91 122 168 158 173 126 152 218
66 47 20 44 48 54 46 66 50 72 157 167 170 202 90 65 62 24 27 20 29 52 98 145 176 197 219 237 252 229 188 188 103 74 44 67 99 45 99 150 136 158 142 189 219
47 24 34 31 49 75 75 44 20 66 122 163 162 141 196 126 64 65 51 -1 -9 39 118 161 212 236 223 242 241 191 163 125 56 50 31 26 56 58 65 95 144 184 185 176 165
11 26 27 38 34 41 47 28 10 9 94 138 178 108 100 141 80 3 118 35 12 66 78 135 196 246 207 180 231 182 204 120 72 63 41 31 42 46 31 63 147 152 203 207 195
5 11 20 12 18 42 26 11 13 14 70 116 129 162 32 98 46 42 64 49 52 133 155 158 150 172 169 159 161 131 100 88 99 69 64 35 38 69 70 28 90 86 149 186 193
-13 -7 10 -8 -2 21 20 14 9 23 63 111 116 122 41 67 60 95 38 18 75 104 144 127 114 168 153 170 124 154 126 136 95 75 88 46 12 62 69 34 18 19 54 116 128
-4 -13 -15 0 -4 6 -5 4 15 33 67 115 169 60 47 6 55 140 72 83 71 91 89 77 112 142 160 167 187 172 171 138 129 96 81 82 4 94 46 82 75 37 5 25 68
-2 -1 -19 -8 -7 -4 -4 12 43 32 85 131 127 102 53 89 65 116 115 69 60 73 88 87 103 126 158 192 213 220 154 137 137 87 105 124 33 19 52 85 86 64 46 7 44
-14 9 -16 -9 -19 12 -19 32 59 22 56 102 92 115 73 113 112 90 145 72 95 68 112 119 123 156 181 214 191 182 126 125 125 140 119 137 79 56 76 82 87 95 59 36 42
5 -6 -7 -9 -8 26 21 -8 0 6 110 148 164 128 85 76 94 107 121 133 122 118 121 102 129 122 114 103 133 141 155 139 122 108 84 54 57 55 34 52 35 28 19 29 16
-1 -3 -1 -1 4 39 54 -27 -15 46 162 30 246 164 119 81 103 83 81 109 115 122 109 150 105 131 143 124 157 192 159 102 102 77 89 59 23 32 30 48 64 68 40 24 57
-14 -19 -13 -2 40 71 -44 -27 18 67 158 30 191 205 104 71 120 102 96 120 99 116 122 104 31 27 72 121 101 109 86 99 104 122 34 47 13 69 49 49 75 70 70 27 8
67 77 -16 -1 -3 -3 -64 -4 31 140 207 215 155 119 104 92 143 105 121 105 99 76 108 79 52 42 53 94 114 92 60 41 74 86 77 96 1 47 63 73 31 34 42 56 77
29 -19 35 2 67 7 10 33 70 167 233 84 139 202 124 176 98 143 122 124 120 146 132 113 50 44 77 102 87 76 69 59 37 39 39 68 75 15 75 102 79 115 115 78 71
55 13 31 16 1 50 28 74 110 149 179 211 118 188 110 111 211 198 161 141 99 150 161 120 104 101 97 124 92 80 109 90 49 34 76 36 79 33 21 50 80 110 144 153 164
36 27 58 66 18 56 54 121 28 259 201 162 134 151 131 133 176 180 167 160 106 112 105 136 133 120 109 146 154 113 109 111 118 136 64 27 50 -5 -16 40 27 65 95 102 93
54 75 82 66 38 90 98 -87 365 387 157 158 193 191 199 175 152 133 125 119 124 90 127 92 91 77 82 69 60 105 79 80 87 84 75 47 31 -3 3 65 31 39 54 98 118
62 158 141 81 120 152 101 174 324 196 351 235 182 171 185 133 117 88 140 75 49 64 75 104 91 97 75 84 75 70 84 73 42 13 37 49 32 5 52 104 121 89 97 80 66
84 101 112 104 107 71 89 154 168 170 134 156 127 107 97 91 102 57 70 46 49 48 56 37 65 68 82 86 109 49 46 78 102 44 42 41 25 8 35 68 55 25 58 -26 -72
88 121 156 139 115 63 94 102 111 153 140 73 46 53 64 84 53 65 49 46 32 39 49 55 45 51 56 33 47 92 89 87 70 60 27 24 -5 0 24 30 45 23 -61 -26 -7
75 3 53 33 23 72 86 62 48 92 52 27 24 49 86 70 59 73 22 48 21 32 30 53 23 35 27 48 26 55 57 79 63 33 55 31 44 -3 -63 24 -9 26 43 42 37
46 75 49 12 -1 36 82 79 76 38 23 0 21 36 64 71 40 46 27 22 11 47 42 38 47 45 59 39 64 39 57 88 93 64 54 56 3 22 48 14 62 38 43 88 41
14 -7 27 1 29 38 18 17 13 31 -22 1 32 40 77 53 44 28 45 60 32 24 34 71 17 15 19 14 33 45 55 89 117 67 60 147 163 148 125 109 47 47 104 63 32
-14 3 5 4 9 43 44 30 -1 1 11 -22 -7 14 31 36 55 38 60 80 80 39 54 38 4 8 8 4 14 -5 -8 39 50 66 68 140 191 275 177 131 99 90 76 33 1
7 -12 -19 0 29 30 21 10 11 27 12 5 -37 -35 23 18 19 26 46 63 39 61 59 68 21 16 10 21 11 7 0 16 66 115 205 265 205 226 137 115 101 106 53 32 11
13 -8 2 -7 -30 17 16 5 -7 19 26 31 5 26 57 39 40 22 34 43 22 63 95 65 33 7 25 54 35 22 70 76 87 89 135 142 211 143 82 58 85 90 65 68 21

GFSSW_con_3kmhel_030.txt.gz
Helicity
138 127 102 65 30 38 46 42 21 78 174 130 159 71 157 61 49 81 67 91 43 46 212 133 146 179 220 227 242 247 220 178 148 108 63 46 99 124 93 101 126 80 103 106 96
92 46 20 19 8 34 44 65 52 32 127 72 130 108 83 258 74 55 72 31 22 69 141 155 157 194 235 218 242 257 204 161 155 119 53 82 98 130 146 152 127 133 147 135 147
23 16 4 14 13 52 75 78 54 28 26 138 42 106 66 143 97 -20 30 25 34 80 115 156 145 189 208 218 245 241 183 218 161 125 93 85 89 89 112 128 80 137 177 181 158
12 4 4 14 27 48 54 55 51 33 8 56 112 82 168 43 139 51 38 -2 33 69 118 170 204 198 206 218 227 187 186 174 140 132 86 42 65 97 81 64 78 108 163 184 158
14 10 1 18 25 31 39 43 33 18 30 36 101 120 124 78 33 33 126 79 44 96 109 154 213 244 196 181 215 154 146 136 108 134 80 43 33 47 64 46 84 96 159 183 160
8 11 4 16 22 24 22 24 26 25 24 49 92 112 127 92 32 -6 26 87 86 96 117 151 164 197 168 138 180 92 125 116 112 63 51 15 27 51 42 45 69 58 115 157 165
18 16 22 25 15 14 14 10 -2 11 29 52 77 114 149 98 37 76 22 57 109 78 135 146 121 174 117 159 124 152 120 110 72 50 59 -2 16 57 41 53 49 42 59 124 153
14 14 22 20 13 16 10 -1 -12 13 22 36 82 131 95 34 71 91 114 76 86 132 122 135 132 169 161 157 183 168 136 115 112 75 81 70 5 52 41 57 60 46 33 59 94
10 7 12 25 11 0 6 1 -4 5 13 33 84 167 85 15 92 124 97 57 67 99 100 120 127 139 167 170 201 216 139 143 137 71 97 104 7 19 105 48 63 72 48 43 60
16 0 -2 -15 -12 7 13 16 4 -3 6 15 111 169 73 5 106 72 88 85 125 101 152 145 145 172 179 185 189 179 168 122 112 110 106 107 54 28 41 45 37 66 71 64 43
24 13 -8 -3 -9 3 33 44 -1 -6 47 144 139 144 -9 107 50 71 84 108 108 103 215 114 192 127 115 159 153 117 132 112 115 113 71 42 7 20 37 41 47 45 43 57 51
44 89 -35 -26 -12 33 67 -62 -26 9 169 58 256 87 78 135 109 124 109 100 122 57 168 127 90 90 111 127 135 128 134 112 101 76 55 40 4 31 41 47 67 75 80 68 56
10 25 128 -3 -7 28 -12 -43 4 59 150 62 109 129 108 258 171 169 96 115 118 97 89 155 84 119 94 126 118 140 106 88 85 98 48 32 -24 55 56 54 67 72 64 63 78
16 29 98 32 30 16 -14 14 40 101 62 173 104 159 54 200 187 110 136 124 116 144 82 71 63 71 101 104 134 118 84 108 116 108 65 73 -26 66 79 117 101 156 158 139 143
14 -12 37 27 54 10 32 56 79 81 342 182 103 156 132 105 91 152 122 193 103 119 124 108 56 60 63 86 127 97 76 68 64 77 64 80 40 57 88 142 173 242 188 153 150
18 30 54 81 47 44 104 97 100 175 247 201 150 95 167 129 170 152 115 120 121 147 133 98 58 34 40 80 84 44 87 64 51 47 89 64 62 29 71 108 140 132 143 165 146
39 11 27 103 129 107 97 158 95 168 209 151 97 105 127 137 158 159 131 145 92 111 138 123 115 71 61 118 127 98 91 76 82 104 64 41 66 21 67 39 40 80 45 106 107
69 59 87 70 80 96 58 193 170 202 103 112 128 135 159 183 178 150 137 103 98 74 98 86 100 76 92 84 60 104 70 66 80 101 82 66 83 66 22 74 63 11 44 116 108
75 93 80 114 125 86 138 216 223 184 125 82 145 116 142 135 126 86 93 66 47 56 44 45 84 82 91 81 101 78 92 75 48 31 72 60 41 28 52 61 46 29 70 49 -44
94 58 80 108 116 96 78 102 109 170 154 97 76 48 47 71 66 64 68 55 45 62 68 54 64 88 86 89 114 69 61 87 97 64 85 66 62 36 43 98 90 66 -25 -23 11
67 43 104 98 89 62 100 62 112 109 64 23 24 32 33 48 44 47 47 50 69 62 58 56 74 81 70 48 48 88 76 80 53 60 42 46 30 10 19 54 -56 -6 6 -9 -3
44 46 55 39 32 66 47 58 37 83 57 27 18 30 56 48 56 67 28 42 49 51 42 60 44 53 46 38 38 34 23 58 51 36 56 39 25 14 -42 -31 -7 -6 0 11 24
26 54 42 29 32 52 62 62 33 23 17 8 6 19 40 66 40 42 34 30 26 47 31 27 46 33 36 37 47 34 48 72 75 74 45 46 28 5 2 -8 22 -12 -4 -3 -18
3 4 15 10 24 30 43 44 17 24 7 28 24 36 46 39 37 37 36 42 9 35 76 64 22 12 -2 11 21 34 49 81 92 68 68 73 76 73 68 54 70 24 3 30 20
-16 5 -1 -1 1 11 14 20 -3 -2 3 -5 3 -6 17 41 38 37 53 60 74 57 100 59 8 12 17 12 23 20 21 45 85 103 43 40 84 156 140 104 32 36 73 22 1
-7 -15 -21 -6 21 26 32 24 9 -9 5 1 1 28 41 14 17 13 61 64 40 67 57 57 20 16 27 30 9 18 -10 0 22 43 130 135 156 140 89 18 52 64 60 30 19
54 22 13 4 -10 -6 20 18 19 42 24 31 6 26 43 35 29 26 69 56 22 59 77 57 32 8 12 25 27 19 18 46 89 133 136 98 119 70 65 14 39 77 70 6 30

GFSSW_con_3kmhel_033.txt.gz
Helicity
111 95 84 61 30 32 44 52 52 45 20 56 105 97 112 178 308 68 65 96 22 52 168 159 188 213 252 233 233 281 227 147 96 98 62 28 80 90 93 106 103 95 135 125 77
64 55 38 33 17 23 32 39 47 49 27 16 65 62 60 -19 162 77 91 27 32 46 161 160 190 228 273 235 237 262 200 136 128 106 71 89 72 92 131 151 129 112 133 111 76
49 37 22 35 17 29 40 45 52 55 60 55 40 52 35 10 62 44 18 25 21 72 89 139 154 241 249 254 254 237 172 177 147 105 95 69 113 105 124 138 98 119 141 127 138
38 34 37 22 26 42 43 38 39 47 49 57 91 50 26 18 80 4 126 3 34 64 96 136 167 215 224 227 234 227 195 157 151 117 125 107 96 108 96 97 82 95 158 139 127
38 43 42 32 28 26 31 30 25 38 51 49 61 88 38 17 93 60 234 129 44 74 90 172 167 220 163 195 230 222 146 169 142 135 101 80 80 79 85 82 87 90 102 143 139
44 51 31 37 25 29 12 20 16 30 41 52 37 62 43 102 40 37 162 178 56 71 89 156 142 215 188 140 176 112 148 124 106 93 80 26 39 68 77 63 61 60 82 109 130
39 46 39 32 3 16 14 15 9 11 11 25 29 21 60 83 24 47 84 94 39 70 92 171 115 200 147 159 140 113 131 120 72 78 64 -4 8 31 57 66 61 65 68 114 125
27 28 26 31 15 8 13 -2 11 12 12 4 8 25 -3 96 41 15 20 68 50 81 96 125 122 185 164 144 187 179 145 123 85 60 59 46 11 -6 87 56 67 72 61 75 84
23 25 33 1 15 -17 3 -13 -1 -7 -6 13 10 49 120 104 61 23 36 69 88 86 105 125 119 186 199 175 201 190 115 136 155 55 86 96 22 -0 83 74 76 84 85 59 60
27 14 43 1 -7 -9 -10 23 23 29 15 6 44 115 122 51 34 34 33 62 94 62 77 99 142 165 184 198 178 207 185 136 112 89 99 75 54 63 73 38 36 50 56 57 59
14 8 24 36 -5 -13 8 36 -45 1 2 59 93 211 68 89 147 90 57 74 109 211 170 129 216 153 146 189 124 118 134 122 108 113 78 47 24 29 44 40 44 55 66 72 77
-10 -5 26 20 -18 24 36 -36 -17 10 108 74 12 134 134 152 86 99 68 126 202 137 244 190 134 118 116 151 149 145 140 134 137 108 58 57 30 51 47 54 52 57 64 60 64
-21 -19 41 20 -6 5 2 28 41 88 149 84 82 117 111 100 123 70 82 114 257 180 108 160 121 94 108 165 181 179 138 129 116 111 50 22 7 42 63 78 120 153 113 121 125
11 -23 37 33 26 31 72 74 71 57 172 61 63 84 124 87 94 96 49 148 97 137 178 87 84 75 97 97 125 145 109 113 103 98 97 86 49 79 90 130 162 197 213 219 255
42 31 11 45 127 141 123 74 54 105 224 92 119 116 149 77 110 185 139 105 121 134 61 74 69 72 59 122 124 137 94 135 132 114 99 92 33 88 127 157 194 155 185 225 220
62 55 114 100 94 106 106 27 79 126 241 150 172 67 203 123 172 162 137 172 124 137 166 70 101 124 134 139 199 45 146 141 123 123 122 99 71 107 115 140 153 110 135 223 179
104 77 78 100 123 55 19 96 198 211 136 156 133 97 104 149 178 154 93 135 77 137 133 166 129 64 28 123 178 139 113 194 187 167 102 87 78 67 73 83 92 87 108 172 61
85 104 72 21 43 37 94 85 155 112 103 99 78 98 69 150 152 142 97 91 121 97 76 94 100 63 44 47 47 85 75 85 128 126 98 69 74 87 33 72 68 37 73 50 39
58 37 32 53 66 78 45 111 88 86 83 55 57 59 85 105 53 76 84 81 84 57 54 70 95 76 75 76 87 75 80 76 67 79 91 86 81 48 55 64 88 56 80 54 18
64 -3 8 31 37 14 45 60 65 87 37 13 44 23 26 65 68 72 53 66 54 71 44 37 76 80 62 95 136 89 88 96 99 88 109 98 86 73 38 50 14 17 22 -4 -27
32 34 51 8 4 22 86 34 70 70 29 16 15 15 25 31 40 60 42 47 63 73 60 50 52 77 66 61 52 96 92 108 88 78 96 142 90 30 35 49 -6 -4 10 -25 -47
21 31 31 8 19 94 100 62 85 64 39 20 10 10 33 44 39 62 39 43 48 35 54 57 47 59 78 56 59 61 56 68 43 43 60 58 61 48 39 -11 -34 23 6 -33 -37
12 38 31 11 -10 -7 48 40 25 42 24 7 1 10 25 38 19 45 40 55 14 52 32 35 57 76 74 57 60 45 58 71 78 60 30 48 44 49 2 -5 36 6 -17 -21 10
10 2 2 5 7 -5 -18 15 22 -9 -28 3 -30 12 26 59 50 37 45 58 20 37 48 57 39 21 13 24 26 36 49 67 76 58 58 46 45 -6 35 71 64 19 -3 23 24
44 17 9 3 10 18 13 4 1 -0 3 -14 26 16 2 21 45 31 54 45 55 31 84 65 24 27 24 25 30 39 35 39 68 94 30 47 45 85 97 60 40 16 44 19 24
83 47 37 4 2 20 20 15 12 7 -0 1 -0 1 6 26 16 -5 43 55 37 59 68 107 29 21 24 23 10 23 14 17 15 26 60 57 104 115 53 18 -10 7 28 14 9
29 63 65 49 52 16 11 1 8 17 14 4 -13 18 34 32 28 26 46 69 34 55 81 58 35 27 25 18 23 26 27 49 75 88 70 68 91 51 61 -1 -13 12 24 24 29

GFSSW_con_3kmhel_036.txt.gz
Helicity
56 57 55 47 45 51 65 69 72 72 55 39 55 126 120 91 -83 183 103 97 50 85 106 129 167 155 186 182 233 283 139 84 47 30 32 17 52 46 68 53 74 109 150 152 82
48 32 35 59 48 42 51 51 70 64 73 73 68 63 127 70 -68 87 104 24 31 74 110 125 155 132 206 179 203 192 118 59 65 39 43 4 30 39 68 68 72 97 118 98 86
23 31 48 57 59 29 37 42 53 55 64 64 63 44 77 89 51 25 33 13 37 52 129 118 117 134 183 189 194 166 97 122 102 74 76 19 43 76 75 71 88 96 140 129 90
17 35 42 64 55 36 30 53 47 36 40 48 52 59 28 65 184 69 97 19 43 60 83 106 106 180 149 152 146 179 148 174 95 86 88 50 74 78 68 101 84 123 168 133 102
-3 28 39 43 43 40 31 24 24 24 35 48 51 55 46 46 94 119 225 162 47 57 79 93 108 156 122 148 128 167 129 137 101 69 86 101 86 87 80 79 85 108 114 118 126
20 50 36 32 37 24 11 0 12 16 22 22 40 58 43 81 84 42 91 191 86 52 68 76 100 133 140 119 115 115 172 78 87 79 71 67 77 99 62 81 65 65 81 93 107
38 34 47 26 14 7 4 1 12 15 11 5 27 34 51 92 90 -66 41 124 90 43 62 58 99 136 123 154 172 112 107 115 84 83 72 46 35 50 60 73 72 61 67 85 95
27 27 27 28 26 13 -3 -5 4 -3 9 13 39 19 20 58 118 254 48 206 102 45 38 82 40 116 121 133 105 98 126 118 66 58 79 66 66 30 44 88 76 65 71 61 64
21 9 29 30 28 13 -21 21 -3 -22 -1 28 10 1 71 28 92 118 157 288 36 29 29 89 43 101 135 82 118 90 70 86 69 67 63 22 52 71 82 68 99 77 78 62 67
19 2 12 32 21 -3 -13 48 20 34 39 19 6 28 120 98 114 66 86 137 20 52 84 108 131 106 91 97 108 83 89 99 84 94 96 57 31 33 28 69 72 74 70 67 53
5 17 35 50 11 11 13 7 -24 -49 7 27 38 160 83 69 21 72 141 55 76 79 219 92 140 108 58 76 184 72 45 76 90 82 91 47 32 33 46 38 38 46 70 80 81
11 28 60 4 12 3 -10 -25 11 20 69 -9 -12 130 238 176 38 35 39 76 133 108 119 111 83 71 78 105 102 48 61 88 108 83 96 61 50 41 35 40 53 64 67 72 86
48 22 29 19 12 23 34 54 59 48 -47 -23 117 196 145 116 2 42 -6 104 68 78 62 114 97 94 82 90 92 117 87 110 122 91 71 61 25 46 79 96 106 109 99 109 130
107 62 50 84 83 59 58 62 62 53 176 225 226 135 124 112 104 68 79 105 257 254 116 127 174 49 56 59 76 119 140 121 111 108 109 114 115 75 78 109 113 123 157 176 197
94 128 100 -4 3 161 96 81 68 54 390 167 191 168 142 113 94 73 100 122 160 268 225 205 124 52 57 46 53 131 100 113 112 115 124 85 101 89 69 110 119 150 195 194 189
62 67 99 51 34 88 78 70 102 265 230 137 141 155 120 77 109 39 39 30 206 387 227 209 163 159 157 201 104 62 129 154 134 136 114 116 126 77 89 115 116 133 205 198 153
41 60 32 23 132 114 133 118 253 225 132 112 86 71 92 95 107 83 91 61 51 106 133 226 165 132 241 232 222 158 119 188 172 160 155 136 127 152 107 130 128 114 166 166 112
2 16 35 43 84 81 62 36 138 121 77 78 31 54 137 114 109 73 104 95 39 60 156 135 131 59 124 161 95 128 147 222 194 165 143 128 124 130 111 110 121 87 123 92 54
28 -4 -16 -11 42 45 49 39 90 96 49 19 18 19 61 80 47 58 66 63 23 70 81 84 94 77 48 45 150 162 112 117 147 146 172 115 101 96 80 98 86 67 83 58 48
43 19 2 -4 -11 8 9 25 73 59 27 43 77 49 39 43 41 44 47 53 43 68 51 61 84 80 66 81 69 78 72 92 94 97 130 97 106 103 85 102 59 58 74 53 27
25 44 30 -20 -55 7 11 51 62 56 30 36 31 30 38 46 55 69 64 49 64 64 52 48 59 77 66 49 50 82 85 102 104 100 107 125 105 97 46 58 43 53 36 18 12
25 18 -12 21 -8 -23 -3 52 69 52 38 31 21 20 38 44 47 55 42 37 49 49 53 70 55 70 80 64 73 77 79 79 94 64 66 126 124 63 70 56 12 34 28 26 18
18 0 -30 -31 -29 13 23 13 40 26 13 5 11 17 28 31 28 59 50 61 4 51 42 40 53 76 71 58 54 54 43 61 63 55 44 84 80 76 81 15 11 20 29 15 11
30 -1 10 15 -8 -25 -15 -11 -8 -11 -11 -13 0 7 23 33 57 40 39 54 32 51 69 71 61 58 60 61 61 59 32 37 54 48 50 64 77 66 -14 29 43 33 5 10 15
57 42 43 -7 8 -6 -7 7 4 8 -17 -29 30 10 29 36 41 29 50 66 64 40 69 61 46 48 36 34 30 44 38 20 38 52 45 68 40 50 35 49 35 13 25 19 26
48 75 61 46 38 12 13 -6 8 13 10 16 7 23 24 41 45 18 30 38 39 52 57 75 40 39 24 22 14 20 20 19 11 7 18 34 50 73 61 25 14 33 8 17 33
42 40 82 65 63 27 11 -1 3 3 13 -4 -13 7 19 30 11 24 31 46 37 32 43 48 44 29 35 31 25 26 38 36 49 55 39 23 64 61 53 26 18 7 2 19 10

GFSSW_con_3kmhel_039.txt.gz
Helicity
61 45 42 36 37 46 37 37 37 59 81 100 78 79 121 133 65 9 164 140 49 94 125 120 126 145 148 167 151 172 147 108 80 46 46 54 78 55 103 104 60 63 158 134 93
54 35 27 38 41 43 32 36 53 55 89 65 83 91 80 118 107 25 111 116 20 80 107 95 112 117 161 157 186 188 129 62 40 45 54 50 50 61 68 68 64 65 73 105 89
15 6 18 35 40 37 40 29 48 43 73 85 49 47 51 78 186 30 -78 69 39 54 138 91 70 88 141 177 133 126 99 77 61 114 133 76 16 85 57 72 63 53 78 94 89
15 19 38 42 42 28 24 28 25 43 23 45 75 57 55 45 286 139 -94 6 61 59 95 110 78 116 113 145 119 153 64 134 66 78 132 95 44 43 59 91 105 150 174 124 89
21 30 44 41 32 25 31 24 32 36 28 6 15 25 22 32 188 57 219 28 46 69 79 118 83 113 103 79 121 98 133 157 249 58 71 63 57 65 46 93 129 112 101 119 127
36 40 43 45 29 25 7 -13 7 8 15 16 21 3 2 69 65 22 127 245 55 39 59 74 88 100 150 119 123 79 175 158 159 46 71 82 52 69 86 99 62 70 85 91 97
40 16 27 26 20 12 4 -6 11 18 21 28 36 26 16 22 58 62 44 243 153 42 41 76 67 85 174 163 118 197 157 129 95 55 25 59 79 51 83 73 62 71 59 53 81
-1 -1 15 17 23 26 18 -6 6 -0 8 20 34 34 16 3 41 84 36 214 143 36 44 87 66 51 175 157 98 131 143 95 110 68 68 35 65 -0 12 49 56 61 65 59 47
17 15 28 45 24 26 11 -28 -1 -2 -5 15 12 -2 16 19 51 88 64 148 63 63 70 92 155 114 141 110 93 123 93 71 87 59 57 23 62 62 -3 60 82 73 72 65 53
20 50 70 49 30 11 -1 -14 22 14 15 14 7 7 31 80 46 3 22 105 109 97 139 143 135 128 118 116 112 90 97 49 78 90 87 34 52 115 102 81 72 69 64 69 71
64 79 39 33 25 7 12 -3 -9 -32 -11 23 38 6 107 50 64 66 67 99 63 150 171 115 197 112 76 60 89 116 49 119 99 63 89 82 54 42 20 35 41 48 56 64 72
84 96 70 73 45 46 25 10 -13 13 38 7 20 110 173 126 94 126 180 189 117 171 122 177 160 85 85 54 107 220 94 118 116 79 74 73 39 75 44 18 30 47 60 82 102
60 80 86 103 83 42 9 -11 -8 18 35 62 149 171 91 83 57 127 107 83 62 93 98 119 100 125 139 132 118 144 87 83 123 69 74 116 49 25 33 83 113 92 66 78 86
52 53 23 44 68 28 -0 -19 -5 27 221 149 144 116 64 53 62 38 35 184 217 58 84 103 145 112 106 64 92 104 153 138 121 57 86 22 76 25 46 79 72 73 93 113 129
37 25 30 35 105 127 75 35 21 46 252 135 135 66 60 41 35 101 15 71 282 188 162 127 107 74 82 69 42 136 74 95 112 135 177 60 137 84 49 61 70 90 116 126 145
18 32 38 99 116 128 107 82 74 199 213 96 121 43 56 36 70 25 21 107 305 226 194 194 234 111 142 154 80 75 99 96 103 116 101 81 100 58 49 45 72 108 123 140 139
28 -5 35 30 16 88 70 83 209 182 90 99 98 87 58 84 38 22 -15 84 144 200 136 202 247 185 245 182 117 88 76 145 118 119 137 130 120 190 113 117 71 85 145 148 122
13 9 69 59 19 21 26 64 56 108 45 43 65 64 53 31 26 30 35 28 146 191 237 157 101 161 216 206 153 78 66 210 138 112 95 123 124 153 97 136 191 144 139 115 88
26 44 44 65 35 -14 56 -6 31 55 18 50 65 66 50 22 20 98 16 15 57 59 116 185 120 80 153 182 170 153 129 180 219 173 129 103 127 72 128 116 149 104 102 83 57
-7 40 22 -5 -6 -58 12 -19 2 -4 26 55 58 73 38 24 28 24 29 6 12 44 57 92 92 40 60 154 219 165 155 160 158 158 137 87 118 122 77 117 119 106 94 55 41
20 27 68 -44 7 -2 -23 27 23 14 38 37 26 25 37 16 32 21 30 31 35 42 45 50 66 68 42 48 48 145 175 131 162 156 191 146 121 142 72 104 99 82 50 44 40
20 -0 7 -75 -4 -17 -9 10 29 23 5 4 8 33 36 26 29 34 35 62 66 56 57 68 60 75 75 43 90 114 69 47 107 68 89 115 115 60 76 122 86 66 43 44 40
38 10 9 -33 -17 -7 -1 4 8 -16 -10 -2 7 6 15 21 35 46 47 45 41 65 50 41 49 69 61 43 41 45 45 95 117 140 70 101 62 73 87 67 34 30 36 30 34
36 23 20 11 8 -1 -7 2 11 -3 -5 -1 17 8 7 19 48 32 47 58 49 53 82 66 51 76 105 86 79 74 53 61 87 86 58 67 73 44 74 60 35 33 41 31 24
61 43 43 47 38 37 23 23 10 9 -2 -10 -3 8 20 30 35 36 49 59 57 38 46 70 48 64 60 67 52 47 48 39 52 46 67 70 59 31 67 50 33 35 36 11 21
79 83 88 42 48 39 30 -6 28 23 21 13 5 18 34 42 39 31 18 27 44 43 41 49 47 52 37 25 23 28 21 18 7 7 9 38 60 83 61 37 45 36 18 15 25
71 43 63 68 67 61 60 52 29 18 17 17 4 18 22 45 52 60 34 33 42 36 27 42 57 48 45 26 25 5 1 12 24 39 25 24 64 64 89 56 25 25 19 26 18

GFSSW_con_3kmhel_042.txt.gz
Helicity
63 71 64 34 30 37 41 42 29 44 56 57 75 74 94 90 113 86 125 174 50 95 112 96 124 165 245 273 179 201 169 67 79 159 119 56 96 106 134 109 78 57 77 109 82
41 27 23 34 36 34 37 33 43 49 53 52 79 75 118 91 105 164 27 74 106 60 103 91 118 140 214 210 226 193 180 75 41 34 82 51 102 101 91 104 151 100 58 77 67
9 19 27 30 36 28 37 33 40 48 39 55 88 74 81 114 140 123 68 18 56 81 92 63 78 112 161 184 243 215 132 48 -8 36 108 84 119 127 99 105 82 75 26 35 80
29 35 32 42 34 26 32 38 40 47 26 34 54 82 84 182 173 236 -9 -36 53 47 86 142 94 135 157 169 150 233 52 129 103 28 51 206 93 39 96 91 158 174 255 109 64
37 2 8 22 12 22 30 28 28 33 20 14 -26 13 100 110 96 94 127 -18 83 74 102 121 98 126 122 110 138 130 179 66 127 59 112 113 188 133 81 77 125 174 211 165 125
9 5 17 26 14 17 15 7 12 3 10 2 1 -8 22 125 87 38 84 45 96 54 77 87 117 123 176 90 132 92 193 305 170 114 127 163 134 122 76 82 69 82 106 92 102
10 3 33 16 4 10 14 10 8 2 5 2 2 -2 15 -19 93 27 88 263 38 5 81 111 98 125 189 183 152 164 169 223 238 111 69 118 122 106 80 127 83 55 61 74 77
29 48 40 40 29 33 34 10 -8 -7 -6 -4 -11 -16 27 -17 10 74 46 183 257 134 71 72 73 104 165 145 174 187 168 182 167 110 97 25 85 43 71 89 102 77 72 76 60
33 37 44 25 21 31 21 -8 -6 4 -16 -13 -5 -8 33 -6 13 50 0 195 254 42 73 81 102 162 147 188 188 161 126 155 112 105 140 88 29 41 84 76 74 67 60 70 65
32 34 45 34 5 -2 7 1 4 10 -13 -4 15 35 21 59 29 56 15 128 201 39 26 71 128 174 192 210 164 107 90 80 107 121 117 111 64 148 115 106 66 104 127 108 83
23 -12 22 51 58 0 24 34 9 -2 -18 -12 9 57 73 153 22 18 22 117 116 132 188 104 134 72 104 80 115 79 65 127 63 95 101 79 77 68 106 88 73 84 83 80 87
13 18 -11 3 15 -1 37 20 25 39 56 14 19 41 56 139 83 -53 34 98 130 123 169 183 86 98 100 102 124 104 144 78 133 123 102 115 71 82 76 90 66 59 72 75 88
15 26 23 -17 11 38 65 26 -10 36 90 70 59 94 101 87 -15 112 111 102 171 131 126 160 176 66 57 74 107 164 179 119 182 162 112 146 74 72 94 85 68 105 113 135 149
-1 21 62 44 63 105 125 116 81 95 170 82 80 68 44 83 25 51 95 220 182 111 95 84 131 152 151 93 94 160 138 162 168 139 106 101 88 52 63 89 127 105 62 63 158
0 9 21 79 58 92 145 68 80 46 80 61 37 7 48 40 45 99 57 138 138 162 208 158 112 163 152 114 151 159 161 217 182 143 189 121 113 75 178 115 94 89 137 169 183
20 36 49 51 71 136 112 53 68 97 147 53 75 113 21 64 65 120 69 191 298 291 185 170 215 100 133 139 124 156 241 164 123 123 120 115 86 78 108 96 101 142 109 107 97
34 39 93 63 44 98 33 22 58 88 41 84 62 47 65 76 58 84 -2 103 97 85 176 141 229 223 184 146 44 137 160 170 163 150 116 168 117 56 87 77 125 116 109 115 108
69 26 96 80 18 31 -24 26 21 23 13 83 42 4 53 29 56 29 -31 96 124 125 168 52 158 223 182 238 227 158 125 169 144 106 103 157 131 162 207 134 91 62 175 122 86
69 71 71 76 22 -44 -17 12 -7 -3 22 44 36 19 30 25 29 27 10 49 107 138 120 77 107 118 152 275 233 188 153 120 181 147 141 111 122 154 191 266 272 183 121 96 114
4 26 30 120 30 -57 -13 -17 -25 -17 32 101 34 30 8 17 71 58 3 52 27 61 195 111 120 85 147 224 240 224 220 142 176 165 117 78 66 101 138 156 172 162 117 101 88
6 10 29 28 0 -16 11 21 -15 -15 7 19 31 34 31 6 27 14 29 7 26 19 67 114 89 54 50 86 169 149 159 134 181 172 168 109 100 111 103 114 129 119 111 106 93
29 17 30 20 7 1 17 12 22 -15 -10 8 14 44 43 29 35 24 30 50 39 21 23 57 76 91 66 66 90 124 103 147 117 139 162 140 135 61 97 122 140 123 83 70 73
51 29 22 -13 25 23 24 17 36 6 -1 4 13 16 18 22 36 69 61 45 58 107 83 43 52 89 77 54 42 35 56 85 175 138 77 92 85 98 102 131 88 64 50 55 70
59 60 52 27 25 50 15 26 13 17 9 15 25 21 12 20 29 34 52 41 50 60 86 97 72 76 89 65 78 87 60 45 111 112 117 105 146 141 129 52 48 50 57 70 67
64 61 69 75 77 89 56 57 17 5 -1 -6 -10 -15 13 18 22 20 59 51 52 49 48 81 60 74 87 73 80 64 70 74 118 111 125 91 116 85 68 77 69 67 72 42 51
65 68 80 82 78 66 49 45 58 40 24 14 7 15 29 79 53 42 38 30 38 59 53 61 46 63 52 36 39 47 49 50 62 63 35 98 114 229 135 104 78 73 60 37 49
49 38 59 91 117 120 121 110 103 52 21 21 19 19 15 62 74 77 82 52 42 43 46 60 62 56 58 47 26 32 28 51 75 79 56 36 39 108 112 123 105 69 37 43 48

GFSSW_con_3kmhel_045.txt.gz
Helicity
38 23 21 34 37 46 38 40 35 47 47 43 57 55 54 97 89 104 127 133 102 184 117 133 142 171 250 240 268 313 199 97 73 161 85 156 219 149 88 150 165 84 73 83 89
47 28 28 37 52 50 39 41 47 43 44 48 60 66 69 126 99 116 111 106 82 51 122 123 134 180 264 245 268 276 293 100 35 55 137 189 205 132 146 123 147 126 109 89 95
31 17 11 21 28 17 38 34 34 28 39 38 49 69 82 143 131 39 21 101 120 78 100 111 114 178 238 264 275 243 112 138 50 32 -43 -20 97 99 99 140 119 62 42 55 68
11 11 9 35 41 28 37 34 30 29 38 48 52 81 121 121 82 88 199 35 54 98 112 104 124 201 201 203 215 198 104 29 78 60 62 49 177 229 104 97 105 61 74 51 54
2 19 38 36 29 28 27 28 22 25 26 21 23 16 61 71 95 290 189 20 46 54 86 106 133 197 215 198 171 166 137 87 107 93 60 57 73 119 157 86 94 187 185 78 51
-3 36 45 43 20 8 20 20 15 11 7 2 -22 -29 -17 90 92 119 165 94 75 52 80 78 113 138 182 113 187 129 143 205 203 75 47 35 79 195 57 137 103 103 115 144 124
-28 9 55 49 22 21 17 16 5 -1 -7 -5 -3 6 -21 101 77 76 78 206 128 83 107 61 87 113 168 173 123 243 146 145 175 211 94 108 112 38 59 97 117 81 54 57 76
-4 -10 7 35 28 26 6 -22 -17 -14 -9 -1 -6 10 40 82 47 86 86 87 157 132 77 58 70 74 153 199 204 201 184 201 80 182 103 81 80 49 72 97 87 90 79 67 71
29 17 -4 -4 24 3 -9 -5 10 14 -24 -13 -11 -1 46 65 37 53 71 64 149 102 76 116 140 151 200 210 244 210 169 191 173 135 157 115 45 66 83 92 86 92 85 70 71
28 29 19 -12 -14 2 -14 -7 -3 -3 -32 -16 6 20 29 68 35 63 37 12 111 56 76 164 192 197 172 231 219 224 148 155 179 180 158 109 91 116 138 90 79 81 70 71 68
24 43 29 18 -16 -39 30 44 37 20 -12 -1 18 10 35 71 46 67 65 47 53 96 95 166 185 81 75 187 205 204 168 142 107 119 135 85 77 93 132 122 104 85 71 91 120
38 28 34 20 46 19 38 84 83 75 56 25 12 28 25 19 30 50 60 133 121 122 90 169 125 138 123 129 120 145 129 83 138 92 130 118 93 61 96 106 89 75 65 72 114
36 38 38 55 79 120 77 75 51 54 135 108 75 57 44 59 32 -1 64 170 70 155 56 91 18 62 95 98 106 121 155 179 150 217 222 164 111 87 74 93 114 129 110 119 103
27 40 55 65 136 148 76 94 54 80 150 100 90 33 29 84 20 29 99 123 113 61 156 129 163 62 74 51 91 131 139 177 192 222 144 111 53 84 60 75 113 165 159 122 124
4 19 51 88 128 124 99 79 52 25 147 19 9 11 -15 42 56 57 27 213 280 131 91 116 137 142 109 92 86 129 125 190 237 206 155 118 95 37 97 135 182 180 144 121 149
14 16 32 69 94 98 87 26 24 88 127 125 107 19 70 195 108 78 63 216 198 241 217 146 166 169 134 120 182 202 315 301 236 169 119 94 92 61 111 112 178 181 144 163 194
58 13 42 54 98 119 47 13 56 57 81 81 62 65 45 83 80 80 93 156 139 143 125 137 172 106 146 191 246 263 280 268 217 177 90 124 122 73 121 96 201 184 162 120 115
97 24 45 30 69 79 33 28 58 43 112 73 41 50 41 44 34 -14 5 169 154 128 149 115 124 156 135 116 190 178 231 237 198 202 127 175 87 90 85 111 163 154 111 95 90
55 34 34 3 60 29 -26 -7 68 14 33 45 77 89 34 35 20 10 40 37 45 93 97 100 78 152 188 220 204 195 197 171 163 158 128 130 143 124 163 181 170 147 132 78 101
42 7 28 58 78 3 15 -7 -38 -8 35 37 38 53 59 86 53 68 37 63 35 53 99 58 54 123 158 200 247 233 220 192 195 145 147 118 105 78 128 171 182 176 151 112 104
36 26 16 86 11 19 42 15 -56 -55 -21 2 32 22 21 24 33 25 30 -1 11 58 96 66 81 103 99 134 207 286 248 164 107 121 143 119 90 65 62 177 238 191 135 102 107
40 21 18 51 8 29 62 16 2 -10 -20 -22 -9 36 48 22 38 12 7 30 15 -8 51 91 87 106 66 57 82 165 138 126 159 147 110 116 109 90 84 152 167 158 129 106 106
44 50 23 20 31 81 29 31 23 3 -2 2 -3 -3 13 35 31 34 43 40 64 48 34 34 92 133 89 43 47 99 73 88 128 116 74 78 78 69 74 92 117 135 95 93 100
50 35 35 63 50 50 77 55 44 23 17 19 18 15 17 28 33 34 45 48 49 57 74 76 49 54 53 41 79 81 89 91 84 -1 57 44 42 88 97 69 63 70 83 86 80
46 45 41 52 99 96 75 68 52 38 23 15 16 16 53 38 30 31 50 46 42 46 65 71 68 87 71 63 74 62 99 102 101 100 58 43 95 65 89 77 61 69 97 99 77
59 57 23 73 112 128 128 131 91 83 55 37 37 44 45 86 74 29 64 37 38 47 45 62 49 78 67 51 51 53 57 69 66 67 46 82 93 131 62 134 167 127 98 87 75
40 15 30 87 138 164 139 135 129 62 55 49 32 35 21 24 42 33 37 18 37 47 60 72 70 70 50 61 49 29 52 87 90 123 107 54 80 151 172 155 138 121 85 73 74

GFSSW_con_3kmhel_048.txt.gz
Helicity
12 49 76 44 36 45 44 53 59 51 42 32 47 52 65 91 41 93 144 107 85 108 70 164 161 187 239 250 239 403 253 124 101 169 220 152 155 158 162 136 169 158 113 114 128
-7 25 38 35 50 52 38 33 48 38 46 45 60 67 93 96 108 122 101 108 105 73 149 137 181 183 243 230 307 380 214 118 161 130 125 217 164 224 198 213 200 195 208 159 149
-3 17 33 70 62 47 27 33 47 40 40 32 54 50 72 68 119 71 41 104 94 65 103 138 160 168 198 235 281 244 133 133 102 72 110 55 117 187 227 199 102 81 94 89 121
25 29 53 30 53 41 33 33 31 26 33 42 42 34 51 84 122 70 72 95 115 51 67 132 187 193 195 221 248 208 157 130 164 117 107 -69 186 197 213 231 88 58 65 94 49
56 63 70 57 26 17 36 26 15 20 19 17 18 9 47 76 66 85 224 230 115 72 61 107 183 203 217 211 213 207 62 97 119 94 52 68 -98 131 188 285 118 152 144 100 83
44 66 59 72 47 37 33 17 6 -2 6 7 2 -3 28 75 72 170 296 88 91 135 111 100 129 174 216 188 187 140 180 174 135 63 57 96 48 113 153 228 38 106 143 113 68
43 39 69 64 44 28 22 7 2 -4 -6 -4 -7 -18 21 59 89 286 192 206 117 77 124 109 120 143 181 173 182 131 171 195 101 73 75 34 25 69 96 212 98 80 93 104 78
48 37 50 69 63 18 0 -9 -3 13 8 -14 -12 7 44 60 93 114 179 132 115 98 66 109 141 112 189 170 206 160 188 167 150 126 131 34 19 5 -23 69 71 67 99 95 106
42 44 37 35 39 25 11 -5 1 11 -3 2 1 3 37 80 45 49 111 39 38 122 180 109 153 125 229 205 272 271 207 161 152 86 145 141 92 61 50 -10 10 44 68 80 88
38 42 46 27 37 11 3 3 15 -6 1 0 12 38 39 48 52 58 88 84 48 77 128 128 152 183 192 219 228 199 181 132 174 136 156 122 99 130 83 53 36 70 74 85 87
32 31 55 20 29 20 15 30 28 29 9 6 42 57 74 58 40 51 34 109 58 143 232 160 198 76 142 167 234 206 257 244 204 129 146 68 55 53 69 123 86 65 89 90 79
20 38 47 29 23 16 37 48 36 51 23 20 15 11 34 24 41 34 55 22 95 92 234 176 74 160 191 216 181 133 156 149 150 118 99 94 55 81 61 56 98 85 85 71 94
4 23 25 48 25 64 54 66 19 43 52 62 56 51 64 64 30 21 1 -41 126 75 89 319 190 175 153 182 158 170 139 161 154 163 166 105 75 71 62 99 90 93 100 84 89
3 9 16 26 65 82 53 31 33 41 76 48 54 49 32 35 52 43 54 27 80 87 201 211 159 130 83 96 128 157 147 159 151 193 144 140 85 80 76 79 97 29 84 100 129
11 9 18 36 77 74 41 35 28 24 74 70 55 41 17 87 75 20 72 146 58 88 106 221 114 100 89 53 104 132 96 139 188 226 187 171 106 -6 110 89 63 86 136 134 158
16 28 24 23 56 57 50 15 13 53 55 60 6 8 61 117 89 32 121 153 125 152 166 180 214 154 94 115 105 96 183 278 233 203 147 152 128 -54 72 72 92 153 184 184 184
32 25 57 58 35 76 45 27 46 48 41 53 67 100 122 66 73 98 110 122 104 106 178 177 196 155 145 142 149 134 232 231 202 198 92 113 141 68 67 59 72 138 208 227 215
29 1 41 46 34 56 29 35 11 16 20 28 37 65 54 94 9 38 53 85 136 95 141 112 99 92 126 149 156 151 187 196 136 148 142 177 115 98 28 28 75 173 232 221 184
3 40 33 -2 32 25 0 -5 30 3 -2 25 27 31 28 20 1 14 77 79 118 115 86 111 106 79 108 137 152 133 152 196 166 159 130 109 153 110 65 65 140 163 190 153 153
51 48 22 37 30 11 13 6 -3 17 -3 6 36 36 27 27 4 28 54 79 90 96 99 76 111 98 117 103 141 161 199 218 256 139 106 77 94 82 77 99 150 196 160 138 119
58 74 17 48 7 21 40 20 -1 -16 -9 9 23 17 27 28 23 26 37 38 31 42 82 71 85 99 83 116 148 204 209 234 242 224 145 69 24 22 38 97 169 174 131 127 109
82 104 9 36 16 35 54 27 23 3 -15 -17 13 54 42 33 30 25 19 44 11 73 93 99 80 91 105 81 79 177 199 230 238 225 208 92 20 24 43 94 167 175 153 119 103
97 81 10 20 12 60 55 45 32 39 21 15 17 24 38 55 34 33 36 59 20 30 50 59 88 97 124 85 97 116 166 178 271 257 187 136 54 83 33 88 141 178 159 141 140
81 91 58 34 40 52 85 57 51 26 25 24 22 28 41 45 36 39 52 67 64 56 52 68 57 64 52 46 84 106 104 150 181 119 129 98 12 21 3 9 85 107 145 139 116
60 102 81 55 27 91 78 110 41 37 37 42 39 38 47 46 34 41 51 63 82 72 74 79 46 59 46 52 58 50 81 94 138 157 90 5 -35 18 22 47 66 85 107 125 109
83 83 54 72 46 105 134 155 142 77 42 39 55 77 53 65 49 27 57 47 52 63 64 76 51 72 79 56 52 56 52 67 92 69 50 21 -64 51 62 155 109 85 125 112 101
51 30 50 64 68 108 107 114 134 120 73 69 61 70 86 86 75 61 25 26 29 48 65 63 63 66 47 88 74 39 59 122 113 134 145 109 183 130 89 86 84 133 135 98 112

GFSSW_con_3kmhel_051.txt.gz
Helicity
7 20 41 47 64 67 44 33 33 41 55 70 54 43 41 57 102 92 112 88 71 150 145 148 155 217 248 271 300 342 230 101 94 116 1 65 76 139 216 161 124 154 104 109 126
20 28 57 69 86 68 33 24 28 28 33 48 58 56 54 56 77 100 96 56 81 106 164 112 166 194 248 218 272 294 252 105 155 92 37 71 43 131 189 361 197 106 165 192 143
34 47 65 92 79 76 34 38 39 29 41 29 47 48 49 55 82 78 38 60 113 80 124 132 148 160 237 229 246 228 176 133 80 91 96 -45 21 60 197 329 228 199 81 162 123
38 47 61 84 99 75 42 44 41 36 27 33 35 43 40 70 86 53 64 42 99 119 121 128 193 186 198 204 219 185 114 156 117 163 122 83 29 89 163 344 284 263 59 93 109
53 35 55 81 81 59 47 30 30 35 17 14 17 4 61 62 66 48 238 225 150 170 119 130 172 187 174 132 217 197 92 182 202 159 147 78 5 86 193 329 268 150 41 38 84
48 46 39 73 70 46 32 10 3 14 9 3 6 13 37 40 42 64 103 294 86 86 67 110 131 176 175 142 176 160 128 172 177 119 124 104 83 49 72 155 237 150 65 45 65
31 47 40 60 48 43 5 -13 -11 5 17 16 2 24 10 35 109 177 145 117 70 33 114 151 112 188 191 163 186 150 226 228 152 142 121 48 68 21 43 197 237 252 108 52 79
24 25 56 35 39 42 9 -16 -10 10 22 17 14 -10 8 9 109 266 340 119 181 -5 76 30 94 165 174 164 240 225 218 179 118 116 183 98 54 77 78 226 218 271 105 63 82
15 19 40 29 33 30 10 -0 1 14 15 -0 -25 -19 23 -41 137 214 207 110 147 106 130 101 95 136 193 160 277 222 178 147 120 44 120 125 68 23 -33 114 200 292 181 74 74
26 13 35 22 22 10 -4 -9 15 -13 -0 -0 -12 -4 23 15 10 49 114 109 160 133 153 128 175 144 181 190 222 179 212 139 186 120 121 82 145 67 -41 62 24 170 129 88 61
18 14 24 19 10 -5 12 43 25 -9 -7 40 17 16 19 56 13 59 87 138 197 196 128 139 165 85 116 146 182 231 205 176 180 150 113 89 94 98 57 98 64 111 13 24 47
13 11 17 18 9 -6 24 41 23 25 -5 31 33 24 28 3 24 39 34 54 144 6 146 267 80 123 123 148 146 185 174 186 171 134 100 97 82 52 34 35 53 66 50 43 100
-0 -3 5 10 8 34 32 6 -0 -2 3 16 25 2 28 35 25 34 22 -1 19 101 325 182 95 122 158 185 188 203 145 171 132 160 138 81 80 64 24 14 11 30 37 63 104
-9 -11 -5 14 40 41 42 -7 -25 -19 24 12 7 10 19 17 14 58 49 48 58 156 307 251 123 108 115 190 183 160 117 129 150 183 120 114 25 52 38 14 48 -2 48 62 122
-24 -26 -10 38 63 52 34 26 -7 5 58 20 1 41 38 60 34 124 97 13 93 87 229 127 80 108 109 152 148 139 97 111 126 159 124 128 87 8 82 72 35 58 27 58 121
-29 -32 4 53 54 45 46 12 8 38 52 54 5 41 69 82 124 33 99 68 68 140 148 178 272 238 173 149 118 120 165 204 184 140 83 83 90 -68 71 63 75 98 69 103 167
-50 -31 27 52 30 41 39 31 29 57 25 53 34 62 82 56 20 53 97 82 166 188 240 197 204 195 171 148 127 158 173 202 164 142 67 105 112 26 74 74 67 73 85 108 178
-42 7 41 24 37 45 32 35 50 29 6 18 17 71 72 35 31 37 65 67 152 130 179 126 53 149 191 162 120 159 139 159 136 118 66 158 76 74 46 40 61 65 118 134 197
10 42 15 -7 20 21 22 17 47 15 9 1 -0 31 26 9 27 29 48 63 101 131 65 104 117 140 147 187 163 190 150 131 140 142 132 113 95 34 51 60 57 74 113 139 185
67 60 28 -0 29 16 15 11 31 23 12 -10 30 8 17 -35 -27 4 33 29 66 84 101 90 98 102 96 136 159 184 202 201 209 136 98 81 72 57 49 51 103 91 132 152 167
63 100 29 -8 16 4 3 19 49 47 36 21 30 20 23 27 20 12 55 81 82 93 100 107 89 89 73 107 92 146 179 186 156 146 101 64 44 23 6 17 53 97 130 136 131
63 105 28 -2 14 7 24 48 55 44 29 40 37 44 18 1 17 45 39 99 64 121 115 120 112 131 78 100 97 75 101 163 157 150 202 171 112 83 -23 -6 42 87 117 119 110
70 77 41 14 43 17 16 74 58 58 50 46 45 54 37 26 14 19 41 83 58 78 72 62 88 126 108 76 61 68 99 136 205 186 207 179 124 96 67 29 38 86 106 118 138
71 124 88 63 40 14 5 94 99 53 44 41 34 39 49 53 64 35 47 55 38 35 48 87 64 69 67 63 97 127 116 143 186 129 213 172 160 142 22 -23 3 66 115 108 127
51 84 102 115 49 26 -13 109 88 88 50 46 48 49 52 52 54 49 51 69 74 56 75 60 38 56 52 53 71 70 75 68 130 172 63 90 93 78 69 -18 -22 53 113 139 121
64 87 90 89 50 35 9 74 107 125 86 55 49 91 58 43 56 31 42 44 57 94 87 82 59 52 57 62 49 66 58 65 83 26 43 59 62 77 49 79 110 108 138 164 113
30 44 75 69 71 76 33 53 100 129 81 44 59 60 64 74 78 67 20 51 47 52 90 77 52 58 51 68 67 45 58 121 154 164 120 44 240 143 63 34 85 97 96 137 105

GFSSW_con_3kmhel_054.txt.gz
Helicity
1 17 38 31 45 54 67 65 47 36 52 66 52 53 67 49 64 73 132 112 74 154 115 128 162 250 276 313 214 264 202 130 159 249 136 53 119 118 107 208 153 113 106 101 122
12 31 37 26 43 68 89 70 59 53 50 45 47 52 37 50 36 64 41 58 61 113 138 122 173 232 304 291 284 262 170 92 61 78 162 17 42 128 132 258 212 284 263 194 99
24 33 34 31 38 68 73 65 59 40 39 29 41 60 52 57 29 30 19 28 105 101 106 143 136 184 289 266 300 268 165 187 98 49 94 10 -18 32 130 201 191 335 394 177 90
28 36 34 31 32 58 59 53 51 27 28 27 38 47 50 70 32 86 141 54 91 74 93 130 162 202 226 238 249 214 137 88 110 88 75 66 -95 15 55 167 246 291 313 142 69
21 34 39 20 36 45 37 40 24 21 18 10 18 24 30 54 68 49 158 255 126 117 78 150 136 207 241 210 205 193 125 97 116 151 60 111 65 -89 106 133 193 270 270 155 64
17 22 42 29 25 42 19 12 15 10 6 4 -2 10 9 23 18 53 25 169 114 122 120 124 131 176 200 204 175 139 160 89 94 66 108 102 98 -50 -64 -15 117 233 300 179 83
24 17 29 30 25 32 27 -6 3 8 5 4 4 36 1 -10 12 127 57 51 108 97 101 61 168 136 172 236 199 204 129 137 160 155 171 184 103 135 -33 -3 102 205 266 184 96
22 15 21 20 23 22 21 -6 -3 11 10 3 8 4 44 -4 87 130 71 77 116 63 61 78 156 115 163 184 220 182 184 126 120 144 157 157 64 40 82 52 179 201 293 213 133
20 12 13 27 -5 11 12 -6 -5 6 14 3 -9 16 46 124 95 141 153 123 90 62 39 62 173 148 209 196 203 222 160 203 150 78 146 141 57 62 54 63 107 243 234 197 168
22 9 4 14 -6 -4 -1 9 23 3 6 4 16 19 60 64 86 195 130 68 120 97 97 121 201 259 244 210 160 193 231 226 226 147 161 97 136 32 88 10 87 224 176 144 137
29 13 -4 1 -8 -4 5 33 35 18 32 65 59 66 34 35 31 99 109 83 173 135 97 235 343 175 213 204 151 189 219 159 151 99 150 89 84 75 61 6 70 207 209 151 134
29 4 -8 -1 -9 -6 23 54 45 34 12 45 41 26 34 23 16 33 66 130 176 106 197 108 73 55 148 145 134 172 192 156 147 118 100 73 45 28 59 5 -32 100 11 105 117
18 7 -12 -13 6 30 54 41 15 30 27 6 28 14 23 -18 5 44 91 119 188 116 149 192 66 95 123 155 149 189 160 166 140 166 153 78 77 60 18 73 56 -52 11 -9 89
15 -0 -12 -15 38 62 85 49 9 23 74 47 36 9 5 -11 24 81 102 110 124 27 173 42 41 94 105 122 164 148 119 135 117 156 136 115 63 50 37 -25 -30 -31 -17 11 45
6 -9 -1 18 61 68 79 49 23 27 80 59 61 6 23 22 41 90 74 59 54 -19 42 132 130 118 113 143 152 109 98 130 154 186 159 153 102 -13 81 24 -146 -88 -73 -31 40
-10 -12 12 35 52 52 73 26 9 73 15 47 55 36 67 90 77 21 12 46 63 74 86 220 220 199 163 169 105 57 163 199 175 149 72 83 88 -35 92 56 63 84 79 60 90
-16 -4 65 40 23 30 36 39 45 73 44 7 -0 52 79 54 14 41 21 54 91 94 267 204 200 169 190 202 171 157 162 217 190 153 66 77 65 42 77 92 65 81 82 73 94
-3 52 67 20 13 57 19 22 34 36 24 5 20 70 35 25 -38 3 28 86 95 133 167 198 136 162 187 125 123 156 166 166 151 131 66 112 -8 -9 11 30 12 30 60 73 77
55 74 48 2 13 20 14 2 21 13 -4 8 1 12 43 27 -6 -12 66 117 161 234 120 182 234 261 204 204 159 159 135 155 149 130 88 67 54 15 28 46 62 69 57 26 69
86 79 44 -5 19 7 2 -1 18 -5 -8 -12 2 5 -15 46 26 24 16 60 100 113 59 96 99 199 147 161 168 121 143 148 180 85 52 49 25 49 55 99 66 44 67 106 113
80 131 40 34 25 -7 -3 5 42 47 12 -17 -18 16 10 -15 17 47 29 21 57 69 56 93 80 112 119 87 112 178 202 202 156 140 94 49 42 14 19 48 53 45 54 95 128
104 172 41 28 22 -1 -10 16 52 63 46 33 8 49 8 -2 6 23 62 71 42 38 60 78 60 104 101 118 134 122 139 168 161 161 159 136 55 113 33 -53 10 13 48 84 98
136 128 49 38 71 21 1 10 49 60 43 50 61 72 34 13 10 18 55 70 78 90 57 61 96 95 79 76 104 105 105 134 145 111 97 103 76 93 55 44 -30 27 29 52 99
144 209 87 45 31 15 -5 1 25 70 50 48 51 56 48 44 34 6 28 36 44 87 126 112 119 95 75 57 83 93 107 99 110 64 94 139 75 92 90 43 -42 -98 3 61 79
125 152 103 119 45 2 -9 -10 -1 93 75 74 58 69 46 44 44 39 43 49 67 54 82 67 63 65 75 86 74 70 78 114 121 102 86 111 80 134 133 51 36 -35 20 95 91
160 136 76 70 33 18 -1 -25 -0 86 91 73 56 76 56 50 55 34 36 48 44 61 59 68 54 60 56 65 46 61 56 72 63 66 -25 52 76 64 79 92 74 44 52 74 100
72 63 75 52 64 70 33 -4 -17 101 76 64 47 62 69 61 55 43 7 35 35 52 88 79 77 74 49 70 62 49 31 150 167 163 139 35 211 104 32 18 10 -49 39 101 121

GFSSW_con_3kmhel_057.txt.gz
Helicity
17 14 21 33 34 53 69 74 70 70 72 57 39 66 61 59 84 49 59 48 60 85 138 132 133 220 296 271 269 344 278 199 150 207 231 200 201 189 95 99 160 131 161 164 93
22 14 24 28 31 43 67 62 53 61 64 52 59 50 32 50 52 41 31 13 44 103 168 152 159 223 290 253 332 271 164 268 282 241 225 256 190 191 161 160 201 210 249 202 124
19 23 34 29 31 37 63 59 49 55 52 38 47 28 31 39 42 40 101 37 9 98 134 138 139 202 277 301 292 315 123 106 81 131 144 192 110 81 197 216 201 264 265 279 149
24 18 26 33 28 34 53 43 30 40 41 28 29 27 27 31 50 58 163 161 -1 109 90 147 162 212 236 251 262 222 194 152 92 40 97 138 -0 58 131 200 143 188 143 192 222
32 30 20 33 28 35 44 29 17 22 28 28 19 17 9 32 32 44 74 115 99 74 130 169 184 219 253 251 270 207 91 71 85 93 67 91 -36 -75 61 46 80 144 151 190 239
33 33 23 26 36 26 37 28 5 10 16 14 15 14 31 18 18 34 31 38 60 70 140 167 175 199 224 213 213 174 234 127 134 114 106 109 103 -135 -127 -128 -8 138 190 192 238
41 34 27 22 16 15 24 20 6 2 13 5 10 38 51 18 9 28 49 8 62 104 122 127 172 185 188 226 255 169 205 153 110 125 104 119 98 59 -169 -67 17 98 145 195 268
43 42 34 21 25 -5 11 19 -0 3 7 10 10 49 60 45 2 75 47 48 60 51 74 55 164 152 187 204 278 208 178 164 117 109 129 75 80 70 40 -52 36 37 119 183 256
37 40 27 15 20 2 -6 13 1 16 12 26 40 60 52 65 26 103 51 53 113 74 36 26 222 161 161 184 235 242 165 182 189 100 121 82 24 41 66 126 -18 51 94 170 232
49 33 21 12 14 14 -10 3 34 29 21 40 41 53 72 18 11 105 81 84 84 103 64 46 79 205 182 224 185 216 217 190 162 135 105 73 128 75 68 67 38 68 85 156 252
52 30 23 19 19 15 19 32 65 43 58 70 76 61 57 28 15 79 72 78 119 99 112 86 57 94 166 265 134 221 215 162 148 85 117 55 72 122 33 46 40 36 165 148 272
41 29 18 15 6 26 58 66 60 36 39 48 37 41 44 35 33 35 72 88 140 73 93 81 62 186 152 190 162 154 196 190 178 87 130 85 50 37 31 27 34 39 23 166 211
44 34 13 14 13 71 89 43 5 33 93 70 26 21 17 32 28 54 77 135 109 106 98 -48 59 221 208 175 171 186 121 182 141 127 116 81 75 61 58 58 31 33 -41 127 179
34 22 12 14 51 75 84 42 3 13 70 89 52 13 22 -1 23 63 69 172 242 101 120 50 101 143 137 156 141 148 126 157 132 144 100 106 60 56 45 48 1 -7 -153 -28 -42
31 17 13 42 71 71 50 38 2 16 15 60 73 29 9 28 41 71 100 110 116 119 86 78 29 69 132 134 145 170 127 159 162 173 125 129 60 10 95 40 -21 -4 -10 -7 -39
21 7 33 62 48 53 50 10 5 21 -5 24 59 56 61 -7 35 79 81 110 101 19 61 98 93 106 77 124 109 85 175 227 190 156 90 85 63 -68 25 51 68 57 72 85 41
19 30 70 44 29 23 27 34 30 52 13 -11 -23 38 50 21 -43 17 58 120 78 101 52 47 120 123 165 182 196 142 178 199 150 128 61 93 64 31 21 20 29 58 50 48 74
61 73 54 39 3 30 29 19 23 13 3 -18 -0 50 1 9 -6 42 71 110 128 105 103 148 125 177 202 180 120 149 133 154 110 101 56 94 2 -5 13 -12 15 12 35 57 100
84 62 54 27 39 22 20 6 16 -6 -6 -9 -7 -19 -7 -6 39 52 117 108 82 89 164 203 183 236 214 187 167 163 144 123 107 112 86 73 69 25 -3 14 55 53 49 38 34
82 94 50 4 18 18 18 6 7 4 -15 6 3 -4 -4 38 39 36 76 112 101 127 147 148 144 171 188 173 168 126 133 151 164 77 55 59 47 44 39 67 86 61 63 45 69
88 166 77 35 26 4 11 13 9 4 -0 1 -6 9 -2 12 24 30 50 91 118 83 70 144 130 185 155 124 90 148 137 143 93 82 34 6 24 19 32 35 40 18 17 44 54
142 167 78 30 67 19 4 16 12 39 11 2 5 25 17 -7 20 37 44 82 76 84 74 96 80 166 139 120 148 125 82 129 99 79 118 83 45 92 52 -10 5 21 -5 36 40
170 170 58 33 175 93 -6 -0 2 23 34 26 26 29 9 -12 11 56 84 102 58 65 51 57 63 63 60 39 59 59 90 137 170 148 105 91 89 72 49 44 61 15 -42 1 40
153 174 111 60 48 62 28 -17 -11 16 38 34 43 39 18 14 32 18 77 76 108 89 78 65 66 50 44 50 91 130 104 104 137 95 89 110 87 48 42 49 12 -18 -69 -79 49
129 137 110 160 88 38 28 -4 -8 -24 65 56 45 53 40 28 28 31 29 37 80 104 120 104 83 78 72 76 90 89 76 88 83 75 79 79 38 37 39 28 -8 29 49 45 74
144 158 109 110 72 70 45 36 -4 -8 21 61 43 60 48 37 45 18 20 36 44 71 74 84 74 72 87 72 61 68 73 67 49 53 15 18 48 19 77 86 50 -16 45 14 43
90 77 111 95 104 104 87 60 7 -13 27 69 32 32 75 63 51 49 26 26 18 37 55 60 59 62 58 63 45 25 32 87 134 132 99 71 111 99 91 105 52 42 44 -11 -16

GFSSW_con_3kmhel_060.txt.gz
Helicity
21 27 23 27 33 24 40 50 68 77 80 83 78 63 51 64 73 58 48 49 36 161 172 122 106 161 212 248 278 224 220 197 196 167 186 226 205 215 188 137 191 184 156 184 146
18 23 21 25 39 38 44 57 70 66 57 54 49 30 44 21 43 43 60 47 90 96 142 133 109 149 214 209 287 289 197 126 141 243 149 253 200 226 191 141 184 166 153 98 122
22 23 21 34 33 55 44 59 69 53 43 36 28 9 14 -1 -6 27 77 86 63 -11 125 158 111 120 199 198 234 290 184 68 98 189 143 188 207 208 188 197 221 231 202 177 150
22 28 23 25 35 55 48 55 58 38 39 31 19 5 -1 -8 21 23 88 74 93 -14 65 169 153 145 182 205 135 200 106 94 152 168 230 242 149 180 245 216 166 223 186 159 185
25 30 33 33 36 46 46 58 43 32 20 17 17 11 18 8 2 39 49 65 56 11 102 292 137 138 157 154 137 173 126 192 100 142 117 148 151 101 149 133 116 192 179 180 166
39 33 33 32 26 34 47 44 45 30 19 10 9 16 34 -1 45 30 32 48 -3 13 97 253 121 156 145 141 106 67 114 116 164 176 136 85 109 96 78 34 22 141 185 166 149
51 32 31 36 22 35 34 44 34 34 22 12 16 24 43 24 45 17 23 40 8 -24 65 97 213 205 127 148 155 144 124 72 99 110 173 147 62 86 50 -5 29 110 129 153 174
50 38 24 38 27 30 18 20 33 33 22 25 33 39 60 36 24 23 67 63 22 -30 54 88 236 255 144 208 161 139 97 83 24 43 37 38 100 59 71 -78 -32 69 131 116 141
52 40 23 24 24 18 16 10 21 28 30 32 55 48 64 39 -5 18 61 89 -5 38 23 51 278 253 197 145 179 126 80 60 40 41 75 49 62 103 51 33 -19 -12 65 100 122
54 42 31 9 22 11 14 -2 46 53 46 55 45 47 58 15 0 43 102 68 70 25 88 5 177 242 163 167 173 131 125 80 67 117 78 60 88 154 65 47 41 -45 36 95 112
49 41 28 16 8 6 31 45 76 76 57 50 53 37 33 6 13 70 81 64 52 78 123 37 156 238 124 117 195 98 128 77 94 106 90 65 54 60 114 61 48 85 66 69 73
43 39 27 9 0 0 44 101 83 56 94 80 38 24 24 19 19 65 47 105 93 133 129 102 92 218 125 146 161 75 71 75 116 61 50 49 37 28 42 71 28 53 36 87 78
45 32 11 4 -2 35 56 87 40 32 72 89 30 8 13 34 26 36 71 113 130 63 75 87 64 142 105 130 91 63 51 71 79 95 110 100 66 43 21 40 47 -4 -8 58 124
37 18 8 12 37 49 72 66 27 12 34 69 73 34 26 28 10 36 61 142 136 91 43 -2 2 66 73 118 105 80 91 83 74 68 81 62 76 49 30 23 5 -3 3 18 30
30 14 4 32 47 53 66 42 7 13 32 38 55 10 8 -8 63 54 78 211 59 114 59 48 17 142 59 89 106 134 51 75 82 81 89 38 63 53 65 10 19 24 22 43 46
17 2 42 49 33 42 61 17 4 12 28 0 23 6 -10 -12 55 43 49 158 71 79 53 82 43 208 154 114 137 52 100 106 103 91 76 60 45 7 49 67 47 41 27 41 18
24 48 50 10 35 26 31 28 27 35 -4 7 15 19 10 3 38 39 57 99 87 47 71 56 45 58 137 129 97 100 92 200 137 101 82 80 51 62 30 62 36 76 70 57 71
65 53 31 -8 -6 17 23 12 22 19 -16 -13 11 21 -30 -17 -23 37 51 80 99 38 44 105 94 67 73 75 114 76 93 140 116 102 52 67 40 33 45 36 52 53 33 57 46
86 58 37 13 21 8 13 14 13 -3 -21 -30 7 9 14 5 24 62 66 82 98 101 58 53 100 131 124 104 118 122 122 173 83 52 24 30 37 33 16 26 15 54 43 47 58
84 90 49 2 5 11 19 21 5 -13 -10 1 -10 3 23 7 43 62 103 130 88 80 85 65 123 79 134 143 144 105 90 99 107 20 24 25 37 37 45 108 136 137 110 76 46
103 159 78 23 12 19 99 24 -7 -11 35 -14 -17 -3 12 12 61 90 85 111 83 79 115 131 148 131 122 123 99 133 108 113 96 88 71 49 40 62 48 58 59 55 56 85 74
142 153 82 12 72 44 73 20 -1 -13 15 3 -34 7 18 15 35 62 68 77 61 70 81 137 69 153 139 100 118 85 62 36 55 21 73 89 75 30 10 8 22 98 125 73 29
178 154 54 17 146 117 30 22 -4 -20 5 18 13 28 22 20 29 48 84 82 86 77 59 65 80 151 102 77 85 53 42 56 94 97 48 52 66 36 32 50 52 49 53 -30 -47
154 169 106 50 23 76 67 32 17 -21 -1 23 31 22 13 1 9 39 57 87 77 60 50 62 65 59 36 68 63 58 53 57 80 71 27 -14 22 35 41 51 59 64 39 9 17
134 148 99 144 83 63 35 32 14 -9 -23 35 22 34 25 18 11 19 51 70 95 117 78 63 60 60 56 43 39 44 26 39 13 10 24 33 26 21 34 44 56 41 24 61 61
143 144 117 124 83 90 47 56 39 -7 -29 -21 41 49 18 33 50 27 15 37 59 75 93 104 67 69 75 73 52 45 35 45 27 9 24 12 55 69 79 29 11 16 28 31 41
82 75 93 118 107 111 75 52 55 -5 -28 -16 39 39 64 56 46 61 53 51 42 46 72 75 81 85 82 75 56 49 31 35 62 65 59 45 56 38 45 54 42 25 27 34 77

GFSSW_con_3kmhel_063.txt.gz
Helicity
41 39 49 47 30 19 24 31 46 59 67 68 59 61 67 62 43 48 63 24 139 60 148 167 98 88 180 198 186 121 208 209 168 130 100 164 192 228 211 129 178 178 205 156 170
38 43 41 43 42 38 30 38 43 67 61 41 47 38 42 41 26 29 34 71 52 120 101 174 129 71 166 171 216 201 102 135 184 99 127 97 187 223 197 106 110 132 123 103 121
36 36 44 38 43 39 33 39 39 67 55 32 34 27 19 17 18 10 90 59 67 81 63 186 197 80 166 181 231 163 109 89 148 134 170 198 254 206 126 138 178 203 182 97 93
38 31 40 35 31 37 33 43 34 59 49 29 23 4 -2 16 23 49 44 71 100 44 34 168 227 161 156 175 159 202 103 79 134 231 214 203 151 255 256 177 191 215 204 163 112
36 55 40 35 35 33 30 36 35 45 39 25 19 10 5 20 15 62 20 37 94 21 15 214 196 173 129 128 128 102 158 119 67 83 126 244 229 258 221 178 145 215 225 196 156
40 50 49 28 31 28 14 22 28 38 35 26 22 15 19 16 75 35 23 29 41 -3 -176 176 176 175 149 125 126 105 134 228 129 161 139 120 137 261 187 120 156 177 222 203 163
58 36 49 15 24 24 13 -7 11 35 34 29 32 27 35 47 46 38 12 24 35 -26 -46 65 196 146 232 150 96 126 61 232 131 217 88 40 55 114 149 108 103 121 190 178 176
69 49 43 11 7 14 12 6 -7 36 32 25 34 33 67 74 11 -3 17 16 48 2 13 72 134 119 286 105 85 195 52 113 147 80 106 133 55 40 58 111 177 47 142 150 139
77 56 37 17 5 8 2 -7 -9 18 40 30 35 40 50 85 41 -10 24 65 0 -14 -45 71 135 131 218 154 147 141 85 77 126 132 100 95 72 118 112 59 98 131 111 136 98
81 55 29 11 6 -6 -7 -5 -5 45 54 54 33 43 46 47 15 5 85 41 -8 -11 34 134 96 209 208 198 135 122 137 5 76 40 67 51 129 89 19 24 16 76 108 154 103
80 47 27 10 -4 -11 15 52 69 73 64 48 37 16 36 -2 15 36 76 34 23 1 117 123 95 290 135 119 96 76 87 48 29 24 -1 30 75 99 39 8 27 24 79 67 100
72 44 27 1 -12 -7 38 65 36 33 64 78 23 21 30 65 3 28 57 27 45 74 71 83 109 217 146 86 213 82 91 136 102 57 21 17 3 -25 4 52 44 38 27 90 71
71 38 17 0 -4 26 54 38 22 15 37 96 41 19 23 65 5 2 34 37 56 63 77 110 109 297 269 190 264 164 107 123 102 82 37 84 13 18 27 27 62 51 65 128 134
65 34 17 6 38 50 61 51 16 -5 42 98 73 37 21 43 -9 27 32 53 81 88 34 12 185 228 244 131 151 154 107 138 84 44 72 9 76 -7 6 19 16 44 66 44 171
48 28 9 41 32 48 66 32 -12 4 70 53 60 9 27 21 12 62 81 48 107 118 114 60 39 122 181 66 70 154 126 82 46 20 103 41 93 94 41 29 26 23 36 41 55
35 19 38 61 27 42 36 0 -1 31 65 23 19 -14 19 14 92 47 105 57 46 112 118 66 59 122 177 158 191 101 91 74 78 96 103 60 45 65 32 51 57 32 28 28 25
40 60 36 35 55 39 14 15 32 38 21 44 16 -6 -34 -5 44 40 46 35 91 141 95 15 52 145 78 126 65 81 114 206 141 132 145 121 71 88 48 56 91 101 89 67 48
45 62 35 -7 4 27 3 4 33 11 0 -11 10 -5 -13 -14 40 71 55 51 -76 60 127 141 106 140 155 80 103 55 64 173 136 79 71 68 77 76 86 64 61 45 46 67 72
59 69 37 18 30 6 14 29 34 -7 -31 -4 36 51 -9 -16 25 103 75 32 -7 56 113 136 117 110 136 119 116 85 90 138 216 189 175 3 44 77 31 60 55 83 82 64 57
73 84 57 23 10 10 37 33 7 -34 -26 4 -21 -7 -6 4 35 63 77 46 1 54 64 48 71 82 61 88 120 128 82 119 173 105 68 35 53 61 32 60 98 129 132 120 98
74 119 60 12 13 37 66 12 8 -28 -16 -13 -6 -3 12 23 35 55 56 59 64 82 99 15 48 49 54 49 52 101 99 130 137 148 156 86 47 115 41 64 95 69 82 86 89
116 127 59 9 68 30 36 7 -26 -28 -11 -9 -4 2 20 47 50 67 50 73 31 59 65 103 39 61 48 63 134 68 38 21 57 25 68 125 99 15 44 61 38 20 54 65 78
130 139 37 10 110 78 4 -14 -26 -30 -24 -12 -12 -12 12 12 39 45 41 67 56 68 50 94 42 83 56 28 61 61 54 75 46 82 49 74 59 40 5 17 8 2 85 88 77
123 111 90 45 33 25 31 27 -2 -46 -23 -16 22 12 3 17 36 32 50 51 65 69 82 86 48 81 46 62 50 45 22 12 29 70 42 30 7 6 24 37 37 75 54 45 14
118 109 90 127 79 33 -8 15 28 -13 -29 -24 10 39 25 3 16 32 54 55 49 44 32 65 51 59 65 59 60 49 22 14 29 18 29 7 14 21 67 97 90 61 49 44 33
125 111 94 112 71 54 23 34 48 -8 -20 -31 -27 44 35 48 63 29 17 50 55 52 76 67 50 55 48 46 37 35 29 23 -10 -13 -8 6 14 32 47 51 65 65 54 34 23
85 50 61 111 100 71 50 46 46 -4 -38 -40 -25 18 62 64 51 47 44 47 51 55 63 77 62 54 46 42 33 25 14 14 26 37 60 38 65 97 83 68 63 61 58 34 18

GFSSW_con_3kmhel_066.txt.gz
Helicity
67 53 62 47 43 25 35 21 20 24 33 62 64 44 39 44 35 53 53 24 33 123 100 122 144 116 204 179 179 157 194 184 179 237 109 178 220 246 292 196 288 177 230 135 159
76 65 58 52 42 21 28 27 20 31 40 59 43 32 32 32 33 34 16 4 96 63 109 143 163 141 169 190 212 176 138 171 120 269 147 158 181 217 241 221 199 134 178 133 142
67 74 64 58 34 30 14 25 21 23 39 47 27 18 10 19 34 67 62 40 43 64 66 89 204 179 159 175 210 179 136 98 144 151 72 151 103 162 208 138 121 160 114 121 105
70 65 77 54 38 32 27 15 24 29 36 36 11 8 -4 16 91 58 60 40 5 41 58 29 167 220 171 175 139 210 103 75 10 139 200 200 216 170 167 284 306 274 168 89 100
64 64 57 57 41 28 24 3 7 20 33 42 9 3 16 51 50 125 51 17 -13 -15 69 15 201 198 244 151 182 133 105 136 102 246 127 143 183 283 316 232 167 252 284 121 101
96 86 69 63 45 21 27 6 -7 8 26 44 13 4 25 50 110 90 51 3 2 17 58 16 134 243 115 181 165 126 178 131 81 50 106 276 267 286 269 172 143 150 268 175 151
104 86 82 67 41 20 24 -4 -5 -3 25 36 21 17 36 50 56 63 22 -4 28 8 -37 10 111 210 202 185 171 132 133 154 119 132 111 138 244 203 221 217 141 90 151 159 108
106 93 77 68 48 23 22 -2 -2 -1 10 36 26 29 65 21 61 41 38 25 13 52 -19 -66 165 178 98 194 188 122 124 167 131 181 92 141 117 101 103 259 325 161 99 107 113
109 107 96 68 48 28 3 -16 -2 0 15 38 54 50 41 73 46 62 17 20 11 7 -16 -44 91 44 124 266 173 144 165 90 119 216 161 245 198 127 83 138 194 270 191 134 110
108 108 86 62 44 20 -4 -5 14 7 32 32 30 45 52 57 60 40 6 23 9 7 -40 -48 94 29 134 260 175 124 134 97 61 127 205 154 205 85 101 87 67 63 99 166 155
106 99 83 60 37 15 14 39 86 61 25 54 91 54 11 29 22 27 29 6 24 9 -87 -19 123 69 66 180 141 138 151 100 52 49 10 27 69 95 71 68 17 54 97 112 110
103 98 81 55 21 24 29 40 70 47 27 101 62 27 41 122 9 1 25 10 15 41 27 62 148 85 93 268 100 94 68 85 -27 13 59 132 83 45 41 111 107 162 93 77 149
97 92 74 38 18 40 31 14 13 7 44 114 68 39 42 75 24 -12 38 6 70 29 90 37 104 175 196 76 156 102 83 163 54 15 51 83 107 48 -17 76 59 50 42 38 132
91 83 61 26 54 51 40 51 19 1 45 95 90 47 31 54 37 16 27 12 19 111 107 106 147 278 73 124 195 195 61 56 59 71 72 10 106 64 4 26 43 21 76 65 87
76 59 44 31 56 55 46 42 -15 10 65 60 57 20 16 62 2 57 37 24 26 116 145 88 216 347 148 157 160 245 118 214 184 80 150 41 99 76 103 59 80 62 55 65 74
66 38 56 73 40 26 25 -1 4 41 80 55 30 5 24 52 40 48 23 42 85 140 90 56 166 245 299 269 247 179 260 225 175 182 150 72 70 136 48 8 31 91 72 63 69
65 74 54 57 76 38 15 19 51 53 33 60 33 -9 7 18 96 24 20 82 114 104 53 86 149 194 193 208 134 154 203 290 278 279 207 142 85 123 99 120 143 154 199 119 79
76 66 42 28 41 14 18 26 97 25 6 11 40 6 1 29 66 22 36 96 153 97 55 93 115 162 141 129 115 88 192 255 220 176 170 165 138 131 86 42 93 79 73 86 100
90 70 59 35 40 2 23 84 53 -1 -31 9 85 19 17 28 65 53 55 40 121 101 106 79 108 138 100 172 104 68 127 193 249 232 146 73 79 88 65 118 88 110 142 162 137
106 93 80 50 21 9 46 50 -2 -20 -27 -1 -3 23 12 13 64 89 42 73 44 104 113 93 137 178 101 128 118 112 63 130 230 187 162 83 43 61 98 112 131 141 122 139 145
104 107 70 29 18 34 80 41 -4 -19 -16 -16 1 14 -9 38 63 59 42 44 26 40 102 35 55 98 108 90 94 99 142 142 133 147 163 115 100 138 43 134 144 112 94 63 52
99 83 46 22 78 38 46 32 -24 -18 -12 -13 -6 11 13 15 64 80 36 44 32 39 64 39 39 51 43 91 109 116 76 88 100 115 133 143 134 70 135 110 98 42 26 14 -16
100 104 37 16 99 85 26 1 -39 -15 -23 -11 -7 -14 2 -5 49 54 54 48 58 77 58 48 26 62 33 26 29 26 50 59 57 83 96 122 80 87 73 46 18 5 35 41 -16
101 70 101 24 1 25 62 51 9 -41 -27 -30 -23 -3 21 1 17 30 64 40 60 65 59 67 3 44 39 38 48 63 48 47 77 98 59 56 65 63 15 -4 42 75 63 41 11
47 61 81 72 35 33 4 38 51 -15 -37 -13 -10 -26 -18 -8 1 42 41 23 63 39 37 57 54 43 65 78 92 60 45 33 68 49 74 38 23 35 44 43 36 42 53 40 45
82 77 74 57 35 46 24 27 62 -15 -40 -17 -20 -6 -10 28 75 37 40 62 70 38 35 30 49 46 40 49 50 40 38 49 21 45 33 18 5 27 63 83 90 59 60 66 58
77 68 46 78 50 72 56 36 20 -30 -56 -47 -15 -23 -25 30 87 80 66 56 59 52 69 81 61 61 54 46 53 34 30 32 55 87 104 52 76 47 96 95 56 76 90 81 55

GFSSW_con_3kmhel_069.txt.gz
Helicity
23 51 56 74 82 68 50 31 31 22 29 20 25 36 44 63 51 58 60 40 19 32 76 117 176 133 154 155 225 169 268 164 148 215 156 148 188 199 157 247 243 243 250 223 153
22 45 67 84 82 56 56 32 31 23 24 26 25 34 45 46 53 61 31 18 79 83 61 81 175 149 163 132 204 216 241 129 136 187 181 259 208 186 251 243 287 239 242 208 225
30 48 61 90 86 57 51 48 36 22 19 23 25 29 40 47 51 64 48 57 38 55 65 72 97 155 157 151 194 146 218 139 141 91 223 257 193 204 226 264 193 154 142 182 232
33 59 77 83 91 70 49 45 36 24 19 26 27 39 28 63 113 47 54 43 22 30 43 58 35 127 164 179 150 235 143 81 106 136 166 225 154 238 233 247 211 154 98 161 216
33 82 103 99 95 77 53 33 29 14 15 18 32 44 50 90 62 67 53 40 13 32 13 29 23 141 122 165 196 127 175 103 96 117 202 209 150 227 243 293 253 176 165 122 160
55 97 117 110 91 70 52 30 26 2 20 14 46 51 79 74 53 97 90 31 7 -36 -20 35 58 89 181 216 140 94 139 164 106 89 231 305 308 249 226 262 242 204 116 139 118
80 93 124 110 94 70 53 26 19 16 -1 8 46 69 100 64 68 53 68 44 15 -2 -29 39 56 78 339 182 181 214 105 149 122 112 96 173 280 279 244 203 180 145 121 120 140
104 103 130 120 79 74 46 21 7 6 10 10 48 90 98 58 33 63 58 74 9 32 16 11 -15 96 157 244 223 131 218 150 189 92 203 280 245 189 221 239 214 166 125 102 130
121 109 123 117 75 61 36 8 -3 8 4 23 72 109 57 51 76 72 95 56 14 30 42 -12 74 103 109 130 191 186 120 116 180 153 184 101 99 278 140 128 150 185 229 178 104
120 109 115 115 73 50 15 -14 20 22 9 28 38 59 45 63 61 40 20 -0 5 34 26 7 117 36 27 221 143 150 132 78 152 127 139 112 94 202 70 216 138 130 146 200 240
103 108 118 109 77 33 47 59 97 87 40 87 102 99 38 75 15 22 5 -6 20 19 -8 -2 34 33 -121 121 233 159 158 116 49 99 118 70 -43 398 163 102 93 68 106 132 136
103 110 119 102 64 28 54 83 97 56 36 73 35 62 57 111 31 22 -4 -0 8 6 -21 -28 47 42 4 129 236 128 172 114 101 84 99 88 70 64 143 56 105 63 43 25 117
111 106 115 80 61 46 62 46 43 17 41 63 86 54 73 86 47 22 16 26 30 15 -21 69 45 54 39 190 186 106 90 125 94 77 167 87 102 130 44 31 100 126 122 71 69
106 96 107 72 108 74 69 54 37 8 59 39 65 40 83 87 37 15 10 45 68 84 -28 125 119 67 100 164 158 127 98 71 100 37 101 114 132 15 -6 -14 20 98 92 83 105
86 91 84 81 103 87 63 57 -1 11 101 48 27 14 70 64 55 34 16 8 67 61 137 172 162 69 -40 89 67 153 96 104 28 4 85 87 82 125 53 27 -42 42 51 73 48
80 69 89 118 50 45 44 6 -9 66 32 35 29 12 33 55 63 30 118 130 150 34 47 106 205 280 155 103 74 126 252 280 164 125 63 18 34 153 42 8 45 30 45 54 55
66 74 115 83 98 44 18 16 90 102 25 39 21 -5 15 -7 24 64 81 124 107 65 184 222 363 269 197 209 211 175 275 277 270 218 80 96 65 88 166 59 74 80 108 47 62
60 120 91 72 35 34 12 54 195 3 22 13 30 -3 -20 -18 18 37 70 147 153 79 157 124 183 235 332 271 158 170 141 173 144 107 188 178 92 85 81 62 107 165 183 226 193
94 123 107 60 23 9 48 159 130 -8 -10 28 33 -6 -20 28 26 38 53 119 106 52 64 107 142 224 204 215 127 147 193 141 142 156 163 170 177 90 96 105 127 126 169 152 158
91 132 120 55 10 13 95 132 18 -34 -13 18 20 1 -14 -4 28 52 98 122 122 84 101 101 109 153 140 140 172 109 127 207 218 140 156 166 114 113 115 182 202 183 134 143 157
102 81 99 48 17 45 136 103 -24 -27 -14 -16 14 1 -25 -24 37 78 71 90 96 110 92 82 88 105 95 70 86 126 112 142 128 133 148 164 177 20 53 98 89 79 79 50 44
98 22 68 45 83 56 103 55 -29 -23 -22 -19 -8 5 3 27 52 59 66 88 68 66 36 64 42 98 63 89 91 94 84 124 73 148 166 127 162 72 127 84 55 16 48 63 31
124 69 68 26 73 63 56 11 -36 -29 -21 -14 -4 -6 19 6 -53 62 40 41 46 71 23 10 32 68 80 59 36 51 63 49 81 93 89 101 107 33 49 42 52 76 121 86 49
96 41 71 -9 -15 25 95 82 24 -54 -54 -43 -30 -25 -6 -12 68 100 80 48 65 39 40 29 34 29 24 6 11 22 32 41 87 80 91 97 134 205 170 117 112 139 111 86 80
63 -1 6 51 -28 7 44 93 75 -5 -44 -40 -32 -7 -12 -15 19 77 79 99 72 52 53 44 51 43 53 39 27 16 6 18 77 60 92 46 73 91 27 45 46 44 54 34 20
62 5 25 5 -6 32 58 92 85 -19 -47 -36 -30 -54 -29 8 -0 19 35 64 86 50 33 19 31 50 34 52 53 44 24 31 -27 49 30 20 8 -4 -10 35 109 96 47 39 40
77 68 30 42 27 41 55 72 61 -18 -67 -40 -12 -29 -17 10 73 75 59 60 37 54 66 54 55 57 48 40 34 24 8 12 43 82 56 48 47 91 113 84 55 61 83 89 87

GFSSW_con_3kmhel_072.txt.gz
Helicity
1 -4 18 53 97 80 64 59 48 50 41 46 43 33 28 34 34 49 81 45 55 53 32 64 112 145 130 155 158 181 138 170 128 130 161 140 121 160 121 208 346 309 221 174 -58
34 24 37 39 97 88 56 57 56 36 44 45 42 33 35 39 58 84 39 21 55 62 92 77 89 129 167 129 174 200 136 172 132 153 183 147 109 157 118 169 287 299 255 155 73
54 38 67 55 102 86 73 61 50 37 44 36 39 31 38 58 72 93 62 34 46 42 65 97 90 134 127 141 158 202 130 142 140 147 202 178 218 176 164 173 153 149 222 189 205
72 43 97 102 116 97 75 59 44 40 43 25 42 37 38 89 149 61 36 51 48 41 58 79 76 94 99 147 145 208 94 121 125 144 105 131 334 187 248 160 100 96 184 221 190
94 78 135 112 113 80 69 57 29 38 41 38 46 45 72 125 89 71 65 38 39 56 58 44 57 58 131 119 131 110 198 106 121 121 99 128 208 239 200 194 203 196 211 145 154
104 89 122 129 115 87 70 44 29 35 27 28 49 64 99 115 81 71 71 30 30 62 51 54 76 19 20 131 120 69 107 179 123 98 77 131 135 272 204 161 127 143 152 155 171
134 133 145 136 113 72 57 42 28 24 16 17 44 78 104 101 86 94 52 56 43 55 59 38 47 106 69 160 164 143 95 141 177 106 123 87 177 215 204 185 131 108 127 139 146
131 150 131 134 108 73 56 34 20 11 6 30 57 108 95 76 50 18 53 63 43 30 -18 -31 -35 105 144 239 157 146 194 104 114 125 162 111 86 324 278 216 171 135 129 158 171
196 143 119 114 92 62 56 14 -5 10 20 27 77 114 48 19 56 33 64 76 50 21 18 8 -2 32 49 247 199 199 146 114 148 135 106 87 174 234 264 256 211 155 122 140 141
149 140 145 103 86 79 43 -0 23 45 42 45 33 76 38 57 69 58 56 13 11 33 40 12 68 138 79 155 236 170 146 100 162 127 108 88 118 336 438 332 229 186 145 131 133
195 133 152 103 99 68 78 82 113 82 60 79 93 75 52 45 53 26 16 3 12 23 39 17 70 107 71 155 152 228 146 101 -13 229 156 68 83 134 200 262 179 156 123 105 102
131 123 136 133 83 74 89 111 72 55 55 39 45 59 56 54 44 37 -1 14 5 21 -5 44 46 116 69 114 182 185 105 116 -84 -10 150 71 136 32 331 318 209 111 104 61 85
91 117 118 150 75 97 94 55 36 27 61 17 52 57 69 90 36 20 8 21 54 38 29 37 53 45 -42 62 149 143 65 103 46 33 73 16 6 -10 51 158 83 81 53 43 70
98 91 98 125 122 123 92 27 24 18 81 50 42 40 85 67 63 5 27 23 54 25 43 51 9 -107 -40 114 135 99 86 72 57 176 77 76 29 -151 4 3 6 78 123 55 23
78 59 92 64 161 142 69 56 18 11 166 48 36 18 72 70 34 68 43 15 47 52 64 60 33 -41 42 48 153 113 47 44 -107 57 181 243 121 104 101 22 -5 56 65 95 98
57 80 88 78 121 70 44 30 -0 77 101 20 21 17 15 77 66 119 180 119 84 114 67 84 126 68 92 155 147 134 124 156 209 36 140 263 246 170 105 6 -2 35 61 77 60
71 19 83 113 94 46 31 34 126 168 7 26 16 -18 6 35 60 96 109 76 97 113 148 174 156 131 99 152 137 107 208 149 97 -27 92 -43 169 87 66 127 95 56 51 56 64
37 81 97 103 96 80 41 90 203 27 15 7 13 -30 -22 32 28 94 67 55 184 151 179 168 56 76 100 112 69 124 98 105 140 107 75 68 55 90 74 131 90 104 97 124 141
127 173 111 84 88 61 64 120 129 11 21 50 -15 -46 -21 41 22 58 81 81 160 105 202 148 117 311 207 177 108 139 186 146 105 160 124 74 115 120 127 151 150 174 173 166 179
199 135 39 131 93 66 58 78 38 -24 6 7 5 -27 -38 37 27 59 81 78 80 56 96 100 147 185 209 167 168 72 111 145 173 139 128 110 101 81 99 117 108 118 120 123 122
235 102 91 175 125 24 41 55 19 -28 -2 -5 -13 -48 -34 2 25 62 76 49 48 98 90 87 71 95 80 95 112 152 137 152 132 121 86 127 136 103 90 86 101 104 121 158 202
119 -22 116 179 28 10 15 18 -32 -26 -21 -12 -41 -44 -12 -18 3 36 21 12 40 57 73 58 42 76 47 86 96 91 97 105 116 129 131 123 119 82 34 17 103 143 163 148 128
172 128 81 87 32 12 -9 -33 -39 -34 -20 -14 -19 -19 2 -16 -21 43 42 68 51 17 29 46 38 59 54 32 31 14 28 90 98 141 138 123 124 169 121 119 109 125 106 93 76
54 84 87 25 -5 -10 8 -16 -1 -50 -45 -21 -31 -44 -42 -47 62 -7 24 47 41 45 44 26 35 13 20 19 40 31 -11 42 57 57 58 83 129 176 159 97 99 103 79 75 64
113 29 26 37 9 -49 -25 -17 9 -26 -56 -52 -33 -16 -14 -54 -54 -64 59 52 67 54 48 30 6 10 39 37 4 -3 -15 27 47 57 63 73 136 177 128 135 131 125 123 114 105
58 50 72 -8 -38 -12 3 -14 12 -14 -39 -44 -46 -18 -22 -31 -40 -55 78 53 50 60 50 31 31 62 5 -6 35 35 35 43 14 58 62 65 122 40 45 69 94 95 88 88 86
155 115 40 6 23 36 17 17 15 -37 -33 -52 -37 -42 -25 -2 1 76 63 60 62 76 78 67 54 45 29 65 45 28 8 32 50 61 31 36 71 51 86 81 87 92 106 122 114

GFSSW_con_3kmhel_075.txt.gz
Helicity
41 3 3 9 44 71 75 56 61 43 49 37 51 48 52 44 34 47 75 53 60 84 89 67 94 138 160 173 183 215 220 129 94 72 78 138 94 100 145 133 312 312 55 95 198
80 40 21 45 43 68 69 69 67 54 54 34 39 42 49 38 54 70 60 39 32 77 94 97 120 141 159 160 206 246 227 113 59 207 36 153 128 120 137 181 276 320 215 170 117
115 79 44 62 101 95 81 87 75 60 51 21 26 44 46 60 72 65 94 32 45 72 71 89 85 153 154 159 180 204 159 122 40 59 106 115 142 137 135 193 209 199 164 213 42
138 116 89 51 89 90 86 83 95 58 51 33 30 54 58 76 115 66 35 29 53 98 79 76 116 148 177 154 129 180 105 161 102 124 41 68 139 160 146 141 89 136 164 234 209
218 155 104 104 90 94 93 88 79 54 62 33 28 82 86 104 92 85 69 66 87 78 85 84 80 130 133 163 118 124 141 111 126 135 93 64 81 151 179 205 128 183 197 130 131
251 204 156 130 87 136 104 80 68 52 66 13 41 116 102 116 64 75 79 69 63 64 71 86 90 121 118 65 167 60 72 147 123 111 80 99 116 121 178 209 159 110 148 139 147
267 257 138 186 104 93 119 98 81 66 42 20 28 103 95 91 77 133 97 59 56 75 86 90 83 108 72 18 36 119 77 109 113 130 139 116 158 149 202 260 186 162 180 125 130
271 224 199 141 98 108 72 104 85 52 22 13 47 104 84 47 31 33 56 62 37 46 62 77 73 47 24 50 52 105 112 93 60 86 122 144 65 110 166 245 219 178 178 157 136
268 159 173 139 104 100 83 101 57 38 36 56 87 101 66 16 74 41 58 77 59 64 41 53 30 -8 2 -37 90 157 164 99 61 76 119 117 70 80 193 256 211 221 207 190 165
226 195 191 90 88 110 93 80 82 78 62 67 55 77 60 74 68 66 54 65 30 20 24 10 -9 21 11 20 171 185 120 103 89 120 77 107 6 74 218 369 270 234 187 229 230
172 193 234 86 118 102 119 129 198 114 54 58 68 73 70 41 56 45 46 69 -30 20 22 -5 41 36 25 68 159 111 149 71 159 129 104 53 41 38 85 326 287 279 250 194 188
148 248 171 81 103 111 153 107 142 81 43 22 16 32 21 45 60 45 22 22 11 31 14 6 24 44 -8 171 201 115 140 88 155 190 76 98 68 12 76 82 295 236 219 183 113
165 247 142 129 73 113 117 55 118 63 71 16 43 44 54 81 49 23 12 27 39 65 72 38 33 -15 8 68 135 208 133 120 103 69 385 67 17 35 42 108 172 161 187 138 113
125 162 115 128 92 90 101 26 75 46 104 37 27 7 38 46 67 36 11 20 68 54 10 27 30 41 25 95 71 167 133 53 -8 71 -19 68 73 46 37 86 51 132 173 135 104
128 176 132 128 95 84 114 87 90 33 150 36 15 14 37 50 71 68 57 21 43 44 22 26 35 66 37 81 74 97 61 97 131 75 5 67 30 4 15 23 85 131 74 67 72
208 143 147 75 65 78 128 86 92 105 106 37 13 -17 20 58 99 146 84 83 58 56 84 54 34 55 47 62 65 112 123 174 99 14 141 206 81 57 40 83 65 5 32 67 91
135 83 96 95 -33 98 100 132 197 154 46 36 27 -23 -13 38 57 82 74 64 39 48 -13 -18 4 -4 3 50 136 75 104 93 -51 -80 35 254 163 148 122 92 49 24 50 60 97
153 67 66 21 39 117 126 157 186 46 49 14 6 -36 -18 13 55 48 11 81 48 91 28 50 46 92 110 166 102 69 56 105 49 18 82 3 188 171 69 128 75 81 107 113 109
139 169 139 35 25 113 78 113 85 31 41 37 -15 -50 -30 4 30 35 120 117 84 100 21 31 43 130 135 80 127 97 70 32 33 86 43 38 44 57 43 89 114 118 160 161 149
201 175 105 61 48 129 -44 76 25 -12 24 4 -23 -43 -26 5 13 59 81 58 102 115 93 174 -33 129 128 123 93 114 68 95 95 56 21 38 42 42 42 64 84 144 132 140 142
274 146 107 32 118 -16 -54 69 12 -27 -8 1 -34 -59 6 4 52 58 62 38 50 104 60 69 29 83 75 95 82 122 119 98 68 71 40 32 47 47 26 21 51 85 111 124 130
221 57 105 108 18 -61 -12 44 1 -31 -26 -15 -39 -34 5 21 43 49 12 25 57 81 58 61 22 20 28 79 79 69 61 63 58 67 69 53 59 114 49 128 138 159 178 165 149
141 146 95 98 -40 -68 23 2 -23 -50 -39 -20 -37 -5 23 2 14 36 1 20 39 38 36 36 38 37 34 19 32 40 73 64 81 93 95 79 80 140 195 187 193 157 143 127 131
156 124 86 -19 -26 -42 18 4 -28 -55 -46 -37 -34 -39 -40 -41 2 -6 -29 27 34 30 50 7 50 -1 -16 -4 23 21 36 51 58 60 55 74 75 155 174 164 154 142 116 99 95
102 75 59 -13 -27 -47 9 -14 -35 -64 -58 -34 -61 -65 -44 -66 -30 -35 -1 24 38 45 32 6 15 19 34 36 33 23 33 41 46 27 42 46 64 139 138 136 128 128 130 118 106
73 21 57 10 -80 -17 28 -9 -39 -53 -55 -53 -47 -46 -56 -56 -46 -61 -58 17 32 40 22 30 26 19 46 50 41 25 26 34 51 62 86 91 101 126 132 137 154 165 155 147 133
80 59 1 -10 27 29 -22 4 -29 -60 -29 -36 -14 -34 -72 -47 -52 -5 37 84 31 0 -19 6 25 6 22 59 57 32 29 18 47 74 87 114 96 153 165 154 141 128 112 86 67

GFSSW_con_3kmhel_078.txt.gz
Helicity
143 118 89 70 73 61 48 51 64 72 65 89 60 68 51 49 39 45 67 43 41 56 70 70 93 131 160 152 155 208 209 100 100 130 40 -32 71 22 -22 82 117 190 158 207 293
194 177 116 78 92 103 103 66 62 101 70 85 67 50 48 45 50 53 59 33 52 86 100 82 88 98 150 155 184 238 249 126 179 135 56 2 72 77 44 29 126 190 274 211 258
136 194 216 97 124 119 105 88 61 87 94 85 79 73 83 62 64 51 54 46 82 108 104 93 74 123 161 143 182 211 190 141 164 112 102 61 73 59 116 67 104 137 182 246 257
44 200 282 155 175 152 108 95 69 96 68 83 92 93 109 82 119 34 60 86 76 93 93 103 125 162 193 201 169 229 109 116 134 148 67 62 116 105 107 57 118 86 227 267 308
76 62 292 282 142 150 85 122 85 74 63 88 82 98 118 104 103 68 92 95 127 109 120 134 145 142 179 159 154 160 97 152 63 165 122 58 65 148 90 52 95 97 190 237 279
57 32 210 301 185 123 113 111 99 96 43 84 90 158 129 109 58 55 53 106 88 87 92 99 95 94 94 106 110 144 50 50 111 158 60 90 64 85 47 95 125 114 130 162 243
73 106 141 250 167 142 120 108 81 101 26 58 107 133 112 81 75 84 99 72 70 90 107 96 99 112 135 74 79 89 95 105 86 141 86 63 114 26 47 88 170 169 93 134 149
180 155 147 226 191 160 95 79 94 116 -10 35 112 141 83 70 34 25 78 47 47 65 79 70 75 92 130 115 103 80 87 54 42 97 82 71 -18 13 34 63 229 230 198 88 142
138 168 125 203 175 162 97 82 76 83 -7 82 162 120 53 28 74 53 108 97 83 84 63 63 83 67 72 99 37 129 41 45 26 67 106 39 -52 143 87 113 229 206 228 173 85
193 132 72 211 170 181 122 86 38 151 63 124 119 84 64 79 59 60 73 76 79 53 29 18 16 53 6 77 56 13 45 27 71 93 12 31 34 92 132 177 273 256 280 222 128
143 183 54 243 250 129 139 161 87 158 90 107 83 72 62 51 41 59 54 89 63 37 -4 -6 -11 30 6 -29 16 -9 44 44 128 121 33 44 126 149 115 130 255 376 336 265 161
77 263 80 240 198 139 118 186 73 88 87 41 53 43 36 55 45 83 73 74 27 31 18 7 33 22 25 -6 1 123 95 84 167 110 129 47 -10 -62 132 78 107 197 272 278 179
43 224 74 253 184 177 92 78 100 27 138 106 52 39 36 75 38 56 81 36 35 39 57 33 29 27 60 13 71 103 105 81 79 138 107 21 -146 171 147 95 65 153 207 225 201
90 139 75 218 150 87 82 48 60 19 165 113 33 3 32 13 34 64 47 38 6 29 28 43 -1 17 42 11 128 104 110 88 47 137 62 46 31 7 97 6 3 41 198 191 169
39 177 125 242 130 154 153 96 57 26 122 52 32 3 16 30 43 37 24 30 66 7 40 10 10 45 117 61 138 132 104 96 62 100 76 23 35 31 74 40 -4 24 181 134 140
46 314 109 235 194 170 78 89 50 90 109 70 35 -1 8 35 39 41 47 56 45 110 88 86 75 51 36 48 67 55 160 178 146 90 7 -39 57 17 59 90 61 23 82 80 82
-14 163 116 184 125 115 57 48 -24 89 71 52 34 -10 -3 19 28 42 28 48 59 46 26 15 53 39 63 56 91 65 93 67 56 52 85 37 65 58 39 20 24 13 7 88 92
136 153 101 129 184 96 21 -15 -128 98 81 35 36 -37 -16 6 23 31 45 65 69 60 35 37 52 54 29 65 50 93 52 32 57 32 60 88 118 109 55 39 49 47 96 119 126
27 122 128 80 116 22 -5 -164 7 86 49 48 3 -52 6 22 16 43 74 82 59 15 39 57 60 76 80 91 30 38 15 76 66 52 15 24 120 61 76 133 131 124 169 209 209
185 191 124 89 26 26 -28 -57 59 23 19 18 -38 -0 -16 17 47 44 44 51 39 57 64 94 99 136 93 85 80 42 -0 27 -3 33 33 42 42 136 71 74 102 134 199 242 233
126 67 50 81 34 5 -102 -12 24 -12 -22 -9 -13 -1 34 40 49 37 47 32 45 94 83 59 23 59 41 61 86 82 71 64 10 7 -11 -12 -5 31 48 36 61 133 159 178 195
72 54 81 51 -0 -40 -61 3 9 -21 4 10 9 9 37 40 19 12 14 37 63 68 44 62 40 40 52 63 69 27 33 11 28 30 36 20 13 66 38 78 73 99 122 141 160
50 107 123 66 -26 -44 22 -1 26 -17 -5 -2 -30 24 35 25 27 31 32 55 60 16 28 42 21 30 41 31 26 37 55 42 34 39 58 44 43 98 109 115 119 116 124 119 115
75 74 64 38 15 -14 -15 -10 10 -4 -20 -25 -19 24 20 8 43 12 14 38 56 59 61 12 37 29 54 30 22 9 17 34 26 32 26 43 51 69 117 131 132 150 144 130 113
48 80 51 -33 -36 -8 -30 12 -3 -9 -19 -21 -55 -30 -29 -37 -7 -13 20 18 38 58 24 8 56 45 38 27 27 27 13 8 21 15 14 9 25 22 41 89 130 121 106 114 104
37 33 44 40 -30 -56 -29 -4 -23 -8 -12 -34 -88 -36 -38 -72 -21 -35 -36 -2 20 34 18 27 52 32 32 33 24 -0 11 2 17 35 52 67 60 76 132 145 138 129 130 122 99
62 21 31 1 -15 -55 4 15 -29 -30 5 -6 -26 -59 -78 -57 -51 -22 7 16 -2 8 8 1 20 18 42 19 11 14 7 -9 -22 4 49 18 53 116 127 131 129 137 136 120 124

GFSSW_con_3kmhel_081.txt.gz
Helicity
41 70 73 98 121 61 85 116 93 87 94 84 34 39 65 70 67 79 66 35 44 41 80 77 92 118 134 150 129 152 229 162 161 118 82 87 39 37 80 82 60 104 66 59 309
50 20 63 90 156 89 98 99 91 96 119 82 83 42 57 94 72 95 41 41 34 57 92 83 96 110 153 161 171 181 240 166 167 109 100 129 78 54 88 67 76 124 59 92 282
94 64 56 137 138 118 134 107 85 90 116 74 102 111 62 113 75 64 62 43 81 117 100 79 58 88 135 133 176 194 133 116 154 184 130 59 19 38 67 56 69 61 15 108 214
103 110 71 29 171 170 150 120 82 80 120 95 104 132 116 88 77 47 42 80 112 102 108 123 145 161 149 148 118 159 57 74 59 114 148 118 61 78 87 45 9 -1 -14 128 233
117 113 96 143 126 203 196 83 100 78 95 125 102 131 81 126 65 71 69 97 133 107 118 141 162 171 174 150 105 132 40 69 53 67 89 126 93 77 71 111 78 68 -32 58 187
211 180 131 138 101 190 177 140 93 97 117 137 109 157 80 90 72 57 61 114 122 121 131 126 118 122 136 127 134 124 81 51 52 86 99 133 49 71 15 58 114 86 59 80 187
115 135 169 225 143 159 172 132 145 77 123 115 118 126 64 52 81 78 62 67 93 101 117 92 92 107 127 84 99 62 71 83 58 32 79 168 57 40 50 56 142 108 4 69 187
120 155 244 214 100 210 176 156 54 102 93 85 110 119 56 55 67 49 63 56 64 72 105 84 79 72 86 85 72 44 75 76 24 29 88 138 38 35 19 59 76 127 -19 38 129
102 120 202 188 134 206 181 129 93 87 59 84 169 112 34 26 76 49 82 76 67 70 78 65 55 61 49 43 29 66 97 55 48 41 73 86 28 1 58 24 73 63 12 80 61
99 107 117 273 175 243 193 145 107 109 114 133 140 82 26 72 86 68 71 75 75 90 80 36 15 23 29 60 77 90 50 30 30 34 44 51 67 5 31 15 82 92 60 110 169
78 99 104 70 208 206 220 104 118 160 85 81 88 43 53 59 70 58 61 90 81 77 30 35 15 3 88 39 11 -39 17 5 42 84 51 18 74 1 115 29 22 89 153 209 212
73 95 129 32 162 193 194 128 99 95 34 17 65 25 6 50 52 52 58 67 61 45 58 76 132 100 56 88 63 64 43 11 9 79 37 25 35 23 -45 124 133 65 175 204 273
67 80 123 170 173 122 110 77 58 -9 48 49 70 34 22 65 36 64 86 56 66 76 122 131 62 -18 77 45 22 72 71 -35 88 84 108 44 -19 -79 -1 -16 -12 127 99 182 237
56 61 97 121 149 89 80 18 40 38 167 64 23 13 44 33 41 66 61 51 54 45 48 42 6 53 17 30 71 75 23 99 20 86 125 157 14 -40 -6 29 47 91 84 135 175
48 71 119 119 96 93 77 134 45 20 27 32 13 18 18 17 39 48 63 77 114 43 34 51 33 28 18 219 156 90 14 30 50 83 32 118 13 5 -72 76 65 47 49 107 155
62 44 35 94 199 143 142 113 47 129 32 10 14 23 25 5 12 40 71 72 57 93 45 86 62 74 129 142 98 102 62 99 51 51 51 56 42 -1 29 135 153 71 -22 110 95
80 41 -15 103 119 126 137 182 122 12 13 -7 -2 9 8 -6 11 38 56 96 52 36 58 53 52 63 45 93 66 59 40 76 50 72 66 44 3 33 55 29 37 56 45 110 147
37 174 9 59 81 141 172 136 5 -67 -29 -23 31 -12 8 4 22 61 59 57 54 26 47 52 84 62 25 64 47 51 5 69 76 76 69 41 43 69 61 25 27 85 134 225 175
-21 39 10 106 122 154 248 41 -31 -77 -37 12 18 7 18 13 29 29 53 51 6 25 39 58 59 62 65 41 46 22 48 52 45 73 52 62 69 82 99 99 113 133 152 172 167
149 81 113 146 131 160 120 -81 -64 -49 -29 -14 18 30 14 31 36 18 29 40 29 61 74 144 82 85 69 43 120 111 101 55 34 57 43 62 88 103 103 92 87 166 194 211 276
170 125 85 107 158 123 13 -13 -76 -57 -28 37 37 25 32 34 34 19 61 82 92 85 75 82 34 59 62 35 28 28 19 33 -19 -34 -39 12 2 35 -14 3 46 100 151 144 176
132 83 55 70 77 23 -33 -81 -27 -20 81 50 35 51 37 39 42 48 30 51 73 82 58 71 41 22 52 68 56 52 63 50 -20 -6 -5 -15 -50 37 -23 9 30 84 110 139 167
145 101 80 132 35 -27 -3 49 63 54 55 58 40 55 40 27 35 24 22 64 57 26 45 43 40 31 34 34 19 15 34 20 21 27 9 -9 -6 60 67 87 75 78 100 136 153
97 25 50 42 37 -20 21 41 26 64 45 40 48 56 45 36 39 47 47 49 62 38 26 15 35 62 83 14 7 11 18 16 5 4 1 19 18 28 49 73 78 94 111 131 148
72 91 33 -28 10 28 33 37 21 19 34 61 34 36 20 17 40 42 42 44 43 43 22 21 59 48 33 31 15 -5 -8 -4 -5 -15 10 -6 3 -19 14 45 58 80 100 124 139
54 62 49 7 1 10 26 28 3 30 20 14 -23 30 10 -13 6 16 10 8 25 37 30 40 66 55 46 48 36 13 8 3 4 4 11 14 22 31 49 89 121 130 132 136 126
35 54 45 37 31 16 19 79 7 5 28 15 -16 -15 -28 -15 -24 -39 -30 -21 -6 18 33 20 25 31 55 34 23 13 12 1 -9 11 16 -18 42 55 90 104 97 101 100 85 89

GFSSW_con_3kmhel_084.txt.gz
Helicity
93 75 35 25 26 22 68 28 60 44 43 68 55 72 89 68 38 33 23 73 77 62 80 68 70 91 104 120 95 138 242 291 189 117 110 47 64 42 49 54 89 166 134 111 43
79 82 95 68 46 52 90 31 99 53 46 64 70 73 117 114 53 32 33 38 68 83 75 70 80 81 122 120 141 157 219 205 111 115 121 97 65 59 54 42 74 86 119 138 16
140 121 120 108 59 36 90 63 112 70 60 64 63 90 125 113 78 73 20 33 63 112 98 80 66 80 111 135 131 151 159 117 144 180 197 127 98 58 37 28 76 75 86 69 11
213 163 145 137 124 135 116 112 109 66 68 71 91 117 150 105 117 87 16 64 103 98 93 92 89 89 120 130 95 156 104 97 93 109 167 112 137 142 97 107 93 178 110 80 48
115 138 133 139 129 98 102 165 112 85 67 123 71 118 125 125 118 81 42 80 102 111 137 135 116 129 133 137 113 94 70 81 72 84 80 107 78 93 92 108 91 87 114 81 69
118 111 102 103 108 124 154 166 143 100 107 102 126 137 119 76 106 58 36 85 95 100 121 113 129 138 145 131 145 188 124 91 74 45 33 86 89 135 35 75 70 74 75 -33 74
109 100 79 113 241 87 163 183 131 103 92 87 117 108 86 65 89 57 39 45 65 88 103 83 84 89 131 113 96 105 146 117 75 46 9 15 61 51 45 74 55 65 92 64 11
93 89 92 104 147 250 159 197 133 104 109 128 116 82 73 69 71 23 20 44 78 83 63 51 52 51 55 62 60 64 78 137 49 40 39 24 37 39 38 53 58 62 85 69 44
96 94 97 88 48 122 209 181 135 119 106 91 81 95 89 50 61 22 19 40 75 68 60 48 39 15 35 42 19 56 30 32 38 40 40 35 71 56 101 64 31 31 55 61 78
91 78 98 103 132 167 210 178 116 118 55 82 126 95 61 74 69 55 37 32 64 83 59 55 49 19 6 32 -2 9 25 10 10 27 10 35 61 126 76 52 28 28 29 25 22
45 57 85 138 23 245 244 162 108 112 68 90 64 112 91 73 55 49 65 68 65 64 39 55 51 63 38 50 44 20 -3 2 -6 33 47 26 43 62 83 111 47 37 37 18 -77
19 47 70 50 139 154 163 119 107 72 88 44 24 29 70 55 32 55 60 52 50 35 58 71 71 85 59 87 72 67 91 42 73 67 43 42 62 80 89 82 101 73 56 -4 -118
10 45 62 31 110 193 108 66 70 62 37 48 24 53 45 45 21 54 65 50 52 51 63 77 61 33 57 97 90 98 115 51 53 47 33 35 83 82 94 6 7 59 78 126 44
40 36 58 97 79 79 44 22 42 4 64 62 93 52 41 31 17 57 55 33 56 32 14 37 39 69 22 64 95 87 133 60 71 46 42 59 78 89 27 -3 -57 -17 3 82 111
19 21 43 58 40 60 45 10 98 88 -12 50 63 36 26 13 34 46 39 35 27 49 -20 33 24 27 117 126 92 75 159 121 15 57 34 57 63 2 -28 -68 -118 -7 69 6 23
-4 36 46 32 53 30 41 102 97 34 14 65 49 16 2 9 5 31 57 83 51 26 51 74 75 98 105 124 64 35 41 42 36 16 86 79 80 27 54 21 41 9 93 -9 46
-1 22 38 -9 30 58 133 118 50 40 50 42 13 -25 -17 26 26 54 85 81 50 52 58 55 61 98 98 81 53 72 77 21 43 81 44 71 93 41 66 101 93 90 76 40 116
6 -11 -7 14 42 49 144 119 38 32 -15 -15 -15 -34 25 24 32 48 58 27 31 34 53 46 81 24 28 30 40 2 72 68 59 85 69 102 47 51 58 25 61 95 95 78 144
-22 -5 -65 73 31 91 172 88 20 -18 -51 -17 -28 -65 5 28 37 37 20 22 25 79 71 65 66 49 39 16 17 17 70 115 45 58 63 55 71 130 41 60 79 70 114 168 179
59 120 95 34 57 100 103 45 57 16 -53 -39 -84 35 35 31 37 24 10 26 32 30 17 56 60 57 27 34 75 102 110 94 13 21 40 28 22 34 67 47 39 53 103 108 189
185 228 86 80 125 69 78 65 59 -21 62 84 51 35 30 42 43 37 55 91 93 149 117 91 74 55 84 67 127 150 111 77 32 -32 -14 -13 26 42 34 7 45 58 83 110 197
193 173 111 144 67 25 27 136 58 -15 88 63 51 50 47 52 34 55 55 55 64 68 54 45 44 43 56 86 106 163 124 94 32 -9 -4 -48 -60 12 5 26 23 58 61 76 106
170 123 85 115 -7 25 66 61 108 91 84 61 72 54 52 57 21 35 57 52 55 53 47 43 28 51 47 43 21 53 68 68 45 13 29 8 -33 -5 -1 -2 23 54 66 67 78
15 -15 11 58 57 59 69 124 79 90 84 59 65 56 62 30 34 35 43 37 46 42 30 43 44 52 72 47 43 59 31 51 55 36 48 65 13 -9 2 23 50 56 67 83 101
23 22 6 30 37 13 67 98 53 85 98 84 75 64 59 54 64 49 45 43 41 42 27 42 68 53 29 35 33 24 31 10 -19 36 -20 22 18 7 11 37 42 43 58 77 98
38 33 9 35 32 42 68 62 54 81 99 87 46 61 45 28 46 42 46 43 66 56 56 42 76 52 54 25 31 31 22 8 9 7 16 14 35 7 36 43 50 67 81 96 111
51 56 23 5 27 44 28 70 43 84 69 69 54 18 -10 25 22 17 1 -3 13 33 29 27 38 39 47 14 17 7 15 17 8 -6 -1 -15 -21 38 48 57 74 91 103 108 108

GFSSW_con_3kmhel_087.txt.gz
Helicity
138 162 117 120 95 88 38 25 26 49 46 21 42 10 11 27 16 32 37 133 127 82 38 40 43 72 77 74 71 105 184 135 114 118 104 51 46 32 35 34 31 12 -6 52 66
170 172 170 175 181 152 110 41 45 78 55 36 43 25 14 26 -1 43 147 87 87 58 27 32 43 61 71 87 121 118 159 111 110 94 104 47 66 41 19 46 52 68 23 39 41
198 232 202 142 163 161 114 26 85 101 62 54 62 50 12 -8 0 125 68 43 37 31 45 42 58 62 77 94 101 115 113 150 126 80 168 243 236 151 66 69 45 51 41 34 59
134 141 131 119 93 144 126 157 107 124 86 56 67 48 8 -3 73 157 100 67 94 40 55 67 60 61 90 101 64 108 113 136 130 172 165 139 150 158 176 92 24 64 111 150 51
145 133 131 128 139 115 132 119 149 113 100 68 74 54 -17 35 103 146 96 99 92 67 73 78 75 91 96 128 133 135 116 114 134 145 178 190 132 127 137 119 69 60 67 101 128
108 107 112 115 127 109 146 74 150 131 146 71 68 42 -1 43 160 98 86 71 57 53 64 66 104 114 106 110 132 148 221 203 172 146 147 135 111 103 66 68 103 130 105 79 132
84 131 106 105 124 100 178 46 172 158 112 91 54 21 38 114 106 98 80 57 61 39 52 75 84 81 138 97 100 116 140 110 85 64 58 55 100 91 60 86 94 60 64 58 103
56 80 119 105 119 69 145 109 188 170 98 77 30 38 60 109 60 51 57 73 49 39 56 70 65 54 61 77 70 49 58 96 63 38 38 54 136 88 42 51 52 70 67 72 98
23 55 94 114 116 114 104 217 194 130 101 56 47 30 87 105 62 32 56 57 36 32 35 40 55 18 37 -7 -22 12 0 6 22 25 72 73 107 64 68 84 47 51 58 69 61
15 38 62 113 166 78 281 215 167 70 72 58 43 55 75 75 63 84 55 35 48 34 35 44 53 30 22 44 -23 -27 0 -22 -14 26 20 39 48 58 124 1 72 54 55 56 68
5 37 39 71 287 90 254 185 27 85 106 92 56 104 73 90 59 58 58 60 39 37 54 76 68 35 24 29 42 5 -17 -37 -15 0 49 66 22 82 81 102 93 50 80 68 74
5 21 37 60 87 65 173 132 95 65 75 18 98 65 105 45 54 56 39 52 43 40 87 90 45 34 58 53 77 91 39 -15 8 23 43 19 17 46 26 60 86 91 82 49 50
23 31 22 68 27 139 89 75 84 138 67 27 10 67 66 27 29 53 28 34 34 28 60 76 44 12 36 55 77 114 140 87 69 16 17 6 2 26 24 57 38 56 70 44 76
-4 6 32 86 48 68 71 70 40 77 68 57 53 60 37 13 27 45 27 25 22 5 17 76 15 23 38 90 111 262 214 195 64 10 15 20 -2 42 45 89 20 26 26 14 28
6 8 26 32 57 47 17 7 11 55 91 38 66 40 23 18 38 24 19 17 8 19 23 10 19 30 80 70 81 192 91 9 43 66 20 35 27 45 58 47 8 -19 -1 -6 61
22 35 12 6 17 28 15 17 36 61 102 48 35 12 18 -4 25 37 15 48 42 22 62 109 75 64 86 109 97 41 14 -8 -9 -18 51 47 76 38 38 63 41 30 7 -4 45
30 139 13 3 9 14 24 69 78 100 12 35 10 -8 -13 5 13 12 37 76 51 72 52 36 57 56 66 102 85 84 61 65 85 32 22 -6 33 89 70 57 57 55 -46 36 181
51 23 12 32 -11 15 50 80 102 0 51 70 -8 -24 -17 -6 19 55 38 30 44 35 54 47 18 14 1 30 58 87 39 30 60 60 24 25 45 55 34 14 19 97 118 125 260
-16 -1 2 15 19 46 76 52 -6 60 70 38 16 -23 28 34 39 64 37 9 1 38 47 45 34 6 -42 5 7 50 33 101 111 71 96 83 55 -8 62 111 107 142 147 123 235
64 14 0 9 16 53 38 12 95 102 64 48 26 47 21 46 56 53 18 4 48 43 37 38 44 0 7 8 8 92 109 116 158 81 46 41 42 31 29 65 25 53 133 125 171
127 123 46 16 86 83 80 103 106 90 71 86 26 28 22 35 64 38 36 90 89 72 65 59 87 137 105 140 177 167 99 157 168 66 59 35 41 69 78 14 25 64 115 170 182
156 85 71 72 50 57 99 95 147 89 77 44 41 38 46 56 57 44 49 57 33 26 57 40 55 62 73 78 117 116 152 113 45 -10 41 2 21 32 17 -13 -8 24 31 82 76
114 42 71 61 -15 38 190 74 90 134 71 84 53 45 52 56 66 38 52 58 48 45 29 25 47 83 59 52 25 90 102 117 79 89 34 -13 -26 -12 -8 -6 -4 2 0 10 23
52 19 -6 64 46 125 99 138 109 98 57 57 48 39 56 30 34 37 40 50 56 57 42 47 35 46 41 37 45 56 61 62 44 31 14 39 1 6 16 7 9 15 21 24 26
-2 31 29 11 51 43 59 116 47 73 90 80 53 42 66 48 29 36 46 62 50 38 37 54 68 37 23 26 15 21 24 24 34 28 8 7 10 4 14 41 48 46 48 52 56
45 27 41 30 40 40 68 63 46 63 95 43 31 48 53 26 38 37 54 72 82 71 49 43 62 46 66 11 24 35 11 11 6 14 -1 11 21 14 42 51 38 54 60 61 64
40 19 32 35 30 42 33 49 39 84 41 37 53 24 14 23 29 20 12 13 26 56 54 46 40 34 40 14 24 21 3 6 2 -5 14 -9 -13 14 9 -7 4 40 58 80 85

GFSSW_con_3kmhel_090.txt.gz
Helicity
188 252 198 212 156 150 161 93 58 33 27 27 12 2 3 -10 -12 -6 -17 83 137 71 35 41 64 48 72 87 77 131 212 180 133 160 159 97 130 70 67 67 53 38 64 73 -7
165 180 209 192 186 168 178 164 121 57 51 50 16 -4 2 -4 -20 -39 101 56 63 55 49 88 109 77 120 115 128 124 160 124 99 111 125 94 78 100 132 95 109 87 60 66 54
109 170 164 158 98 119 157 154 197 51 111 73 37 7 -5 -11 8 97 61 49 39 26 47 74 90 128 105 88 105 121 97 78 122 128 134 159 142 128 211 256 194 62 67 77 72
71 107 124 124 164 114 70 156 178 167 109 79 54 32 22 -2 94 93 102 56 46 41 56 80 91 122 135 118 75 98 89 113 121 147 186 239 232 217 211 204 125 136 187 110 141
88 90 137 113 109 119 145 106 120 154 131 101 62 26 21 17 57 138 96 72 44 43 76 106 95 95 116 126 132 130 98 88 116 156 170 187 238 216 183 107 163 163 93 211 130
48 73 101 108 106 122 136 136 93 84 133 85 40 71 36 17 185 97 52 41 40 47 73 80 115 124 116 103 128 142 172 145 166 208 218 192 186 226 140 116 128 156 129 70 153
20 46 47 92 77 117 96 104 261 111 129 92 54 48 32 118 111 111 64 32 47 47 64 60 58 67 98 70 100 121 101 97 106 77 73 62 98 115 121 99 89 142 91 137 137
7 28 59 98 113 119 115 90 101 196 136 96 51 47 72 155 99 78 59 59 62 66 82 100 51 54 75 52 34 25 31 73 37 21 51 60 73 88 66 88 95 72 85 128 128
23 23 58 88 146 210 79 71 212 189 139 75 86 45 45 56 85 56 48 59 58 57 51 42 51 62 92 75 36 39 -14 -28 -30 14 39 47 71 47 62 66 77 116 66 73 146
21 21 37 78 155 323 112 233 194 192 117 87 110 43 49 42 65 49 45 55 47 45 49 60 74 96 101 120 54 20 5 -38 -37 11 50 50 33 36 12 89 137 47 93 75 64
26 16 28 57 83 190 167 209 122 128 210 187 39 114 55 103 62 51 50 41 58 49 55 100 82 73 64 92 93 68 9 -31 -36 -4 34 10 -15 -7 31 15 98 94 52 63 76
19 31 16 53 32 119 76 162 153 49 58 106 79 141 90 43 66 52 28 28 50 57 48 63 38 58 44 46 55 90 89 114 52 39 36 14 -6 16 30 67 54 83 74 139 174
24 37 44 48 87 15 85 94 167 128 107 67 109 92 67 45 32 47 10 35 39 21 29 21 23 -19 6 69 130 176 263 265 190 4 -24 2 -7 21 14 15 60 38 88 113 112
37 7 29 92 38 54 90 50 73 118 80 62 29 48 52 28 24 44 2 31 26 20 19 19 9 20 72 116 133 188 113 202 169 53 -21 49 -6 57 -23 40 69 56 47 53 86
11 -4 11 35 35 59 -0 70 90 82 92 18 54 38 47 32 33 15 4 5 3 39 41 -2 2 46 120 84 37 135 86 60 52 36 33 3 40 33 20 22 69 33 27 75 111
-1 33 10 38 29 25 13 23 32 96 117 40 61 40 19 -6 17 24 19 42 36 21 25 121 35 25 96 97 110 65 47 36 63 74 107 51 -6 -5 -1 36 33 19 68 195 134
50 23 33 71 75 10 -9 104 81 150 13 41 22 -7 -7 -3 11 6 -10 -11 14 35 38 59 45 62 68 77 64 75 102 95 93 93 35 59 63 -25 56 79 59 75 201 147 127
-1 -5 26 39 63 23 49 99 89 44 73 45 37 17 33 -6 -4 4 2 17 27 8 48 51 12 -10 -17 -0 56 65 21 27 72 86 106 -11 5 -12 136 10 35 120 262 199 159
32 60 57 35 54 66 94 40 92 83 109 75 23 31 37 31 18 40 48 42 45 83 49 39 35 -12 -15 -27 1 61 69 98 62 101 95 28 65 59 52 153 127 184 135 95 93
36 54 89 69 54 97 34 57 112 204 82 15 59 97 48 26 34 53 67 59 81 70 47 33 53 2 -0 47 152 166 176 92 191 103 100 119 142 97 56 47 177 175 155 131 146
85 131 117 89 65 69 138 139 204 128 107 119 56 53 27 27 53 47 48 87 63 59 57 88 54 52 59 107 129 155 185 229 126 175 122 108 172 147 38 22 9 79 107 132 131
93 61 101 43 92 188 135 90 125 135 104 68 80 48 59 60 51 53 56 56 32 24 57 98 101 158 108 86 93 129 172 110 74 130 100 40 109 103 46 19 -22 26 85 79 106
76 30 44 37 134 150 110 91 142 118 58 55 56 56 87 65 68 31 50 72 45 47 36 41 63 109 74 58 64 73 94 68 73 56 62 20 55 70 43 26 2 -26 -32 -4 7
53 -3 30 90 148 154 111 133 105 97 58 47 62 89 105 68 56 53 57 58 51 48 37 37 31 22 27 40 33 33 49 37 20 -11 -26 -31 -11 6 9 8 3 -0 -3 -15 -22
45 23 41 54 144 70 89 122 27 57 79 75 74 41 54 52 45 46 57 82 88 57 53 59 52 36 42 31 51 39 2 -35 38 56 2 24 16 14 20 23 23 24 15 22 28
60 37 64 44 74 34 79 3 -2 28 56 2 25 12 -0 16 27 23 58 55 66 73 48 56 76 59 63 30 30 23 12 15 20 65 20 62 54 74 69 65 39 44 52 56 51
39 18 6 14 35 -16 18 3 -16 29 -5 -1 60 15 -2 16 47 47 27 25 25 35 41 33 34 14 31 6 12 18 -1 7 11 -7 14 9 33 48 77 71 81 93 93 89 69

GFSSW_con_3kmhel_093.txt.gz
Helicity
112 161 206 227 200 204 152 138 119 113 55 36 7 5 5 9 7 15 21 7 51 38 25 34 70 73 105 117 151 210 236 232 189 157 102 101 181 20 -11 26 43 1 35 -75 -45
105 120 149 167 178 173 167 135 130 98 65 39 20 18 -0 2 6 12 7 25 25 28 44 46 86 42 134 166 198 246 213 178 167 127 150 147 87 99 61 123 125 104 304 216 -27
67 89 135 151 150 144 149 150 153 144 154 77 34 25 9 1 32 33 21 13 23 26 50 59 72 111 121 164 146 200 185 138 117 119 146 160 141 88 143 146 179 165 207 347 232
60 74 104 109 142 153 135 121 137 131 280 108 59 49 23 23 101 15 42 40 32 33 48 61 66 108 118 144 121 166 133 150 159 131 110 145 121 70 121 152 101 106 151 242 347
26 46 72 105 107 103 114 100 182 122 139 61 42 60 51 61 69 48 59 55 45 53 86 86 97 81 100 126 147 148 167 186 218 224 161 112 122 132 75 111 62 63 143 219 327
22 31 36 66 76 56 84 102 136 191 47 85 79 70 110 96 58 77 57 29 54 66 79 89 99 69 79 83 133 115 96 103 139 148 129 117 57 72 100 36 89 26 82 168 207
34 23 30 37 73 104 101 108 55 169 186 128 90 83 118 98 85 67 55 25 46 64 69 65 66 74 83 99 123 103 102 80 17 47 73 67 78 139 93 86 45 19 7 68 104
31 35 28 34 80 145 177 53 -6 74 80 90 44 131 148 135 69 68 56 69 77 86 92 72 62 47 79 82 120 96 111 79 23 37 56 123 79 72 70 91 87 97 47 23 41
38 25 28 31 54 198 174 36 50 134 158 106 124 170 98 106 62 55 66 69 60 73 60 37 46 48 79 108 95 89 82 47 14 39 57 69 137 71 52 41 26 61 104 129 128
35 22 25 43 14 158 73 212 203 203 162 182 138 57 32 36 61 46 17 49 43 44 56 39 66 83 87 121 68 82 79 81 52 79 43 -3 -26 -23 6 45 67 88 87 120 146
16 36 30 46 50 95 258 242 212 432 231 146 28 111 67 86 92 44 44 56 40 29 61 58 70 54 51 115 140 113 78 72 128 102 68 4 -51 -34 -7 -2 1 80 131 139 134
19 23 25 43 61 37 174 174 124 81 175 389 125 136 70 27 63 65 48 44 32 37 45 43 25 37 69 33 73 82 93 183 280 116 81 59 -28 -22 -1 4 4 24 68 117 120
-6 22 37 54 71 -52 48 159 169 54 176 119 154 51 40 33 37 46 15 30 22 16 -2 15 7 -30 -3 -30 51 88 173 235 235 128 109 134 17 65 67 49 -0 15 133 23 116
-4 3 54 74 18 -33 58 65 138 128 55 55 60 46 49 35 61 33 -10 22 24 18 6 18 5 17 -27 1 -4 124 69 126 125 74 100 124 -41 27 25 -7 -17 56 80 36 77
12 -5 23 48 27 9 55 53 114 99 103 55 54 30 33 53 33 20 10 1 14 24 55 -12 9 -1 16 44 83 133 35 72 40 114 56 95 108 94 41 -40 -0 35 31 41 77
7 14 43 51 61 40 73 68 145 88 29 53 66 45 43 24 15 10 6 10 18 -1 7 103 21 1 28 22 87 118 98 156 87 124 133 -1 55 -14 31 31 16 3 -0 98 98
67 62 78 88 62 43 70 96 114 92 60 38 51 16 2 -4 2 -7 -8 -26 -26 -14 44 21 -28 9 29 29 -17 14 89 94 119 103 131 61 18 -14 -28 18 10 37 -2 144 119
72 66 57 53 28 60 44 189 118 67 56 37 35 -10 -6 -26 -22 -14 -11 24 30 36 27 -5 11 1 -3 10 11 25 58 69 180 97 47 84 30 32 -76 -49 10 44 144 178 114
45 84 101 88 60 50 125 127 123 101 75 19 -10 -3 -11 -20 -19 54 73 63 36 70 32 28 32 29 -34 7 48 45 111 165 74 57 28 64 28 67 -42 53 20 35 87 86 105
89 109 148 151 69 50 123 169 157 198 86 82 105 77 44 67 60 82 79 59 57 35 -1 70 51 72 67 94 122 168 165 102 128 105 107 122 122 40 23 62 27 37 98 8 100
85 117 138 90 97 68 136 149 176 140 88 129 96 64 52 59 55 74 90 67 67 38 61 61 40 86 104 128 125 128 139 157 142 189 161 157 163 161 47 24 38 86 56 -11 86
51 54 109 187 74 120 123 132 135 135 112 65 61 54 60 66 69 69 70 45 54 38 59 99 98 111 110 92 94 105 194 136 99 98 67 100 168 143 73 25 9 35 -17 9 18
72 79 145 130 79 89 93 111 118 95 61 55 66 62 58 39 53 56 58 69 50 61 65 56 92 102 58 47 31 44 115 88 88 44 56 38 60 121 82 51 44 15 48 54 64
22 -0 96 103 110 66 88 106 105 111 86 68 73 76 83 78 69 73 82 81 68 61 64 65 47 52 78 79 70 53 68 74 43 50 55 29 33 58 54 35 23 37 44 44 48
-9 -20 73 43 74 91 88 71 44 48 80 42 47 30 42 51 73 70 81 77 75 67 70 78 74 60 72 67 59 34 38 48 78 53 31 15 11 54 58 27 17 17 11 1 4
-52 -55 19 51 36 32 13 7 15 38 20 45 33 1 2 35 38 45 54 54 76 70 68 48 73 41 35 26 17 27 10 10 31 59 21 20 27 29 35 51 36 39 39 37 31
-4 -14 -13 3 1 -20 18 2 -4 14 15 8 43 24 -4 24 43 80 67 58 48 41 38 27 20 -3 12 -7 -2 22 -3 -0 8 16 25 30 24 44 36 43 54 65 63 46 31

GFSSW_con_3kmhel_096.txt.gz
Helicity
42 70 73 120 162 200 176 181 142 62 27 43 27 31 34 39 36 37 44 30 38 47 46 75 86 91 89 121 138 143 170 144 152 114 117 102 117 75 92 142 122 79 178 234 279
49 54 50 65 96 126 140 149 135 138 140 24 39 48 39 40 33 45 18 18 35 33 73 104 109 86 123 133 119 158 168 101 128 154 114 90 105 98 67 159 151 110 150 279 327
15 51 66 99 60 73 117 123 102 146 154 80 52 59 46 52 54 37 26 28 20 32 62 71 90 92 109 109 109 150 138 120 131 114 133 96 69 79 64 50 134 158 203 216 291
32 31 39 64 87 85 90 109 90 183 150 41 86 56 56 61 147 43 20 1 29 47 81 90 96 110 111 85 111 123 93 108 114 151 143 117 67 33 59 51 44 106 78 103 256
42 30 41 38 58 67 60 54 96 104 163 128 51 50 124 118 85 25 31 44 73 92 100 99 115 102 90 79 93 91 92 118 141 128 138 119 104 101 16 45 24 25 67 87 153
26 28 42 31 21 42 61 59 76 110 154 84 114 84 101 100 52 42 59 58 75 91 105 103 86 85 79 78 94 91 69 59 66 70 110 119 62 125 77 30 -5 7 42 24 59
38 43 49 27 12 31 60 91 61 68 99 5 74 85 105 70 34 59 43 63 88 72 92 81 76 90 71 87 90 59 81 65 60 93 114 71 86 83 77 74 36 -15 -29 53 -9
37 35 14 35 21 33 99 105 75 -6 128 70 18 149 195 85 55 68 73 91 98 85 82 75 71 81 77 70 89 84 120 131 72 86 70 121 117 40 113 236 174 92 -5 -14 -37
29 32 34 32 30 56 133 148 4 0 112 162 212 153 177 94 86 60 71 82 94 70 53 38 64 80 79 74 71 67 103 78 74 55 99 159 94 54 21 60 182 233 177 96 30
5 15 20 28 26 65 328 80 52 116 260 171 220 131 67 53 78 57 68 77 73 61 55 49 74 72 70 68 27 27 15 72 77 130 167 114 23 10 26 24 4 49 155 235 176
12 17 28 28 52 -20 216 477 346 301 222 228 114 118 67 52 78 67 44 38 52 55 53 42 66 20 8 26 29 64 72 75 140 128 97 146 25 22 42 35 31 26 38 82 209
-17 12 42 36 -79 45 138 354 290 303 244 194 230 148 63 59 68 66 58 48 38 43 29 42 9 22 12 5 21 48 53 117 95 -41 21 49 76 95 72 57 50 24 9 24 101
7 4 17 32 -144 -43 140 157 280 312 316 255 99 99 94 40 65 36 31 20 23 13 6 1 6 33 18 35 42 -67 -9 51 66 -9 20 25 58 47 56 20 36 29 13 25 84
1 -10 30 12 -38 -47 88 75 96 264 242 200 148 118 79 69 77 21 -15 22 9 16 23 34 21 30 16 18 -49 -43 -19 -28 53 33 144 124 98 27 -12 13 21 20 28 46 72
-1 16 61 3 27 28 84 96 28 130 224 157 135 116 70 55 21 35 10 11 30 42 49 17 36 24 18 -49 -51 -7 36 -3 6 49 103 88 134 122 35 6 29 5 -7 45 51
25 62 46 68 53 39 -7 83 48 160 131 101 89 95 63 22 24 8 2 2 -13 3 21 42 25 -1 5 -35 56 43 -28 37 24 46 98 29 123 60 12 79 48 0 -7 29 62
57 54 33 76 107 68 80 29 92 104 78 71 57 19 27 12 7 -28 -25 -46 -43 -37 -10 24 23 23 21 -17 -67 -47 7 27 84 100 101 43 35 45 -33 -2 19 11 35 16 30
41 46 63 61 121 78 99 86 68 69 69 76 24 -5 2 -24 -29 -29 -27 -51 -14 13 37 30 27 2 -32 -34 -2 5 70 55 73 39 58 61 101 11 -27 -46 -94 -8 76 104 69
76 88 116 108 57 98 54 96 92 81 34 2 -12 -20 -49 -62 -31 -30 -11 44 63 81 62 56 13 -16 26 61 54 24 106 92 84 66 79 27 41 42 -48 -43 -46 6 53 57 51
107 111 110 111 114 119 155 134 111 70 31 -34 -29 -68 -78 -39 24 72 97 74 28 63 47 48 27 17 42 70 113 149 129 117 112 75 63 74 53 24 2 26 -23 -35 31 25 -9
76 59 112 105 127 141 194 137 116 102 106 132 84 54 59 79 67 77 62 49 52 44 63 48 35 59 31 52 85 112 118 141 132 137 121 150 166 63 34 15 -23 -72 -79 15 21
57 59 148 109 53 135 123 87 72 92 97 104 66 47 87 88 69 68 63 52 73 45 66 66 48 74 71 49 101 112 125 116 105 76 44 58 105 95 47 31 35 4 2 3 17
105 145 122 69 60 97 96 99 114 67 80 58 64 63 48 34 49 51 53 61 67 54 52 47 59 68 32 29 45 41 93 94 77 38 46 30 56 84 131 58 16 12 18 35 10
37 13 108 81 99 88 71 74 56 82 87 72 54 44 40 39 38 68 73 60 71 69 59 59 65 65 66 82 72 71 78 65 15 11 45 40 41 42 45 39 33 42 49 45 18
-12 0 24 10 66 66 73 48 39 32 49 17 14 36 59 51 48 52 73 58 64 57 62 65 70 63 68 68 49 50 46 47 10 18 12 22 34 33 39 49 39 32 21 4 1
-28 -3 12 30 64 19 5 7 9 36 22 37 26 34 22 54 69 75 62 42 50 36 40 35 42 32 27 16 6 33 8 12 11 2 -3 1 15 15 5 9 20 25 15 5 -2
-10 1 -15 5 -4 -11 3 -1 -8 12 4 3 21 17 7 20 38 50 46 40 48 23 23 24 11 -8 17 -25 -8 55 48 46 30 11 3 22 21 23 21 39 43 35 24 18 8

GFSSW_con_3kmhel_099.txt.gz
Helicity
49 59 50 61 91 105 165 98 114 94 86 7 37 55 59 59 61 70 68 65 64 79 79 88 112 121 123 128 126 114 162 104 100 90 76 108 105 122 79 80 142 166 181 201 271
40 33 46 50 98 102 130 102 72 130 101 119 40 77 59 66 68 81 50 56 72 89 103 115 130 122 144 136 132 169 159 91 94 112 102 59 58 59 64 86 50 161 226 202 214
33 34 40 36 45 59 102 96 101 102 132 71 68 37 85 75 94 84 46 54 50 69 85 85 93 107 139 130 140 141 130 100 88 69 73 59 62 59 62 27 86 74 176 221 214
51 34 40 36 26 55 20 73 103 84 142 107 35 97 81 96 140 92 65 40 49 65 78 94 107 125 130 137 136 126 97 108 91 91 76 74 71 86 98 129 38 31 59 160 195
53 38 45 43 34 24 47 43 65 61 123 135 64 102 70 130 115 43 35 43 71 92 108 114 145 121 133 118 112 96 90 99 90 64 69 75 87 128 122 125 52 -23 -7 79 143
45 73 47 48 51 26 27 34 55 60 152 145 102 125 135 165 67 62 67 74 83 97 119 122 115 111 120 109 103 78 65 55 57 57 88 84 95 172 175 145 103 49 -14 -1 76
33 45 62 39 45 33 24 63 81 60 109 184 56 128 78 112 67 71 73 84 77 73 114 111 98 117 92 99 80 75 69 53 55 65 94 123 125 200 95 102 107 96 80 -36 19
21 25 37 42 42 31 35 81 90 40 97 198 62 240 163 102 65 72 94 112 107 102 83 83 80 95 94 75 92 99 96 115 66 87 93 186 189 173 67 72 65 67 82 107 -14
17 22 38 29 36 38 62 148 83 36 88 57 215 284 183 90 68 70 71 75 75 79 85 67 80 90 96 87 96 106 86 85 60 53 112 142 136 166 184 149 106 51 47 73 90
9 -6 32 39 49 -9 210 72 75 87 154 161 126 89 113 106 98 87 69 71 77 82 81 87 94 92 92 89 67 51 66 53 92 21 111 105 173 113 58 109 109 97 66 37 70
6 16 19 18 -4 -103 125 125 213 330 251 152 121 59 71 94 99 99 66 74 71 83 66 73 92 58 29 44 39 51 75 93 120 89 103 107 173 125 118 112 64 95 78 41 24
1 0 20 -10 -50 -27 172 224 246 334 324 189 142 109 143 95 95 114 53 66 61 63 36 76 56 19 37 42 43 51 56 63 48 -39 54 54 136 76 13 37 82 73 79 57 36
-7 6 6 -21 -55 -40 254 355 270 297 279 307 332 93 82 61 76 54 24 28 45 47 43 52 17 53 64 60 62 92 135 106 90 -42 -12 31 54 23 92 28 10 19 53 58 29
20 31 36 14 53 92 217 236 303 311 259 206 215 175 75 42 59 28 14 39 50 56 45 34 38 38 49 48 95 86 52 28 48 -165 63 109 80 39 57 12 8 39 21 34 43
36 52 49 -17 129 78 124 342 314 167 195 130 159 129 78 43 13 28 15 33 42 44 64 46 51 61 42 37 90 39 83 -70 -25 -26 23 89 79 76 28 7 101 56 -12 11 23
7 43 51 61 94 43 73 68 217 146 128 77 100 59 34 47 45 31 36 30 15 45 38 48 35 20 33 -12 29 33 -53 -113 -55 -14 6 38 63 58 21 14 42 22 -35 29 37
10 11 50 67 110 89 37 102 144 112 145 98 38 66 68 56 47 22 -9 -15 -20 -24 0 5 5 17 18 -19 -78 -65 -88 -78 -8 -6 -7 54 78 75 -8 0 8 7 -19 -61 -19
53 55 90 66 125 67 56 106 133 147 81 83 72 72 57 38 7 -34 -17 -41 -14 -26 -40 -7 51 8 -14 -21 -19 -58 -115 -51 67 99 89 65 95 89 -46 -28 -21 -11 12 48 82
67 68 95 148 103 34 66 75 103 94 56 32 46 19 22 -22 -28 -33 -48 -29 53 78 52 42 35 25 66 73 35 -15 10 30 60 97 119 130 52 9 -85 -22 -25 -10 12 27 32
59 84 145 161 86 49 107 103 114 85 -20 13 -54 -51 -64 -36 -3 44 57 60 53 54 52 38 25 27 49 44 54 56 45 34 56 70 76 144 113 78 -9 3 -17 -33 1 25 26
46 56 165 160 180 125 119 103 68 45 50 66 58 33 57 64 59 54 71 76 68 65 67 51 36 59 31 39 34 26 42 43 75 74 89 147 105 66 55 7 0 -70 -16 36 54
87 74 187 142 62 141 116 92 92 82 111 70 57 47 59 53 60 74 90 74 82 53 63 58 46 53 48 47 27 65 69 64 51 56 75 69 89 44 46 64 21 -18 -13 -18 -34
81 122 135 61 55 119 106 85 88 46 42 46 45 40 38 50 73 70 60 52 68 43 48 42 36 37 28 33 30 19 24 26 51 31 30 40 37 49 49 26 30 37 33 33 32
36 24 74 49 86 72 55 56 32 61 52 36 22 25 32 34 31 61 50 43 66 67 64 60 46 51 60 67 46 30 24 -9 -3 21 18 23 25 27 22 21 31 22 20 14 22
28 52 50 35 61 37 39 36 34 22 36 15 33 33 63 54 44 52 51 46 51 38 43 34 29 53 63 68 41 56 39 -5 -11 -12 -14 25 11 19 30 36 32 28 20 11 9
43 37 21 39 50 19 7 2 -15 10 -7 16 18 32 23 35 36 39 36 27 26 22 25 21 17 15 28 29 53 53 50 12 6 -19 -28 -15 6 -5 13 12 18 22 22 17 20
30 12 12 7 -1 10 21 0 -7 1 5 -18 -9 -13 -19 -5 13 25 23 18 22 3 11 24 18 11 61 41 45 65 59 81 45 29 11 25 7 6 11 19 22 21 21 16 7

GFSSW_con_3kmhel_102.txt.gz
Helicity
59 68 77 115 130 182 121 128 127 95 101 47 31 57 60 69 60 62 62 56 65 72 65 65 112 112 116 124 120 118 146 87 83 86 74 90 86 55 38 28 63 92 112 162 233
98 56 53 68 60 88 136 132 105 142 154 93 155 47 65 79 79 84 56 56 68 75 89 88 110 112 125 126 133 144 124 57 85 91 75 64 54 63 55 42 21 35 100 138 181
68 53 51 44 44 26 65 133 81 111 165 129 58 91 90 94 100 110 56 59 73 98 97 97 103 120 136 123 132 102 99 101 99 92 110 81 75 45 79 56 30 37 4 104 109
38 94 82 130 45 30 18 44 102 75 132 209 113 132 64 118 159 108 78 62 75 85 106 126 135 150 151 143 133 122 111 120 102 115 97 86 57 77 106 115 88 84 41 -9 103
38 68 69 33 39 31 23 63 53 102 134 222 56 91 118 158 154 103 103 90 101 112 114 107 146 131 139 122 120 123 124 116 83 65 73 76 94 118 123 88 94 99 92 73 31
18 33 18 36 34 47 21 9 41 100 122 229 56 103 118 148 126 67 69 93 96 103 124 118 103 97 113 116 122 95 89 76 58 72 75 91 101 125 127 83 111 88 87 103 84
11 30 32 -0 23 39 31 12 51 67 129 200 125 293 210 222 109 89 89 79 76 68 105 103 79 105 93 105 98 80 92 78 75 68 62 59 111 140 47 23 37 45 68 75 70
-0 25 25 40 26 19 23 24 59 76 126 157 139 278 188 133 85 112 89 116 88 81 63 81 93 99 110 84 100 86 65 109 58 92 83 102 123 95 27 49 57 88 77 102 109
10 23 23 17 37 22 36 82 85 86 148 144 249 175 164 100 98 82 76 56 72 89 89 82 84 91 102 95 104 118 74 63 90 45 72 78 135 122 91 89 93 98 103 82 94
-3 8 7 9 6 45 135 66 36 64 144 203 161 46 79 123 76 52 43 55 64 74 89 100 95 92 94 96 66 58 59 70 113 57 64 72 127 90 115 143 91 98 85 98 98
-6 4 -7 -12 7 40 136 174 162 250 213 161 85 84 155 140 88 71 42 53 65 83 75 81 85 66 45 43 50 56 65 97 128 64 60 34 109 123 109 62 42 60 54 98 114
20 19 -10 -32 -31 -13 100 153 154 339 249 175 120 51 82 114 127 124 66 70 68 60 55 84 64 36 43 40 43 51 76 96 50 14 59 66 86 49 -37 -17 7 8 9 78 99
45 41 37 6 79 146 165 213 174 106 255 236 178 240 133 84 108 92 75 64 54 50 47 58 47 53 36 37 58 75 120 129 84 53 74 17 52 -24 62 52 88 70 90 59 52
45 13 61 41 34 195 199 75 320 200 237 202 147 74 122 64 78 52 46 38 46 49 52 45 48 45 36 45 80 74 22 23 54 66 60 77 115 59 50 50 80 109 100 22 32
51 42 24 22 53 181 131 265 176 97 252 117 125 97 69 45 16 45 35 26 38 44 59 40 49 45 38 34 44 13 61 79 63 -85 -61 -25 23 56 18 -40 -33 -14 -24 -19 -88
74 54 43 108 92 96 172 166 109 127 116 88 121 75 49 51 35 3 7 17 6 39 63 63 47 35 15 16 94 38 -29 -63 -23 -47 -26 12 -34 92 -3 -12 30 38 -8 -20 -47
48 49 66 34 75 84 116 29 102 42 112 73 63 75 47 11 -7 -7 -4 -0 27 54 104 95 52 8 31 14 -40 -54 -49 -119 -59 -47 58 148 103 18 17 -30 10 32 -4 -8 -59
52 55 69 36 61 106 90 24 31 90 49 59 50 35 5 11 -1 -10 -13 -16 -2 -0 -14 -12 -7 -3 -7 -20 -43 -63 -88 -70 -6 49 64 125 81 102 -11 -25 -1 -10 9 60 59
59 76 73 66 32 61 -1 46 92 63 50 35 49 51 44 13 -25 -6 -3 -32 -11 8 -13 20 44 32 68 48 -3 -21 -22 -18 32 40 55 102 126 164 -4 -32 -14 -10 1 65 49
64 81 151 110 52 65 104 94 76 59 19 50 56 48 45 18 16 43 42 48 38 42 27 32 31 51 40 26 9 12 -35 -14 -18 -5 40 105 138 148 45 41 3 -62 12 32 103
92 124 201 128 120 117 171 104 67 46 65 78 80 58 53 55 36 48 50 68 61 48 52 53 55 50 19 49 -4 -18 -33 -23 35 24 39 97 129 79 82 64 34 -35 -32 -26 11
92 74 167 63 53 108 103 87 80 88 95 69 65 52 58 55 58 51 80 86 79 58 69 70 52 59 45 42 36 34 -19 -70 -30 29 63 90 90 30 35 44 70 49 28 6 1
74 101 136 35 49 100 92 77 70 51 51 57 52 46 44 54 60 81 77 40 85 79 72 71 53 33 18 23 -3 -41 -39 -27 1 64 54 81 76 28 23 3 19 14 13 35 59
70 51 64 45 63 59 51 62 33 45 40 31 27 23 34 50 71 74 61 49 75 72 64 56 52 67 59 35 23 8 -45 -25 8 -55 -14 54 56 64 47 38 13 14 18 32 53
43 64 66 42 43 27 31 38 26 15 21 -1 17 4 31 33 31 31 22 23 23 24 27 32 44 54 58 93 93 88 41 2 -11 -16 -4 -28 63 59 64 51 33 7 5 17 26
34 43 21 31 37 17 12 11 10 27 19 21 10 23 12 28 29 24 14 31 32 27 44 53 55 42 51 17 54 89 73 42 39 16 10 9 2 15 27 29 30 18 8 10 14
16 13 16 23 19 20 34 28 21 14 15 8 8 7 13 15 26 37 46 37 49 48 57 77 66 41 93 11 29 46 66 107 89 85 81 85 45 36 44 37 29 32 27 20 28

GFSSW_con_3kmhel_105.txt.gz
Helicity
95 71 45 59 56 109 91 61 66 83 66 69 68 83 76 81 85 97 110 60 56 54 50 59 96 100 104 108 104 93 118 88 69 62 78 74 87 47 44 50 68 68 63 71 113
41 -0 48 60 53 42 74 57 25 71 52 6 79 88 80 82 132 147 100 59 70 67 70 79 110 119 130 119 112 108 101 67 83 83 78 77 60 63 55 59 57 52 53 43 58
20 45 71 61 68 58 43 33 30 63 175 178 139 77 76 91 179 176 104 60 70 79 77 83 102 119 147 142 133 97 87 75 81 80 102 85 82 67 78 64 70 82 70 80 73
9 49 50 86 91 80 63 58 63 7 121 201 83 121 166 152 224 128 77 47 65 72 82 90 105 125 126 126 124 121 114 94 77 87 91 89 83 94 94 113 87 85 89 97 94
33 38 42 55 51 109 54 46 76 78 80 186 60 101 113 348 185 143 100 75 95 101 107 90 119 105 114 102 99 105 88 74 72 74 73 85 88 88 114 168 110 82 81 83 81
1 17 29 18 17 55 24 23 53 43 113 130 -7 144 91 209 176 81 83 95 95 99 117 113 95 93 114 111 111 81 79 82 78 84 62 67 77 72 101 58 77 95 107 89 74
-4 17 25 -21 22 57 31 23 41 49 127 74 124 253 211 117 105 71 76 101 83 73 105 111 76 103 87 101 87 77 105 91 87 86 41 28 44 37 35 56 85 74 27 29 52
4 10 19 -24 -12 35 21 12 28 82 131 159 175 253 157 147 156 115 78 104 101 92 72 84 85 88 100 66 96 92 80 116 72 55 39 29 49 27 39 45 43 26 52 79 68
5 -5 14 6 25 33 47 24 18 116 102 63 161 256 156 158 206 133 86 61 72 88 106 77 75 79 81 91 96 121 83 66 56 48 46 73 69 67 63 91 60 100 135 129 96
4 -0 28 26 33 53 17 25 24 105 155 228 246 160 168 134 98 70 63 60 65 70 94 99 85 77 85 94 69 72 56 38 45 45 56 77 75 61 114 129 130 129 101 77 69
31 38 11 3 58 58 174 97 209 275 227 132 206 84 120 64 48 52 43 55 65 82 83 92 93 83 63 62 51 42 35 43 104 71 48 45 82 114 165 110 110 91 40 41 34
55 35 13 49 76 56 100 169 128 259 250 133 200 144 105 101 78 63 44 42 71 79 77 94 77 47 50 40 45 44 63 51 64 30 29 38 42 81 62 93 54 33 9 45 28
37 60 72 51 61 150 132 177 228 245 248 254 169 161 174 103 98 83 60 41 44 71 83 64 47 42 43 42 51 46 63 55 45 24 24 49 55 34 71 64 57 65 76 100 88
28 14 43 67 108 135 124 193 107 91 329 168 158 109 98 81 117 87 73 39 54 53 60 54 48 43 43 42 62 42 36 20 23 24 41 77 38 -32 30 53 52 33 53 52 76
119 41 -43 -22 67 111 93 45 143 132 224 128 134 115 50 47 36 66 50 48 44 44 65 41 43 45 38 20 50 32 37 44 32 49 50 13 23 26 89 60 18 12 9 59 55
49 69 32 106 127 80 43 29 59 170 155 126 129 102 80 74 51 32 37 31 26 52 57 40 38 32 23 22 42 25 30 35 50 23 1 -10 69 74 115 38 9 18 -30 -18 147
63 15 28 68 112 59 12 39 107 131 132 90 86 87 64 63 52 34 22 36 52 58 72 80 60 14 29 -0 25 13 10 11 14 35 -10 93 69 68 127 50 8 7 -8 4 -3
45 48 51 35 53 49 11 138 97 99 70 83 66 57 25 -25 -19 -27 -24 -25 -16 -9 -11 13 16 -12 18 -4 13 -26 -44 -27 -8 -8 4 79 59 127 162 64 1 -1 37 35 20
23 87 103 99 44 12 58 23 124 123 65 -26 27 -29 -45 -34 -16 -36 -43 -42 -22 -8 -43 -49 -46 17 23 1 -18 -19 -40 -54 -14 -10 30 54 117 135 110 83 45 15 -31 7 41
91 140 181 112 60 35 120 70 68 62 46 75 60 68 63 58 60 65 61 50 46 20 12 27 35 20 11 -7 -5 10 -40 -23 -11 -20 10 24 73 114 97 84 98 43 -1 6 -12
66 106 152 136 123 71 118 72 59 61 70 79 71 56 60 79 72 61 46 43 28 15 12 11 11 40 2 35 37 -18 -29 -45 -3 72 40 40 64 94 88 62 35 70 59 51 20
73 57 102 55 41 97 91 69 77 88 90 81 81 79 76 66 58 49 50 50 27 25 30 42 41 41 12 -7 7 -28 -40 -23 -46 -8 90 105 75 87 54 19 -7 -24 9 20 31
42 63 98 44 47 55 54 55 66 57 54 46 40 35 43 46 33 47 39 25 58 59 54 58 53 40 8 7 15 -11 -36 41 64 89 19 48 46 81 86 60 18 -10 20 35 34
42 43 56 50 32 32 39 54 43 46 38 33 33 17 20 12 24 25 32 33 61 58 57 52 64 98 114 72 45 43 48 119 113 -16 78 73 -2 84 81 93 60 40 44 39 44
26 37 40 45 38 35 37 40 49 39 27 15 16 -0 20 18 20 31 34 35 38 43 52 67 87 116 113 127 151 159 113 149 194 102 43 58 48 28 80 97 87 54 58 45 39
36 41 22 22 18 29 34 51 50 46 46 34 25 22 22 28 36 33 31 38 44 50 83 104 104 86 108 70 89 134 107 99 164 135 134 60 22 68 54 94 89 70 74 61 47
10 2 16 29 19 15 30 34 36 27 25 24 28 24 33 48 62 68 90 93 133 162 160 176 126 68 118 39 53 -0 28 40 70 147 141 132 89 82 81 96 91 82 92 83 76

GFSSW_con_3kmhel_108.txt.gz
Helicity
77 73 68 59 59 86 94 67 62 107 145 88 56 65 58 67 87 95 104 88 73 48 61 80 90 91 91 91 83 61 77 79 70 66 80 69 67 52 54 42 29 40 29 35 59
55 80 81 67 102 72 85 88 103 69 146 118 47 95 65 67 104 172 163 64 73 66 55 53 74 84 106 111 93 92 92 88 75 79 82 64 59 59 43 27 26 31 23 32 43
74 78 55 21 38 91 86 69 83 90 92 112 -10 102 228 148 171 202 216 107 86 71 82 78 85 97 115 112 111 95 115 91 91 89 89 84 71 66 52 43 46 47 62 63 59
54 53 58 31 29 95 105 58 51 95 101 97 -46 45 132 248 217 181 169 115 99 83 87 86 89 111 118 106 111 106 97 96 88 94 106 107 99 83 45 81 66 69 81 82 93
32 38 37 51 49 12 58 58 33 80 105 73 13 76 100 281 244 187 126 115 114 102 111 95 104 106 109 103 97 104 82 72 76 79 73 61 54 46 52 44 57 77 82 74 85
21 36 25 46 31 76 87 49 35 67 76 21 13 130 177 252 177 191 128 115 124 99 106 94 83 78 114 109 98 81 63 65 71 61 44 45 47 63 54 93 106 91 75 68 55
19 32 27 5 14 64 52 31 33 65 36 -47 70 184 235 300 180 138 116 120 108 83 111 111 72 87 69 78 70 66 74 62 54 58 49 31 20 8 57 97 87 59 40 28 35
22 22 21 -9 96 82 53 16 38 30 71 73 140 184 150 321 158 90 85 91 88 98 96 90 83 101 100 64 69 81 65 84 83 76 58 37 52 57 62 63 70 61 46 63 83
12 11 19 39 66 69 35 14 33 33 29 222 246 140 72 113 99 79 76 80 79 78 89 73 80 100 79 75 83 94 94 87 66 82 49 55 51 64 53 58 59 75 119 112 110
20 29 16 46 82 52 22 33 35 95 105 225 201 136 103 92 87 83 64 60 75 70 87 100 102 99 98 93 103 85 79 64 51 58 33 33 25 38 47 61 85 109 100 109 121
10 16 48 67 86 114 24 91 149 268 314 165 80 89 94 88 100 99 93 90 87 85 98 112 113 134 105 114 97 75 60 53 38 36 7 33 45 37 56 117 114 118 88 89 82
5 33 34 65 43 58 104 161 93 301 310 205 159 166 93 87 67 115 82 89 101 104 95 98 113 76 74 73 67 57 53 39 24 44 19 34 13 43 136 140 113 67 60 65 43
26 32 26 36 62 114 139 207 140 344 360 372 240 212 124 77 80 96 71 66 85 97 117 111 80 48 58 53 52 38 29 39 31 31 -27 1 9 66 81 74 66 54 57 40 74
-22 10 39 111 75 116 157 261 43 178 289 279 147 175 140 79 64 59 53 46 53 77 74 77 55 45 46 45 25 34 32 35 19 -2 55 55 22 45 53 35 72 70 76 56 46
69 13 -11 70 24 75 181 172 98 123 320 149 144 121 93 86 74 65 51 53 54 47 38 52 42 39 40 40 20 67 39 -1 -19 5 38 61 27 36 68 76 58 49 60 51 35
66 39 126 24 28 86 71 118 74 182 200 109 119 113 91 75 58 56 45 34 30 38 52 50 40 39 50 40 23 14 2 -5 33 49 34 63 46 25 82 125 62 42 64 38 26
52 81 79 59 -1 -9 85 143 95 180 107 78 92 95 78 68 56 50 41 40 36 27 53 65 65 45 16 32 15 7 -4 22 24 29 43 118 60 30 106 106 103 75 22 37 38
67 63 46 19 3 18 116 193 82 128 86 83 82 62 59 66 53 51 26 42 30 55 57 71 64 28 19 4 15 16 5 22 12 28 -3 88 3 65 111 102 125 107 62 37 35
51 67 62 33 29 64 132 131 111 94 75 78 88 75 33 17 12 5 20 3 3 3 -5 -10 -37 1 2 8 2 -12 -4 -6 3 9 -1 13 36 62 82 52 63 77 113 63 -39
62 115 146 56 82 95 103 65 78 77 67 93 76 86 65 68 56 44 32 42 32 23 22 23 49 8 -9 -16 12 8 -3 -13 -22 -20 -28 20 42 35 37 10 13 36 71 75 37
62 98 98 93 136 72 60 46 58 73 72 79 67 59 49 52 50 48 52 49 36 28 19 18 15 17 12 44 36 -12 -17 -45 -26 -34 -27 -15 52 90 46 19 13 17 16 26 34
62 52 69 64 51 59 49 53 68 87 79 64 60 48 53 57 56 51 47 39 23 22 34 18 21 27 24 30 20 18 -24 -38 -46 -30 -23 -11 17 104 73 47 41 33 23 10 20
55 59 69 59 67 49 38 40 48 62 54 53 41 42 39 50 47 47 39 17 42 47 43 37 22 21 28 50 44 84 98 10 60 64 95 98 103 98 93 85 83 54 33 19 18
61 43 39 43 25 30 41 48 45 33 36 30 26 26 30 31 31 36 37 32 56 65 82 76 69 80 96 75 111 138 107 126 167 119 58 140 57 83 98 108 108 95 77 62 46
25 42 31 29 18 20 30 31 34 43 28 32 24 26 25 29 27 27 28 32 54 71 89 84 110 150 115 92 90 126 101 113 208 179 170 81 106 67 57 102 122 102 93 77 54
28 40 31 37 34 31 17 12 8 6 13 10 8 2 8 10 11 17 33 41 52 109 131 117 130 97 87 88 77 120 92 64 98 104 139 128 60 40 17 87 130 120 112 89 80
22 11 15 20 35 36 33 31 20 16 13 2 -3 -5 3 4 -15 -2 20 39 95 147 181 193 149 111 160 62 73 37 32 65 93 106 114 96 79 62 77 85 89 104 113 92 80

GFSSW_con_3kmhel_111.txt.gz
Helicity
108 122 65 66 56 78 96 130 108 88 40 30 54 58 54 60 74 110 142 121 101 77 83 57 64 65 57 71 79 83 52 56 66 61 59 51 49 50 45 5 15 19 28 44 63
46 54 33 43 86 116 126 146 124 142 90 36 54 60 73 29 81 139 143 103 88 75 62 49 61 54 71 75 77 93 87 79 107 106 85 68 69 71 37 20 22 20 22 41 52
43 47 36 19 111 138 167 97 93 119 116 182 39 136 220 182 134 157 127 125 108 84 56 70 63 82 92 86 99 84 127 76 84 97 92 72 52 52 30 44 78 92 100 83 63
23 42 50 48 73 58 85 94 89 100 125 153 74 142 244 296 202 121 141 124 121 99 63 56 61 89 90 89 87 89 81 91 78 76 77 77 78 41 23 43 86 75 69 59 56
32 53 59 37 51 15 12 66 71 85 145 52 32 46 192 298 229 168 154 114 122 133 89 73 64 83 87 82 74 90 74 70 72 74 79 73 64 56 55 51 82 91 74 65 68
41 9 -1 34 57 10 3 36 68 73 102 71 29 35 123 274 253 192 164 128 144 129 120 106 90 87 95 88 109 93 86 80 84 85 81 91 82 87 72 72 86 79 74 67 57
-15 -4 16 37 60 97 70 59 69 57 37 51 94 78 190 199 258 150 141 147 154 144 121 136 115 115 80 96 84 86 89 64 58 70 86 67 48 29 26 77 65 68 65 46 52
16 29 19 -3 50 121 101 65 64 64 22 131 119 253 205 296 366 142 131 127 123 109 126 128 107 115 128 93 75 77 70 61 79 60 65 49 68 82 67 62 55 49 45 62 66
-13 -2 10 42 52 72 29 47 61 53 68 176 202 213 188 340 220 170 165 132 123 117 112 99 110 121 97 91 86 57 79 80 56 70 74 24 60 40 68 52 43 47 55 71 114
-25 18 38 54 54 45 51 44 38 82 217 150 225 76 220 354 212 157 124 122 122 108 112 110 105 110 99 100 113 85 84 83 87 57 67 33 22 20 50 64 67 60 105 132 140
25 52 50 38 21 -23 30 93 152 303 298 124 53 73 39 190 145 111 104 110 80 94 100 94 103 103 109 126 121 116 100 87 83 101 56 42 38 27 55 70 65 134 135 162 135
13 28 55 -8 80 54 84 144 143 196 226 221 120 80 117 156 101 86 108 118 98 93 80 99 102 93 93 100 103 108 103 86 66 42 39 27 33 23 91 81 90 110 114 103 105
28 27 32 50 11 104 63 133 143 220 173 259 165 134 135 99 97 97 96 91 86 74 79 78 92 66 77 86 96 79 83 85 56 42 -8 42 9 62 55 55 62 98 135 103 94
53 56 63 68 91 106 190 263 131 125 180 218 112 117 101 93 85 75 58 69 69 74 93 86 61 74 76 82 62 62 53 37 28 42 52 62 64 33 86 42 56 118 122 121 84
42 6 42 94 75 223 240 148 125 85 192 181 143 101 69 26 44 54 62 45 43 46 39 53 57 58 59 48 33 67 34 31 30 21 34 75 35 45 64 43 82 94 99 83 55
12 -46 14 -24 14 26 91 108 75 128 159 110 161 148 48 60 47 45 36 17 12 46 53 46 33 31 54 32 9 24 17 10 4 36 43 82 51 33 76 84 83 44 73 54 62
9 -16 -12 38 67 117 131 73 89 183 116 65 91 96 66 58 30 16 26 45 42 55 68 47 43 41 23 23 20 10 21 41 53 53 49 54 54 -11 19 109 72 50 78 91 58
18 18 25 60 88 129 151 159 57 123 97 93 114 70 78 86 57 54 47 46 38 41 32 36 40 39 37 35 39 33 27 40 24 28 36 84 17 30 77 61 94 71 93 99 97
61 66 87 66 100 114 135 93 84 115 83 78 106 105 90 57 40 29 30 19 14 13 27 34 41 18 3 16 10 27 17 4 0 -29 -29 -31 4 51 58 44 46 39 57 53 76
124 118 102 114 110 157 72 67 70 55 48 64 54 58 50 53 64 62 48 25 33 21 22 5 -10 7 -9 -6 -4 -2 19 -34 -44 -29 -29 -19 37 72 71 46 36 26 14 10 17
81 96 64 97 102 43 57 15 30 42 53 70 59 59 44 51 41 40 32 28 28 22 18 17 4 10 9 37 34 42 -19 -23 0 4 -35 -29 26 132 78 49 39 52 26 5 0
62 47 46 57 61 60 55 45 39 55 65 55 45 21 30 36 32 33 32 27 30 24 25 14 15 23 31 81 72 38 29 57 1 65 102 -43 22 123 108 49 63 76 57 32 19
44 49 69 57 52 38 45 40 40 48 51 46 37 36 29 37 39 34 33 25 35 22 6 1 25 27 23 14 33 65 55 64 76 95 88 17 106 149 132 72 90 94 95 70 42
47 36 42 41 34 32 41 32 30 22 21 22 12 18 20 26 21 14 16 0 8 11 -1 5 26 40 62 26 36 102 85 99 111 139 93 144 106 70 124 90 87 101 109 99 77
21 28 22 28 22 22 20 20 31 33 19 14 13 19 11 23 24 26 14 16 31 57 59 52 66 51 65 51 50 84 90 77 151 184 112 57 56 15 19 77 85 123 115 106 93
28 21 26 15 22 28 18 12 9 2 8 9 12 4 10 19 14 21 6 26 37 81 103 128 124 64 57 61 31 86 71 59 76 81 107 103 77 59 7 5 30 112 131 113 97
42 29 15 14 16 18 12 26 33 25 22 15 16 18 28 21 13 11 22 31 64 119 149 175 123 74 148 10 7 33 33 -17 59 72 76 86 63 1 2 38 15 37 83 91 88

GFSSW_con_3kmhel_114.txt.gz
Helicity
88 135 97 55 62 89 105 131 147 157 169 107 5 57 43 36 50 137 149 148 114 92 110 77 61 85 98 121 165 154 179 158 202 231 84 40 40 32 34 33 48 39 43 55 48
26 48 53 66 33 75 94 116 142 165 168 163 62 49 44 21 98 153 106 111 126 123 144 66 70 58 113 106 133 185 197 186 180 173 66 61 74 62 60 54 39 31 55 81 71
17 10 -7 -18 24 47 56 83 109 137 185 138 38 68 192 133 134 167 120 122 132 171 157 111 64 72 113 76 133 113 111 46 80 109 121 82 53 60 51 42 88 116 89 70 56
13 23 26 22 15 23 54 77 84 123 145 33 8 146 188 157 210 98 124 136 130 162 140 88 79 90 84 89 93 78 85 110 69 74 72 63 65 47 30 38 60 77 78 71 41
21 25 30 22 14 4 41 56 95 122 128 2 74 177 306 290 246 169 169 124 114 156 137 131 98 113 96 87 83 89 75 78 73 60 59 57 34 36 39 23 56 100 53 28 40
9 23 37 33 8 25 46 73 87 107 20 -15 25 52 223 354 322 163 173 144 147 138 164 185 134 130 117 96 123 92 77 72 77 69 49 63 54 81 54 87 65 39 50 66 57
33 41 42 34 39 27 48 70 80 84 -21 -17 -30 73 239 223 350 230 115 151 196 156 137 173 164 147 83 99 81 71 59 41 43 64 80 74 61 37 22 81 46 35 59 56 41
1 -16 -29 6 14 40 71 87 72 24 13 34 18 152 69 362 394 257 114 117 113 135 136 170 140 115 129 79 72 71 64 61 80 63 85 80 61 55 79 47 44 42 50 56 26
-7 -3 32 19 35 63 69 59 93 44 123 94 98 87 33 369 220 204 149 145 111 106 110 113 120 108 97 113 112 82 104 58 62 59 83 52 56 32 111 71 43 55 78 60 148
11 17 48 62 29 53 57 35 114 249 102 74 82 123 112 155 224 154 136 139 132 117 128 136 128 130 138 152 162 158 113 114 72 40 43 51 53 41 54 63 88 92 135 176 208
12 16 15 17 31 55 121 133 232 212 143 76 105 130 165 205 223 151 152 162 133 161 159 150 165 167 156 158 130 141 131 118 118 98 65 48 48 42 49 102 77 138 147 180 148
10 14 74 35 53 71 115 141 143 131 209 214 224 379 359 297 153 167 206 159 151 138 118 139 141 128 114 118 124 127 109 117 80 94 63 50 47 68 66 107 95 88 148 136 97
48 37 31 22 35 109 113 118 156 229 198 247 212 203 311 169 127 148 158 178 159 109 126 115 111 91 109 106 123 86 110 115 80 57 31 33 21 72 55 69 47 43 121 121 48
44 61 70 83 101 80 173 209 201 144 188 207 226 227 193 144 134 89 94 92 110 119 106 99 65 85 83 106 91 81 77 63 64 70 48 75 48 48 93 19 23 187 141 100 56
-12 26 59 155 110 152 135 129 93 62 188 105 153 102 112 76 69 76 76 77 71 60 54 66 56 64 80 55 52 74 44 35 53 38 54 51 75 55 94 55 127 90 63 80 71
-80 -59 81 103 95 63 85 90 41 64 66 58 88 86 50 39 56 58 46 34 33 53 58 50 44 38 54 34 14 24 25 15 3 34 58 82 98 49 123 89 68 74 72 85 62
-2 -36 27 51 60 74 73 45 48 58 89 67 69 35 25 38 45 52 39 34 22 50 47 25 37 39 20 24 34 30 58 38 58 64 70 51 71 39 67 113 80 66 76 72 63
51 54 66 78 61 79 74 75 7 72 58 -3 51 -0 -13 -42 -16 -10 -13 6 -0 -2 22 32 32 32 47 35 48 46 34 57 47 74 44 122 55 47 123 79 85 71 81 54 37
64 100 106 103 71 63 99 38 24 40 24 -44 64 -18 34 31 40 40 18 1 13 35 23 37 22 28 14 15 19 32 22 46 46 36 26 -26 33 -11 144 118 86 71 86 36 3
137 142 154 89 107 115 69 55 11 8 29 66 35 34 26 34 60 59 48 39 1 19 32 7 -6 28 14 4 4 -1 46 6 -28 -20 6 -23 -25 99 125 91 66 90 95 47 19
90 123 101 93 79 60 53 24 28 19 27 42 56 52 47 58 46 46 44 43 36 28 29 19 7 9 6 19 31 16 -6 -48 -17 -27 3 -37 23 106 111 81 66 69 80 69 29
63 61 63 55 44 43 54 40 47 60 59 47 48 26 29 39 36 29 20 6 8 7 20 -2 -2 4 18 28 17 45 9 66 22 3 69 -7 51 180 147 104 77 45 94 98 60
57 65 67 54 55 58 65 29 32 36 43 38 30 28 16 23 32 22 12 7 23 11 -9 -2 9 -3 -9 17 14 22 34 60 33 33 104 69 81 166 130 111 101 73 111 119 94
49 33 46 37 60 38 49 42 35 24 18 20 5 14 21 38 18 23 32 19 31 24 16 18 52 75 102 61 -1 65 72 83 113 181 210 318 212 85 44 144 90 106 128 169 140
10 29 30 17 10 12 23 20 23 30 16 11 18 16 10 27 31 33 18 22 30 59 39 45 74 46 60 32 9 69 104 126 207 295 262 220 144 187 -8 -93 -48 162 190 164 165
39 13 17 6 12 17 3 13 15 3 7 10 10 -7 5 28 2 30 4 26 34 66 49 56 89 32 61 45 53 71 81 109 146 57 107 123 109 86 61 49 92 79 119 220 171
29 37 33 6 -5 1 -6 -21 -7 -15 1 3 -3 1 22 -4 -30 -17 -9 -4 30 119 119 138 121 100 161 37 -12 90 65 107 73 2 8 69 94 52 67 68 64 66 77 129 163

GFSSW_con_3kmhel_117.txt.gz
Helicity
99 88 77 119 81 76 111 125 135 138 117 -24 16 48 44 77 153 170 182 134 125 120 146 177 158 137 126 160 178 167 203 312 342 268 154 115 109 84 46 43 44 43 66 68 44
-26 57 9 48 211 113 98 122 115 119 132 115 46 58 120 154 126 188 137 142 122 122 163 163 114 111 152 145 166 187 237 259 234 178 119 89 79 64 63 65 46 61 88 72 27
19 20 -20 26 3 65 54 85 99 112 101 87 89 116 193 139 190 211 159 153 139 141 155 190 79 121 178 162 186 206 203 158 173 138 120 69 54 55 54 47 70 53 40 56 35
18 31 8 11 -0 43 48 69 80 94 60 58 134 119 305 196 265 152 164 150 149 161 167 159 137 174 172 159 178 148 170 104 86 91 81 59 51 50 46 17 56 56 54 47 49
20 33 26 22 35 62 59 104 97 87 -6 6 129 232 277 260 203 273 200 177 184 188 194 195 184 185 155 119 136 97 83 79 58 54 50 47 32 33 33 5 4 55 69 50 26
12 26 32 31 28 51 50 85 88 22 7 4 114 254 218 261 187 321 254 158 177 190 179 170 155 105 123 122 101 76 61 48 56 53 39 43 37 76 43 62 70 67 54 41 28
5 31 32 44 53 43 30 45 34 8 6 54 118 247 339 249 226 363 240 130 132 112 127 162 138 97 111 112 99 79 84 68 54 49 52 55 47 10 14 64 54 39 37 52 28
-11 4 37 61 54 36 38 30 31 12 9 60 163 161 175 355 418 347 121 127 115 120 115 153 137 98 110 68 118 109 93 101 70 62 58 69 53 75 38 45 48 36 42 58 203
34 -12 39 53 37 35 31 18 87 42 50 39 100 62 69 348 312 259 176 141 122 127 129 134 116 111 120 119 152 127 116 74 67 51 63 71 57 44 49 65 74 73 99 202 232
32 34 30 27 10 -24 91 113 184 231 129 62 37 58 79 205 280 260 204 166 160 155 155 139 130 125 153 123 121 120 114 98 76 44 64 70 65 44 52 89 72 97 212 235 168
-16 58 29 43 30 95 146 175 111 112 214 127 111 41 54 225 234 212 199 211 182 176 166 164 179 149 117 116 92 92 107 118 86 51 48 57 59 64 86 85 105 197 161 139 117
16 17 40 25 49 54 65 88 102 66 188 293 233 150 162 191 176 213 178 189 171 161 149 169 147 108 100 115 115 128 113 115 87 83 67 66 57 72 62 79 138 163 134 120 97
31 30 41 48 54 135 98 95 132 149 129 260 284 196 195 147 129 173 140 161 141 168 141 127 103 99 98 124 127 124 101 106 83 72 55 68 62 72 92 97 142 160 116 116 94
21 35 60 50 107 183 126 180 168 116 179 171 198 146 161 148 124 135 124 100 103 99 96 104 85 101 100 115 107 113 91 100 101 89 76 71 41 68 73 62 123 142 92 78 52
7 -55 -34 70 101 89 138 89 73 46 117 106 178 141 138 57 84 102 98 79 79 85 82 87 88 104 111 72 62 86 67 68 61 63 76 92 105 44 113 76 114 90 65 60 51
15 24 52 68 62 63 73 45 58 131 44 95 134 143 121 122 86 78 78 68 69 81 99 67 58 66 69 56 47 57 62 41 49 58 76 50 95 55 112 89 112 77 71 66 56
-1 9 28 51 59 53 63 34 59 -11 74 96 100 66 53 63 66 64 52 47 44 57 74 72 49 39 41 60 46 55 67 75 71 73 52 68 109 55 107 95 94 69 56 51 55
65 45 49 57 36 26 23 50 34 76 58 48 45 56 29 63 68 54 45 42 34 27 35 32 40 25 38 38 50 43 60 65 60 66 63 108 20 33 74 96 96 63 44 36 50
47 82 109 90 40 12 44 -5 36 54 -7 15 -26 2 36 43 32 48 39 31 32 37 8 20 13 35 28 39 38 45 43 43 62 58 29 24 -3 -24 150 128 88 62 59 54 57
94 107 169 125 88 65 38 46 26 34 33 37 61 51 48 53 47 54 55 46 29 27 5 10 -5 7 -5 -18 -0 13 9 -26 -26 -23 -30 -15 -15 36 87 59 58 47 12 33 36
84 98 126 102 70 36 111 58 26 10 3 31 36 30 45 57 57 54 57 48 39 48 30 27 1 5 -12 10 21 18 4 -5 -4 -3 -1 -45 -13 52 54 58 52 64 26 20 47
70 90 87 68 60 57 68 35 30 27 32 39 50 22 38 49 44 42 45 29 33 20 20 12 1 16 26 -0 57 57 41 71 68 13 90 70 102 41 75 94 90 60 57 70 68
48 66 60 49 56 57 47 40 31 47 55 39 32 20 17 35 54 36 21 21 26 20 16 12 13 7 1 -0 73 97 83 123 123 152 226 162 181 204 166 144 101 30 101 106 137
25 26 35 19 34 29 36 38 31 25 23 16 18 8 19 32 18 29 26 16 23 17 15 -0 36 68 102 44 49 69 56 75 116 213 237 446 287 246 193 163 111 131 129 183 228
18 22 32 13 9 4 1 12 11 18 5 2 8 15 18 38 43 38 17 12 11 16 17 17 75 53 62 32 10 102 147 140 252 341 343 258 150 257 149 124 107 153 173 231 250
24 23 -5 4 3 -6 -7 11 14 5 10 16 26 15 21 41 20 35 6 24 31 38 51 50 116 97 124 40 51 119 108 138 213 244 320 265 201 139 41 -11 8 31 70 121 163
24 14 14 18 -9 -19 -0 -5 -3 -3 3 9 4 -4 9 15 -13 -2 14 33 86 100 118 167 165 123 138 97 35 97 92 107 135 175 254 326 282 55 -14 10 -16 2 28 50 80